[[{"header":{"parameterUnit":"m.s-1","parameterCategory":1,"la1":30.6,"la2":29.2853,"lo1":-89.7004,"lo2":-87.6739,"dx":0.0162,"dy":0.0183,"nx":112,"ny":82,"refTime":"2022-12-02T06:00:00:Z","depth":0,"parameterNumber":2,"parameterNumberName":"U-component_of_WINDS"},"data":[0.0,0.0,0.0,0.0,0.0,0.0,0.0,0.0,0.0,0.0,0.0,0.0,0.0,0.0,0.0,0.0,0.0,0.0,0.0,0.0,0.0,0.0,0.0,0.0,0.0,0.0,0.0,0.0,0.0,0.0,0.0,0.0,0.0,0.0,0.0,0.0,0.0,0.0,0.0,0.0,0.0,0.0,0.0,0.0,0.0,0.0,0.0,0.0,0.0,0.0,0.0,0.0,0.0,0.0,0.0,0.0,0.0,0.0,0.0,0.0,0.0,0.0,0.0,0.0,0.0,0.0,0.0,0.0,0.0,0.0,0.0,0.0,0.0,0.0,0.0,0.0,0.0,0.0,0.0,0.0,0.0,0.0,0.0,0.0,0.0,0.0,0.0,0.0,0.0,0.0,-4.1379,-4.3513,-4.4506,-4.5066,-4.5183,-4.3575,-4.1802,-4.0019,0.0,0.0,0.0,0.0,0.0,0.0,0.0,0.0,0.0,0.0,0.0,0.0,0.0,0.0,0.0,0.0,0.0,0.0,0.0,0.0,0.0,0.0,0.0,0.0,0.0,0.0,0.0,0.0,0.0,0.0,0.0,0.0,0.0,0.0,0.0,0.0,0.0,0.0,0.0,0.0,0.0,0.0,0.0,0.0,0.0,0.0,0.0,0.0,0.0,0.0,0.0,0.0,0.0,0.0,0.0,0.0,0.0,0.0,0.0,0.0,0.0,0.0,0.0,0.0,0.0,0.0,0.0,0.0,0.0,0.0,0.0,0.0,0.0,0.0,0.0,0.0,0.0,0.0,0.0,0.0,0.0,0.0,0.0,0.0,0.0,0.0,0.0,0.0,0.0,0.0,0.0,0.0,0.0,0.0,0.0,0.0,0.0,0.0,0.0,0.0,0.0,0.0,0.0,0.0,-4.1168,-4.523,-4.5797,-4.6208,-4.6945,-4.4816,-4.2676,-4.0912,0.0,0.0,0.0,0.0,0.0,0.0,0.0,0.0,0.0,0.0,0.0,0.0,0.0,0.0,0.0,0.0,0.0,0.0,0.0,0.0,0.0,0.0,0.0,0.0,0.0,0.0,0.0,0.0,0.0,0.0,0.0,0.0,0.0,0.0,0.0,0.0,0.0,0.0,0.0,0.0,0.0,0.0,0.0,0.0,0.0,0.0,0.0,0.0,0.0,0.0,0.0,0.0,0.0,0.0,0.0,0.0,0.0,0.0,0.0,0.0,0.0,0.0,0.0,0.0,0.0,0.0,0.0,0.0,0.0,0.0,0.0,0.0,0.0,0.0,0.0,0.0,0.0,0.0,0.0,0.0,0.0,0.0,0.0,0.0,0.0,0.0,0.0,0.0,0.0,0.0,0.0,0.0,0.0,0.0,0.0,0.0,0.0,0.0,0.0,0.0,0.0,0.0,0.0,-4.1641,-4.34,-4.6416,-4.6372,-4.6277,-4.6648,-4.4802,-4.2663,-4.0457,-3.8747,0.0,0.0,0.0,0.0,0.0,0.0,0.0,0.0,0.0,0.0,0.0,0.0,0.0,0.0,0.0,0.0,0.0,0.0,0.0,0.0,0.0,0.0,0.0,0.0,0.0,0.0,0.0,0.0,0.0,0.0,0.0,0.0,0.0,0.0,0.0,0.0,0.0,0.0,0.0,0.0,0.0,0.0,0.0,0.0,0.0,0.0,0.0,0.0,0.0,0.0,0.0,0.0,0.0,0.0,0.0,0.0,0.0,0.0,0.0,0.0,0.0,0.0,0.0,0.0,0.0,0.0,0.0,0.0,0.0,0.0,0.0,0.0,0.0,0.0,0.0,0.0,0.0,0.0,0.0,0.0,0.0,0.0,0.0,0.0,0.0,0.0,0.0,0.0,0.0,0.0,0.0,0.0,0.0,0.0,0.0,0.0,0.0,0.0,0.0,0.0,0.0,0.0,-4.3782,-4.5768,-4.7151,-4.6732,-4.6367,-4.6362,-4.4853,-4.2758,-4.0143,-3.9182,0.0,0.0,0.0,0.0,0.0,0.0,0.0,0.0,0.0,0.0,0.0,0.0,0.0,0.0,0.0,0.0,0.0,0.0,0.0,0.0,0.0,0.0,0.0,0.0,0.0,0.0,0.0,0.0,0.0,0.0,0.0,0.0,0.0,0.0,0.0,0.0,0.0,0.0,0.0,0.0,0.0,0.0,0.0,0.0,0.0,0.0,0.0,0.0,0.0,0.0,0.0,0.0,0.0,0.0,0.0,0.0,0.0,0.0,0.0,0.0,0.0,0.0,0.0,0.0,0.0,0.0,0.0,0.0,0.0,0.0,0.0,0.0,0.0,0.0,0.0,0.0,0.0,0.0,0.0,0.0,0.0,0.0,0.0,0.0,0.0,0.0,0.0,0.0,0.0,0.0,0.0,0.0,0.0,0.0,0.0,0.0,0.0,0.0,0.0,0.0,0.0,0.0,-4.4465,-4.7151,-4.7273,-4.724,-4.7206,-4.7206,-4.5697,-4.3605,-4.0994,-4.0057,0.0,0.0,0.0,0.0,0.0,0.0,0.0,0.0,0.0,0.0,0.0,0.0,0.0,0.0,0.0,0.0,0.0,0.0,0.0,0.0,0.0,0.0,0.0,0.0,0.0,0.0,0.0,0.0,0.0,0.0,0.0,0.0,0.0,0.0,0.0,0.0,0.0,0.0,0.0,0.0,0.0,0.0,0.0,0.0,0.0,0.0,0.0,0.0,0.0,0.0,0.0,0.0,0.0,0.0,0.0,0.0,0.0,0.0,0.0,0.0,0.0,0.0,0.0,0.0,0.0,0.0,0.0,0.0,0.0,0.0,0.0,0.0,0.0,0.0,0.0,0.0,0.0,0.0,0.0,0.0,0.0,0.0,0.0,0.0,0.0,0.0,0.0,0.0,0.0,0.0,0.0,0.0,0.0,0.0,0.0,0.0,0.0,0.0,0.0,0.0,0.0,0.0,-4.4235,-4.6932,-4.8613,-4.8404,-4.8094,-4.8094,-4.6556,-4.4463,-4.1883,0.0,0.0,0.0,0.0,0.0,0.0,0.0,0.0,0.0,0.0,0.0,0.0,0.0,0.0,0.0,0.0,0.0,0.0,0.0,0.0,0.0,0.0,0.0,0.0,0.0,0.0,0.0,0.0,0.0,0.0,0.0,0.0,0.0,0.0,0.0,0.0,0.0,0.0,0.0,0.0,0.0,0.0,0.0,0.0,0.0,0.0,0.0,0.0,0.0,0.0,0.0,0.0,0.0,0.0,0.0,0.0,0.0,0.0,0.0,0.0,0.0,0.0,0.0,0.0,0.0,0.0,0.0,0.0,0.0,0.0,0.0,0.0,0.0,0.0,0.0,0.0,0.0,0.0,0.0,0.0,0.0,0.0,0.0,0.0,0.0,0.0,0.0,0.0,0.0,0.0,0.0,0.0,0.0,0.0,0.0,0.0,0.0,0.0,0.0,0.0,0.0,0.0,-4.1912,-4.5153,-4.8013,-4.986,-4.9634,-4.9147,-4.8638,-4.724,-4.5336,-4.2772,0.0,0.0,0.0,0.0,0.0,0.0,0.0,0.0,0.0,0.0,0.0,0.0,0.0,0.0,0.0,0.0,0.0,0.0,0.0,0.0,0.0,0.0,0.0,0.0,0.0,0.0,0.0,0.0,0.0,0.0,0.0,0.0,0.0,0.0,0.0,0.0,0.0,0.0,0.0,0.0,0.0,0.0,0.0,0.0,0.0,0.0,0.0,0.0,0.0,0.0,0.0,0.0,0.0,0.0,0.0,0.0,0.0,0.0,0.0,0.0,0.0,0.0,0.0,0.0,0.0,0.0,0.0,0.0,0.0,0.0,0.0,0.0,0.0,0.0,0.0,0.0,0.0,0.0,0.0,0.0,0.0,0.0,0.0,0.0,0.0,0.0,0.0,0.0,0.0,0.0,0.0,0.0,0.0,0.0,0.0,0.0,0.0,0.0,0.0,0.0,0.0,0.0,-4.2911,-4.7516,-5.0761,-5.0898,-5.0913,-5.0305,-4.8743,-4.7817,-4.6224,0.0,0.0,0.0,0.0,0.0,0.0,0.0,0.0,0.0,0.0,0.0,0.0,0.0,0.0,0.0,0.0,0.0,0.0,0.0,0.0,0.0,0.0,0.0,0.0,0.0,0.0,0.0,0.0,0.0,0.0,0.0,0.0,0.0,0.0,0.0,0.0,0.0,0.0,0.0,0.0,0.0,0.0,0.0,0.0,0.0,0.0,0.0,0.0,0.0,0.0,0.0,0.0,0.0,0.0,0.0,0.0,0.0,0.0,0.0,0.0,0.0,0.0,0.0,0.0,0.0,0.0,0.0,0.0,0.0,0.0,0.0,0.0,0.0,0.0,0.0,0.0,0.0,0.0,0.0,0.0,0.0,0.0,0.0,0.0,0.0,0.0,0.0,0.0,0.0,0.0,0.0,0.0,0.0,0.0,0.0,0.0,0.0,0.0,0.0,0.0,0.0,0.0,0.0,-4.3589,-4.7712,-5.0587,-5.0596,-5.1266,-5.1067,-4.9529,-4.8567,-4.7514,-4.6263,0.0,0.0,0.0,0.0,0.0,0.0,0.0,0.0,0.0,0.0,0.0,0.0,0.0,0.0,0.0,0.0,0.0,0.0,0.0,0.0,0.0,0.0,0.0,0.0,0.0,0.0,0.0,0.0,0.0,0.0,0.0,0.0,0.0,0.0,0.0,0.0,0.0,0.0,0.0,0.0,0.0,0.0,0.0,0.0,0.0,0.0,0.0,0.0,0.0,0.0,0.0,0.0,0.0,0.0,0.0,0.0,0.0,0.0,0.0,0.0,0.0,0.0,0.0,0.0,0.0,0.0,0.0,0.0,0.0,0.0,0.0,0.0,0.0,0.0,0.0,0.0,0.0,0.0,0.0,0.0,0.0,0.0,0.0,0.0,0.0,0.0,0.0,0.0,0.0,0.0,0.0,0.0,0.0,0.0,0.0,0.0,0.0,0.0,0.0,0.0,0.0,0.0,-4.4399,-4.8537,-5.1305,-5.1034,-5.1856,-5.1654,-4.9792,-4.9142,-4.8382,-4.7287,0.0,0.0,0.0,0.0,0.0,0.0,0.0,0.0,0.0,0.0,0.0,0.0,0.0,0.0,0.0,0.0,0.0,0.0,0.0,0.0,0.0,0.0,0.0,0.0,0.0,0.0,0.0,0.0,0.0,0.0,0.0,0.0,0.0,0.0,0.0,0.0,0.0,0.0,0.0,0.0,0.0,0.0,0.0,0.0,0.0,0.0,0.0,0.0,0.0,0.0,0.0,0.0,0.0,0.0,0.0,0.0,0.0,0.0,0.0,0.0,0.0,0.0,0.0,0.0,0.0,0.0,0.0,0.0,0.0,0.0,0.0,0.0,0.0,0.0,0.0,0.0,0.0,0.0,0.0,0.0,0.0,0.0,0.0,0.0,0.0,0.0,0.0,0.0,0.0,0.0,0.0,0.0,0.0,0.0,0.0,0.0,0.0,0.0,0.0,0.0,0.0,0.0,-4.543,-4.9786,-5.2533,-5.1847,-5.251,-5.2075,-4.9803,-4.9513,-4.8908,-4.7523,0.0,0.0,0.0,0.0,0.0,0.0,0.0,0.0,0.0,0.0,0.0,0.0,0.0,0.0,0.0,0.0,0.0,0.0,0.0,0.0,0.0,0.0,0.0,0.0,0.0,0.0,0.0,0.0,0.0,0.0,0.0,0.0,0.0,0.0,0.0,0.0,0.0,0.0,0.0,0.0,0.0,0.0,0.0,0.0,0.0,0.0,0.0,0.0,0.0,0.0,0.0,0.0,0.0,0.0,0.0,0.0,0.0,0.0,0.0,0.0,-4.1753,-3.8906,0.0,0.0,0.0,0.0,0.0,0.0,0.0,0.0,0.0,0.0,0.0,0.0,0.0,0.0,0.0,0.0,0.0,0.0,0.0,0.0,0.0,0.0,0.0,0.0,0.0,0.0,0.0,0.0,0.0,0.0,0.0,0.0,0.0,0.0,0.0,0.0,0.0,0.0,0.0,0.0,-4.7253,-5.0512,-5.2511,-5.1744,-5.2368,-5.2131,-5.0422,-4.9702,-4.9499,-4.992,-4.8756,0.0,0.0,0.0,0.0,0.0,0.0,0.0,0.0,0.0,0.0,0.0,0.0,0.0,0.0,0.0,0.0,0.0,0.0,0.0,0.0,0.0,0.0,0.0,0.0,0.0,0.0,0.0,0.0,0.0,0.0,0.0,0.0,0.0,0.0,0.0,0.0,0.0,0.0,0.0,0.0,0.0,0.0,0.0,0.0,0.0,0.0,0.0,0.0,0.0,0.0,0.0,0.0,0.0,0.0,0.0,0.0,0.0,0.0,0.0,-4.5166,-4.2393,0.0,0.0,0.0,0.0,0.0,0.0,0.0,0.0,0.0,0.0,0.0,0.0,0.0,0.0,0.0,0.0,0.0,0.0,0.0,0.0,0.0,0.0,0.0,0.0,0.0,0.0,0.0,0.0,0.0,0.0,0.0,0.0,0.0,0.0,0.0,0.0,0.0,0.0,0.0,0.0,-4.8487,-5.1353,-5.2957,-5.1735,-5.2308,-5.2153,-5.0522,-5.0035,-4.9841,-5.0,-4.968,0.0,0.0,0.0,0.0,0.0,0.0,0.0,0.0,0.0,0.0,0.0,0.0,0.0,0.0,0.0,0.0,0.0,0.0,0.0,0.0,0.0,0.0,0.0,0.0,0.0,0.0,0.0,0.0,0.0,0.0,0.0,0.0,0.0,0.0,0.0,0.0,0.0,0.0,0.0,0.0,0.0,0.0,0.0,0.0,0.0,0.0,0.0,0.0,0.0,0.0,0.0,0.0,0.0,-5.0276,-5.0532,-5.0462,-4.9669,-4.9701,-5.0203,-4.8122,-4.5893,-4.3673,-4.3825,0.0,0.0,0.0,0.0,0.0,0.0,0.0,0.0,0.0,0.0,0.0,0.0,0.0,0.0,0.0,0.0,0.0,0.0,0.0,0.0,0.0,0.0,0.0,0.0,-4.7139,-4.7914,-4.5125,0.0,0.0,0.0,0.0,0.0,0.0,0.0,0.0,0.0,0.0,0.0,-4.9862,-5.227,-5.3492,-5.1964,-5.2384,-5.2117,-5.0436,-5.0283,-5.0073,-4.9524,-5.0231,-4.9624,0.0,0.0,0.0,0.0,0.0,0.0,0.0,0.0,0.0,0.0,0.0,0.0,0.0,0.0,0.0,0.0,0.0,0.0,0.0,0.0,0.0,0.0,0.0,0.0,0.0,0.0,0.0,0.0,0.0,0.0,0.0,0.0,-3.7893,-3.8705,0.0,0.0,0.0,0.0,0.0,0.0,0.0,0.0,0.0,0.0,0.0,0.0,0.0,-4.7855,-4.8702,-4.969,-5.0274,-5.044,-5.044,-5.0457,-5.05,-5.032,-5.032,-5.044,-4.9996,0.0,-4.7177,-4.7952,0.0,0.0,0.0,0.0,0.0,0.0,0.0,0.0,0.0,0.0,0.0,0.0,0.0,0.0,0.0,0.0,0.0,0.0,0.0,0.0,0.0,0.0,-5.0932,-5.1505,-5.1888,-5.2002,0.0,-4.8028,-4.4944,-4.4829,-4.4906,0.0,0.0,0.0,0.0,0.0,0.0,0.0,-5.2422,-5.3339,-5.3722,-5.2766,-5.2728,-5.2117,-5.0436,-5.0283,-5.0256,-5.0165,-5.0406,-4.973,-4.7962,-4.8346,0.0,0.0,0.0,0.0,0.0,0.0,0.0,0.0,0.0,0.0,0.0,0.0,0.0,0.0,0.0,0.0,0.0,0.0,0.0,0.0,0.0,0.0,0.0,0.0,0.0,0.0,0.0,0.0,0.0,-3.7713,-3.8695,-4.1912,-4.1506,-4.148,0.0,0.0,0.0,0.0,0.0,0.0,0.0,0.0,0.0,-4.9654,-4.9625,-4.9971,-5.0818,-5.1114,-5.1565,-5.2085,-5.2461,-5.267,-5.2702,-5.2564,-5.2261,-5.1836,-5.1744,-5.1047,-4.9927,-4.9824,-4.9137,-4.8028,0.0,0.0,0.0,0.0,-4.4895,-4.501,-4.6003,-4.6347,-4.6462,-4.7302,0.0,0.0,0.0,0.0,0.0,0.0,0.0,0.0,0.0,0.0,-5.1811,-5.2614,-5.2805,-5.2805,-5.2805,-5.1047,-4.9251,0.0,-4.8525,-4.8945,-4.9328,0.0,0.0,0.0,0.0,-5.4524,-5.3645,-5.4295,-5.4486,-5.3607,-5.3531,-5.2843,-5.1162,-5.1047,-5.0818,-5.0321,-5.0873,-5.0881,-5.0179,-4.9388,-4.8323,0.0,0.0,0.0,0.0,0.0,0.0,0.0,0.0,0.0,0.0,0.0,0.0,0.0,0.0,0.0,0.0,0.0,0.0,0.0,0.0,0.0,0.0,0.0,0.0,0.0,0.0,0.0,0.0,-3.9699,-4.0931,-4.5596,-4.5383,-4.5454,0.0,0.0,0.0,0.0,0.0,0.0,-4.9048,-4.9471,-5.0587,-5.25,-5.1779,-5.1818,-5.2846,-5.2874,-5.3067,-5.3528,-5.4068,-5.4227,-5.4007,-5.3893,-5.3501,-5.29,-5.2841,-5.2473,-5.1861,-5.0971,-5.0512,-5.0245,-4.9633,-4.9633,-4.9824,-4.8334,-4.7646,-4.7723,-4.9442,-5.0065,-5.0142,-5.0741,-5.0932,-5.0665,-4.9202,0.0,0.0,0.0,0.0,-4.9977,-5.1009,-5.1773,-5.2461,-5.3263,-5.3454,-5.3454,-5.3454,-5.3454,-5.2957,0.0,-5.1467,-5.1926,-5.1926,0.0,0.0,-5.4027,-5.5021,-5.5403,-5.4524,-5.5021,-5.5059,-5.418,-5.4104,-5.3492,-5.204,-5.1926,-5.1544,-5.0703,-5.1327,-5.1634,-5.1442,-5.051,-4.986,-4.9567,0.0,0.0,0.0,0.0,0.0,0.0,0.0,0.0,0.0,0.0,0.0,0.0,0.0,0.0,0.0,0.0,0.0,0.0,0.0,0.0,0.0,0.0,0.0,0.0,0.0,0.0,0.0,0.0,0.0,-4.998,-4.9615,0.0,0.0,0.0,0.0,-5.152,-5.0943,-5.0856,-5.1654,-5.101,-5.1779,-5.428,-5.3549,-5.3857,-5.5472,-5.5457,-5.505,-5.4331,-5.4235,-5.3805,-5.2962,-5.2891,-5.2879,-5.2889,-5.2829,-5.2803,-5.2774,-5.1911,-5.1047,-5.0283,-5.0245,-4.9786,-4.9328,-5.0818,-5.0818,-5.0359,-5.204,-5.2614,-5.2614,-5.2652,-5.2652,-5.2499,-5.1658,-5.1417,0.0,0.0,-5.1429,-5.1849,-5.3492,-5.3951,-5.418,-5.5059,-5.5288,-5.5288,-5.5288,-5.5288,-5.4753,0.0,-5.269,-5.2728,-5.2728,0.0,-5.5021,-5.4218,-5.5479,-5.6243,-5.5441,-5.5365,-5.5059,-5.418,-5.4104,-5.3722,-5.2805,-5.2728,-5.2384,-5.1582,-5.1582,-5.125,-5.0409,-5.1201,-5.0929,-4.9258,-4.9426,0.0,0.0,0.0,0.0,0.0,0.0,0.0,0.0,0.0,0.0,0.0,0.0,0.0,0.0,0.0,0.0,0.0,0.0,0.0,0.0,0.0,0.0,0.0,0.0,0.0,0.0,0.0,0.0,-5.1271,-5.1241,0.0,-5.2702,-5.1548,-5.101,-5.1846,-5.2664,-5.328,-5.3549,-5.4857,-5.5742,-5.6099,-5.5241,-5.5088,-5.5703,-5.5143,-5.4748,-5.4489,-5.4946,-5.5001,-5.4693,-5.4626,-5.4614,-5.4588,-5.4031,-5.3766,-5.3666,-5.28,-5.2573,-5.2805,-5.3378,-5.3416,-5.3225,-5.3836,-5.3836,-5.3683,-5.4256,-5.4486,-5.4295,-5.3148,-5.2461,-5.1888,-5.1009,-5.1162,-5.1735,-5.2231,-5.2766,-5.3492,-5.4639,-5.4944,-5.5021,-5.5326,-5.5403,-5.5556,-5.6052,-5.6167,-5.5976,-5.5365,-5.483,-5.4486,-5.4486,-5.4982,-5.5479,-5.567,-5.5785,-5.5708,-5.5441,-5.5403,-5.5288,-5.4982,-5.4944,-5.46,-5.3722,-5.3645,-5.3263,-5.2422,-5.2919,-5.2805,-5.1926,-5.2265,-5.2192,-5.1666,-5.1355,-5.1067,0.0,0.0,0.0,0.0,0.0,0.0,0.0,0.0,0.0,0.0,0.0,0.0,0.0,0.0,0.0,0.0,0.0,0.0,0.0,0.0,0.0,0.0,0.0,0.0,0.0,-4.7688,-4.9327,-5.215,-5.2117,-5.2231,-5.3087,-5.2433,-5.2318,-5.3126,-5.4511,-5.5318,-5.5318,-5.7203,-5.8165,-5.7857,-5.728,-5.7126,-5.7434,-5.6896,-5.6626,-5.6626,-5.7143,-5.722,-5.6939,-5.686,-5.6671,-5.6391,-5.5794,-5.5477,-5.539,-5.4828,-5.4918,-5.5326,-5.4753,-5.4524,-5.4562,-5.4868,-5.4982,-5.5021,-5.5288,-5.5403,-5.5212,-5.4065,-5.3339,-5.2754,-5.2193,-5.2422,-5.2996,-5.3531,-5.4104,-5.4677,-5.525,-5.5594,-5.5785,-5.5785,-5.6014,-5.632,-5.6549,-5.6587,-5.6511,-5.6243,-5.6205,-5.6052,-5.5517,-5.5632,-5.5976,-5.6511,-5.5938,-5.5517,-5.5785,-5.5556,-5.5403,-5.5403,-5.5403,-5.5174,-5.46,-5.5059,-5.4753,-5.3339,-5.4295,-5.4295,-5.2843,-5.3913,-5.4433,-5.4208,-5.4167,-5.3614,-5.2616,0.0,0.0,0.0,0.0,0.0,0.0,0.0,0.0,0.0,0.0,0.0,0.0,0.0,0.0,0.0,0.0,0.0,0.0,0.0,0.0,0.0,0.0,0.0,-4.8647,-4.8423,-4.9633,-5.2877,-5.2462,-5.2923,-5.5434,-5.4934,-5.478,-5.5626,-5.6522,-5.706,-5.7099,-5.7934,-5.8819,-5.955,-5.9588,-5.9973,-6.0819,-6.0819,-6.0819,-6.0781,-6.076,-6.0313,-5.9456,-5.9294,-5.8808,-5.803,-5.7965,-5.7938,-5.7886,-5.7886,-5.7886,-5.7581,-5.4218,-5.2919,-5.3034,-5.3836,-5.4142,-5.4256,-5.5097,-5.5403,-5.5403,-5.5365,-5.5365,-5.5365,-5.5326,-5.5326,-5.5365,-5.5365,-5.5403,-5.5403,-5.5403,-5.5976,-5.6549,-5.6549,-5.7199,-5.7581,-5.6778,-5.6587,-5.6358,-5.5594,-5.6778,-5.739,-5.5708,-5.6052,-5.6587,-5.6562,-5.5899,0.0,-5.6473,-5.5861,-5.5403,-5.5441,-5.5441,-5.5441,-5.5441,-5.6931,-5.6816,-5.4295,-5.567,-5.5441,-5.2919,-5.6014,-5.7351,-5.6524,-5.7643,-5.6686,-5.3584,0.0,0.0,0.0,0.0,0.0,0.0,0.0,0.0,0.0,0.0,0.0,0.0,0.0,0.0,0.0,0.0,0.0,0.0,0.0,0.0,0.0,-4.906,-5.1024,-5.1045,-5.1536,-5.2406,-5.3982,-5.3356,-5.3356,-5.4703,-5.4049,-5.4164,-5.5588,-5.7088,-5.8204,-5.8781,-6.0781,-6.1743,-6.1408,-6.1408,-6.1512,-6.1755,-6.1755,-6.1435,-6.0819,-6.1423,-6.1233,-6.0327,-6.0303,-5.9792,-5.8936,-5.8924,-5.8579,-5.7966,-5.7966,-5.7939,-5.7734,-5.6167,-5.5556,-5.5517,-5.5174,-5.5059,-5.5097,-5.5326,-5.5403,-5.5288,-5.4677,-5.4448,-5.4333,-5.3722,-5.3951,-5.4448,-5.4448,-5.4906,-5.5403,-5.5403,-5.5556,-5.5747,-5.5747,-5.5899,-5.6167,-5.6511,-5.6587,-5.6511,-5.632,-5.7619,-5.8039,-5.5785,-5.6052,-5.6396,-5.5823,-5.5556,0.0,-5.5708,-5.5556,-5.5632,-5.6205,-5.6282,-5.6282,-5.6282,-5.6702,-5.6396,-5.5135,-5.5479,-5.5135,-5.3798,-5.4639,-5.4778,-5.4089,-5.5572,-5.5979,0.0,0.0,0.0,0.0,0.0,0.0,0.0,0.0,0.0,0.0,0.0,0.0,0.0,0.0,0.0,0.0,0.0,0.0,0.0,0.0,0.0,0.0,-5.1223,-5.2989,-5.2622,-5.2608,-5.3126,-5.4357,-5.3741,-5.3664,-5.4895,-5.4549,-5.5088,-5.7126,-5.8588,-5.9704,-6.055,-6.2666,-6.3628,-6.3166,-6.3524,-6.3678,-6.3678,-6.3678,-6.3447,-6.2935,-6.3435,-6.3231,-6.2336,-6.2311,-6.1812,-6.093,-6.0865,-6.0366,-5.9599,-5.9534,-5.9303,0.0,0.0,0.0,0.0,0.0,-5.6434,-5.6434,-5.6434,-5.6434,-5.6358,-5.5861,-5.5708,-5.5594,-5.5097,-5.5288,-5.5708,-5.5708,-5.6052,-5.6434,-5.6434,-5.6702,-5.6956,-5.6956,-5.7237,-5.7504,-5.7619,-5.7657,-5.7542,-5.7199,-5.8192,0.0,-5.674,-5.7122,-5.7504,-5.7008,-5.6664,-5.6587,-5.6931,-5.6664,-5.6473,-5.6587,-5.6587,-5.6473,-5.6129,-5.7046,0.0,0.0,0.0,-5.674,-5.6205,-5.59,0.0,0.0,0.0,0.0,0.0,0.0,0.0,0.0,-5.3993,-5.3441,0.0,0.0,0.0,0.0,0.0,0.0,0.0,0.0,0.0,0.0,0.0,0.0,0.0,0.0,0.0,0.0,-5.3838,-5.5264,-5.3716,-5.2771,-5.2761,-5.4318,-5.3895,-5.4087,-5.5703,-5.5934,-5.7011,-5.9473,-6.0435,-6.1358,-6.2332,-6.3897,0.0,0.0,0.0,-6.5897,-6.5897,-6.5897,-6.5897,-6.5897,-6.5897,-6.5474,-6.4731,-6.468,-6.4103,-6.3169,-6.3075,-6.2484,-6.1642,-6.152,-6.1072,-6.0231,-5.8651,-5.7963,-5.7886,-5.7886,-5.7886,-5.7886,-5.7886,0.0,0.0,-5.7886,-5.7886,-5.7886,-5.7886,-5.7886,-5.7886,-5.7886,-5.7886,-5.7886,-5.7886,-5.8421,-5.8942,-5.8942,-5.9568,-5.9911,-5.9147,-5.8942,-5.8765,-5.8039,-5.8536,-5.888,-5.8154,-5.8651,-5.9057,-5.8994,-5.8345,-5.8154,-5.888,-5.8345,-5.7619,-5.6931,0.0,0.0,-5.5899,-5.7835,-5.8064,-5.5708,-5.7542,-5.8675,-5.8675,-5.8093,-5.8115,-5.8793,-5.816,-5.7168,-5.5805,-5.593,-5.6118,-5.6375,-5.6141,-5.5186,0.0,0.0,0.0,0.0,0.0,0.0,0.0,0.0,0.0,0.0,0.0,0.0,0.0,0.0,0.0,-5.3001,-5.365,-5.4375,-5.5251,-5.4684,-5.4244,-5.4454,-5.4934,-5.5626,-5.6637,-5.7396,-5.855,-6.0396,-6.1358,-6.2512,-6.4051,-6.5089,-6.5628,-6.5628,-6.582,-6.5897,-6.5897,-6.5897,-6.5897,-6.5897,-6.5897,0.0,-6.5576,-6.5538,-6.4653,-6.3129,-6.3102,-6.2245,-6.0827,-6.0761,-6.0578,-6.0307,-5.9262,-5.8459,-5.7886,-5.7886,-5.7886,-5.7886,-5.7886,-5.7886,-5.7886,-5.7886,-5.7886,-5.7886,-5.7886,-5.7886,0.0,-5.7886,-5.7886,-5.7886,-5.7886,-5.8001,-5.8116,-5.8116,-5.8268,-5.8345,-5.8154,-5.8116,-5.8077,-5.7925,-5.8536,-5.9057,-5.888,-5.8994,-5.888,-5.823,-5.8001,-5.7963,-5.8116,-5.8001,-5.8077,-5.8574,-5.8612,-5.8536,-5.8408,-5.8828,-5.8307,-5.6473,-5.6205,-5.6129,-5.6129,-5.5976,-5.5683,-5.516,-5.5082,-5.4923,-5.4629,-5.5442,-5.6212,-5.6914,-5.6466,-5.6057,0.0,0.0,0.0,0.0,0.0,0.0,0.0,0.0,0.0,0.0,0.0,-5.0633,-5.239,0.0,-5.3251,-5.3628,-5.4352,-5.5119,-5.5797,-5.5935,-5.5938,-5.5876,-5.6162,-5.6868,-5.8127,-5.905,-6.0242,-6.1935,-6.2858,-6.3897,-6.5166,-6.6051,-6.6513,-6.6513,-6.6936,-6.7167,-6.7167,-6.7167,-6.7167,-6.7167,-6.7167,-6.7141,-6.7076,-6.6653,-6.5948,-6.5064,-6.464,-6.3744,-6.2478,-6.1529,-6.1089,-6.0905,-6.0064,-5.9491,-5.9147,-5.9147,-5.9147,-5.9147,-5.9147,-5.9147,-5.9147,-5.9147,-5.9147,-5.9147,-5.9147,-5.9147,-5.9147,-5.9147,-5.9147,-5.9147,-5.9147,-5.9147,-5.9147,-5.9147,-5.9147,-5.9147,-5.9147,-5.9147,-5.9147,-5.9147,-5.9491,-5.9759,-5.9759,-5.9759,-5.9606,-5.9224,-5.9147,-5.9147,-5.9147,-5.9147,-5.9147,-5.9095,-5.9095,-5.8956,-5.8536,-5.8498,-5.8307,-5.7886,-5.7084,-5.6664,-5.6664,-5.6728,-5.6548,-5.6127,-5.6286,-5.6375,-5.6454,-5.6964,-5.7461,-5.7954,-5.7681,-5.7275,0.0,0.0,0.0,0.0,0.0,0.0,0.0,-4.9306,-4.9501,-5.278,-5.2741,-5.2624,-5.4225,-5.4255,-5.4087,-5.4247,-5.5346,-5.6175,-5.6211,-5.6969,-5.7564,-5.7719,-5.7756,-5.8292,-5.9627,-6.0666,-6.1935,-6.3435,-6.4359,-6.5243,-6.609,-6.6898,-6.7359,-6.7359,-6.8052,-6.8385,-6.8385,-6.8385,-6.8385,-6.8385,-6.8385,-6.8385,-6.8398,-6.7667,-6.7167,-6.6821,-6.5756,-6.491,-6.4116,-6.2653,-6.1969,-6.1784,-6.1134,-6.0867,-6.0828,-6.0523,-6.0422,-6.0422,-6.0422,-6.0422,-6.0422,-6.0422,-6.0422,-6.0422,-6.0422,-6.0422,-6.0422,-6.0422,-6.0422,-6.0422,-6.0422,-6.0422,-6.0422,-6.0422,-6.0422,-6.0422,-6.0422,-6.0422,-6.0422,-6.0422,-6.0422,-6.0422,-6.0422,-6.0422,-6.0422,-6.0422,-6.0422,-6.0422,-6.0422,-6.0422,-6.0141,-5.9415,-5.9338,-5.9109,-5.8421,-5.823,-5.8421,-5.9057,-5.8345,-5.7886,-5.7886,-5.8004,-5.8052,-5.8052,-5.8237,-5.8471,-5.8779,-5.8776,-5.8931,-5.9211,-5.9241,-5.8629,-4.5246,-4.4699,-4.5595,-4.8757,-4.8876,-4.9345,0.0,-5.3329,-5.2897,-5.5591,-5.5474,-5.5162,-5.6138,-5.5588,-5.5186,-5.5883,-5.6225,-5.6606,-5.7293,-5.8052,-5.8828,-5.9597,-6.0075,-6.0435,-6.0627,-6.2089,-6.3435,-6.4397,-6.5243,-6.609,-6.6898,-6.7782,-6.8244,-6.8244,-6.8359,-6.8385,-6.8385,-6.8385,-6.8385,-6.8385,-6.8385,-6.8385,-6.8385,-6.8321,-6.7436,-6.5936,-6.4219,-6.3412,-6.323,-6.2971,-6.2811,-6.2739,-6.2662,-6.2624,-6.2433,-6.0943,-6.0422,-6.0422,-6.0422,-6.0422,-6.0422,-6.0422,-6.0422,-6.0422,-6.0422,-6.0422,-6.0422,-6.0422,-6.0422,-6.0422,-6.0422,-6.0422,-6.0422,-6.0422,-6.0422,-6.0422,-6.0422,-6.0422,-6.0422,-6.0422,-6.0422,-6.0422,-6.0422,-6.0422,-6.0422,-6.0422,-6.0422,-6.0422,-6.0422,-6.0422,-6.0384,-6.0255,-6.0255,-6.0217,-6.0141,-5.9415,-5.8981,-5.9095,-5.8345,-5.7886,-5.7886,-5.7913,-5.7926,-5.7926,-5.804,-5.8531,-5.9323,-5.944,-5.9871,-6.0673,-6.0768,-6.0065,-4.8876,-4.9072,-4.993,-5.1882,-5.1726,-5.1804,-5.4656,-5.4342,-5.4068,-5.6177,-5.6294,-5.6177,-5.6528,-5.617,-5.5939,-5.641,-5.6812,-5.7403,-5.8256,-5.8976,-5.9745,-6.0506,-6.1559,-6.2089,-6.1589,-6.3512,-6.4974,-6.532,-6.659,-6.7513,-6.7859,-6.8667,-6.9167,-6.9167,-6.9629,-6.986,-6.986,-6.986,-6.986,-6.986,-6.986,-6.986,-6.986,-6.936,-6.8205,-6.6551,-6.5756,-6.5101,-6.452,-6.3991,-6.3729,-6.3618,-6.3121,-6.2892,-6.2739,-6.1554,-6.1096,-6.1019,-6.0561,-6.0422,-6.0422,-6.0422,-6.0422,-6.0422,-6.0422,-6.0422,-6.0422,-6.0422,-6.0422,-6.0422,-6.0422,-6.0422,-6.0422,-6.0422,-6.0422,-6.0422,-6.0422,-6.0422,-6.0422,-6.0422,-6.079,-6.1096,-6.1096,-6.1516,-6.186,-6.186,-6.1019,-6.0422,-6.0422,-6.0422,-6.0422,-6.0422,-6.0422,-6.0422,-6.0422,-6.0064,-5.9873,-5.9873,-5.9529,-5.9338,-5.9338,-5.9338,-5.9338,-5.9338,-5.9473,-5.9725,-6.0109,-6.0256,-6.0586,-6.1031,-6.1057,-6.084,-5.1609,-5.2234,-5.2977,-5.4068,-5.3873,-5.3797,-5.5318,-5.5162,-5.5123,-5.6606,-5.6918,-5.6996,-5.727,-5.7157,-5.7102,-5.7263,-5.7899,-5.8605,-5.9225,-5.9888,-6.0592,-6.1324,-6.2734,-6.3512,-6.3178,-6.5013,-6.632,-6.6551,-6.7936,-6.8783,-6.8783,-6.959,-7.0014,-7.0014,-7.0591,-7.0898,-7.0898,-7.0898,-7.0898,-7.0898,-7.0898,-7.0898,-7.086,-7.0025,-6.8948,-6.7718,-6.7201,-6.6542,-6.5872,-6.4958,-6.4594,-6.4458,-6.3847,-6.3579,-6.3503,-6.2624,-6.2166,-6.1898,-6.1287,-6.1096,-6.1096,-6.1096,-6.1096,-6.1019,-6.079,-6.0714,-6.0676,-6.0446,-6.0422,-6.0422,-6.0422,-6.0422,-6.0422,-6.0422,-6.0575,-6.0714,-6.0714,-6.0905,-6.1096,-6.1096,-6.1554,-6.1975,-6.1975,-6.2471,-6.2892,-6.2892,-6.186,-6.1096,-6.1096,-6.1096,-6.1096,-6.1096,-6.1096,-6.1096,-6.1096,-6.1096,-6.1096,-6.1096,-6.1096,-6.1096,-6.1096,-6.0867,-6.0714,-6.0714,-6.0609,-6.0533,-6.0533,-6.0899,-6.1153,-6.1242,-6.1602,-6.181,-5.2665,-5.2665,-5.3095,-5.4812,-5.5242,-5.5474,-5.6372,-5.6528,-5.6762,-5.7582,-5.7777,-5.8011,-5.887,-5.9024,-5.9024,-5.9024,-5.9766,-6.0312,-6.0351,-6.0804,-6.1497,-6.233,-6.3706,-6.4897,-6.5705,-6.6551,-6.7398,-6.8282,-6.9167,-6.9667,-6.9667,-7.0437,-7.086,-7.086,-7.0898,-7.0898,-7.0898,-7.0898,-7.0898,-7.0898,-7.0898,-7.0898,-7.086,-6.9931,-6.9481,-6.9313,-6.7558,-6.6795,-6.6681,-6.5749,-6.5375,-6.5375,-6.5337,-6.5337,-6.5222,-6.442,-6.3579,-6.2853,-6.2853,-6.2815,-6.2815,-6.2815,-6.2815,-6.2662,-6.1822,-6.1554,-6.1402,-6.0613,-6.0422,-6.0422,-6.0422,-6.0422,-6.0422,-6.0422,-6.0981,-6.1554,-6.1554,-6.2242,-6.2815,-6.2815,-6.2853,-6.2853,-6.2853,-6.2892,-6.2892,-6.2892,-6.2853,-6.2815,-6.2815,-6.2815,-6.2815,-6.2815,-6.2815,-6.2815,-6.2815,-6.2815,-6.2815,-6.2815,-6.2815,-6.2815,-6.2815,-6.2013,-6.1554,-6.1554,-6.0804,-6.0422,-6.0422,-6.1186,-6.1583,-6.1597,-6.2779,-6.3334,-5.3717,-5.442,-5.5435,-5.602,-5.6177,-5.6255,-5.6528,-5.6606,-5.6684,-5.6957,-5.6996,-5.727,-5.8089,-5.8246,-5.8441,-5.9024,-5.9846,-6.0588,-6.1174,-6.1734,-6.2616,-6.4054,-6.4451,-6.5397,-6.7359,-6.8321,-6.8936,-6.9244,-7.0014,-7.0514,-7.0514,-7.0744,-7.0898,-7.0898,-7.0898,-7.0898,-7.0898,-7.0898,-7.0898,-7.0898,-7.0898,-7.0898,-7.086,-7.0025,-6.9292,-6.8636,-6.7424,-6.6495,-6.5915,-6.5558,-6.5413,-6.5413,-6.5413,-6.5413,-6.5375,-6.5108,-6.4802,-6.442,-6.3312,-6.2892,-6.2892,-6.2892,-6.2892,-6.2853,-6.2548,-6.2471,-6.2395,-6.2128,-6.2051,-6.2051,-6.2051,-6.2051,-6.2051,-6.2051,-6.228,-6.2471,-6.2471,-6.2701,-6.2892,-6.2892,-6.3388,-6.377,-6.377,-6.4191,-6.4573,-6.4573,-6.3618,-6.2892,-6.2892,-6.2892,-6.2892,-6.2892,-6.2892,-6.2892,-6.2892,-6.2892,-6.2892,-6.2892,-6.2892,-6.2892,-6.2892,-6.2624,-6.2471,-6.2471,-6.2204,-6.2051,-6.2051,-6.2319,-6.2543,-6.2655,-6.3161,-6.3454,-5.5005,-5.5747,-5.6606,-5.6606,-5.6606,-5.6606,-5.6606,-5.6606,-5.6684,-5.6957,-5.6801,-5.6957,-5.805,-5.8246,-5.8558,-5.9417,-6.0315,-6.1174,-6.2032,-6.2357,-6.3153,-6.4908,-6.508,-6.5936,-6.8205,-6.9206,-6.9821,-7.0129,-7.0591,-7.0898,-7.0898,-7.0898,-7.0898,-7.0898,-7.0898,-7.0898,-7.0898,-7.0898,-7.0898,-7.0898,-7.0898,-7.0731,-7.0434,-6.983,-6.9097,-6.8182,-6.7252,-6.6489,-6.5909,-6.5558,-6.5413,-6.5413,-6.5413,-6.5413,-6.5413,-6.5413,-6.5413,-6.5261,-6.4191,-6.3809,-6.3809,-6.3809,-6.3809,-6.3732,-6.3465,-6.335,-6.3312,-6.3006,-6.2892,-6.2892,-6.2892,-6.2892,-6.2892,-6.2892,-6.3159,-6.335,-6.335,-6.3579,-6.3809,-6.3809,-6.4267,-6.4611,-6.4611,-6.507,-6.5413,-6.5413,-6.4496,-6.3809,-6.3809,-6.3809,-6.3809,-6.3809,-6.3809,-6.3809,-6.3809,-6.3809,-6.3809,-6.3809,-6.3809,-6.3809,-6.3809,-6.3503,-6.335,-6.335,-6.3045,-6.2892,-6.2892,-6.3197,-6.3423,-6.3562,-6.4012,-6.4315,-5.6372,-5.6606,-5.6606,-5.6606,-5.6606,-5.6606,-5.6645,-5.6645,-5.6879,-5.7621,-5.7192,-5.7153,-5.8753,-5.9063,-5.9378,-6.0276,-6.1174,-6.2071,-6.293,-6.2824,-6.3269,-6.5025,-6.5659,-6.6628,-6.8321,-6.9206,-7.0014,-7.0821,-7.0898,-7.0898,-7.0898,-7.0898,-7.0898,-7.0898,-7.0898,-7.0898,-7.0898,-7.0898,-7.0898,-7.0898,-7.0898,-7.0473,-6.9673,-6.9486,-6.8953,-6.8112,-6.7179,-6.6751,-6.6636,-6.5796,-6.5452,-6.5413,-6.5413,-6.5413,-6.5413,-6.5413,-6.5413,-6.5413,-6.5413,-6.5413,-6.5413,-6.5413,-6.5413,-6.5261,-6.4511,-6.4282,-6.4076,-6.3274,-6.3045,-6.3045,-6.3045,-6.3045,-6.3045,-6.3045,-6.3656,-6.4282,-6.4282,-6.484,-6.5413,-6.5413,-6.5413,-6.5413,-6.5413,-6.5413,-6.5413,-6.5413,-6.5413,-6.5413,-6.5413,-6.5413,-6.5413,-6.5413,-6.5413,-6.5413,-6.5413,-6.5413,-6.5413,-6.5413,-6.5413,-6.5413,-6.5413,-6.4649,-6.4282,-6.4282,-6.3465,-6.3045,-6.3045,-6.3847,-6.4282,-6.4282,-6.5238,-6.5795,-5.6528,-5.6606,-5.6606,-5.6606,-5.6606,-5.6762,-5.7348,-5.7504,-5.7543,-5.7777,-5.7621,-5.7621,-5.805,-5.8675,-5.9378,-6.0276,-6.1681,-6.2969,-6.3867,-6.4226,-6.5064,-6.6773,-6.6857,-6.7475,-6.9206,-6.959,-7.0014,-7.0821,-7.0898,-7.0898,-7.0898,-7.0898,-7.0898,-7.0898,-7.0898,-7.0898,-7.0898,-7.0898,-7.0898,-7.0898,-7.0898,-7.0769,-7.0525,-6.9788,-6.9333,-6.9029,-6.8097,-6.7294,-6.6674,-6.6445,-6.5987,-6.5413,-6.5413,-6.5413,-6.5413,-6.5413,-6.5413,-6.5413,-6.5413,-6.5413,-6.5413,-6.5413,-6.5413,-6.5375,-6.5146,-6.507,-6.5031,-6.484,-6.4764,-6.4764,-6.4764,-6.4764,-6.4764,-6.4764,-6.4917,-6.507,-6.507,-6.5261,-6.5413,-6.5413,-6.5413,-6.5413,-6.5413,-6.5413,-6.5413,-6.5413,-6.5413,-6.5413,-6.5413,-6.5413,-6.5413,-6.5413,-6.5413,-6.5413,-6.5413,-6.5413,-6.5413,-6.5413,-6.5413,-6.5413,-6.5413,-6.5184,-6.507,-6.507,-6.4879,-6.4764,-6.4764,-6.4993,-6.507,-6.5123,-6.5493,-6.5795,-5.7035,-5.6879,-5.6684,-5.7035,-5.7113,-5.7153,-5.7231,-5.7543,-5.7699,-5.7348,-5.6957,-5.6918,-5.766,-5.8207,-5.8948,-6.0198,-6.1876,-6.3282,-6.4182,-6.4777,-6.5569,-6.6889,-6.7089,-6.7628,-6.9013,-6.9475,-7.0014,-7.0821,-7.0898,-7.0898,-7.0898,-7.0898,-7.0898,-7.0898,-7.0898,-7.0898,-7.0898,-7.0898,-7.0898,-7.0898,-7.0898,-7.0692,-7.0305,-6.9735,-6.8997,-6.8233,-6.7646,-6.6934,-6.6139,-6.6139,-6.5834,-6.5413,-6.5413,-6.5413,-6.5413,-6.5413,-6.5413,-6.5413,-6.5413,-6.5413,-6.5413,-6.5413,-6.5413,-6.5413,-6.5413,-6.5413,-6.5413,-6.5413,-6.5413,-6.5413,-6.5413,-6.5413,-6.5413,-6.5413,-6.5413,-6.5413,-6.5413,-6.5413,-6.5413,-6.5413,-6.5413,-6.5413,-6.5413,-6.5413,-6.5413,-6.5413,-6.5413,-6.5413,-6.5413,-6.5413,-6.5413,-6.5413,-6.5413,-6.5413,-6.5413,-6.5413,-6.5413,-6.5413,-6.5413,-6.5413,-6.5413,-6.5413,-6.5413,-6.5413,-6.5413,-6.5413,-6.5413,-6.5413,-6.5413,-6.5413,-6.5509,-6.5705,-5.7582,-5.7192,-5.6801,-5.7582,-5.7816,-5.7621,-5.6918,-5.7387,-5.7699,-5.6801,-5.5981,-5.5864,-5.7231,-5.7465,-5.805,-5.9924,-6.1603,-6.3045,-6.4091,-6.4727,-6.5444,-6.6361,-6.6952,-6.7628,-6.8513,-6.936,-7.0167,-7.086,-7.0898,-7.0898,-7.0898,-7.0898,-7.0898,-7.0898,-7.0898,-7.0898,-7.0898,-7.0898,-7.0898,-7.0898,-7.0898,-7.0486,-6.9764,-6.9524,-6.8555,-6.7117,-6.6934,-6.6369,-6.5566,-6.5566,-6.549,-6.5413,-6.5413,-6.5413,-6.5413,-6.5413,-6.5413,-6.5413,-6.5413,-6.5413,-6.5413,-6.5413,-6.5413,-6.5413,-6.5413,-6.5413,-6.5413,-6.5413,-6.5413,-6.5413,-6.5413,-6.5413,-6.5413,-6.5413,-6.5413,-6.5413,-6.5413,-6.5413,-6.5413,-6.5413,-6.5413,-6.5413,-6.5413,-6.5413,-6.5413,-6.5413,-6.5413,-6.5413,-6.5413,-6.5413,-6.5413,-6.5413,-6.5413,-6.5413,-6.5413,-6.5413,-6.5413,-6.5413,-6.5413,-6.5413,-6.5413,-6.5413,-6.5413,-6.5413,-6.5413,-6.5413,-6.5413,-6.5413,-6.5413,-6.5413,-6.5413,-6.5635,-5.7582,-5.7192,-5.6801,-5.7582,-5.7816,-5.7777,-5.7621,-5.8246,-5.8441,-5.6918,-5.6489,-5.6255,-5.5825,-5.5747,-5.6528,-5.8948,-6.0198,-6.1585,-6.3744,-6.4668,-6.5638,-6.7029,-6.7776,-6.8513,-6.9398,-7.0206,-7.0744,-7.0898,-7.0898,-7.0898,-7.0898,-7.0898,-7.0898,-7.0898,-7.0898,-7.0898,-7.0898,-7.0898,-7.0898,-7.0898,-7.0898,-7.0821,-7.064,-6.9769,-6.9236,-6.8914,-6.8036,-6.7209,-6.6483,-6.6483,-6.6063,-6.5413,-6.5413,-6.5413,-6.5413,-6.5413,-6.5413,-6.5413,-6.5413,-6.5413,-6.5413,-6.5413,-6.5413,-6.5413,-6.5413,-6.5413,-6.5413,-6.5413,-6.5413,-6.5413,-6.5413,-6.5413,-6.5413,-6.5413,-6.5413,-6.5413,-6.5413,-6.5413,-6.5413,-6.5413,-6.5413,-6.5413,-6.5413,-6.5413,-6.5413,-6.5413,-6.5413,-6.5413,-6.5413,-6.5413,-6.5413,-6.5413,-6.5413,-6.5413,-6.5413,-6.5413,-6.5413,-6.5413,-6.5413,-6.5413,-6.5413,-6.5413,-6.5413,-6.5413,-6.5413,-6.5413,-6.5413,-6.5413,-6.5413,-6.5413,-6.5413,-6.5635,-5.8128,-5.7543,-5.6996,-5.8714,-5.8792,-5.8363,-5.7894,-5.8128,-5.7933,-5.6255,-5.5201,-5.4576,-5.4615,-5.4615,-5.5162,-5.684,-5.8987,-6.0968,-6.2574,-6.4148,-6.5693,-6.7316,-6.8015,-6.8744,-6.9629,-7.0437,-7.0898,-7.0898,-7.0898,-7.0898,-7.0898,-7.0898,-7.0898,-7.0898,-7.0898,-7.0898,-7.0898,-7.0898,-7.0898,-7.0898,-7.0898,-7.0667,-7.0244,-6.9711,-6.8935,-6.8047,-6.7561,-6.6835,-6.6025,-6.6025,-6.5796,-6.5413,-6.5413,-6.5413,-6.5413,-6.5413,-6.5413,-6.5413,-6.5413,-6.5413,-6.5413,-6.5413,-6.5413,-6.5413,-6.5413,-6.5413,-6.5413,-6.5413,-6.5413,-6.5413,-6.5413,-6.5413,-6.5413,-6.5413,-6.5413,-6.5413,-6.5413,-6.5413,-6.5413,-6.5413,-6.5413,-6.5413,-6.5413,-6.5413,-6.5413,-6.5413,-6.5413,-6.5413,-6.5413,-6.5413,-6.5413,-6.5413,-6.5413,-6.5413,-6.5413,-6.5413,-6.5413,-6.5413,-6.5413,-6.5413,-6.5413,-6.5413,-6.5413,-6.5413,-6.5413,-6.5413,-6.5413,-6.5413,-6.5413,-6.5413,-6.5413,-6.5635,-5.8402,-5.7855,-5.7387,-5.9573,-5.9768,-5.9065,-5.7816,-5.766,-5.7113,-5.4693,-5.3093,-5.2234,-5.2585,-5.2936,-5.3522,-5.4576,-5.7465,-5.9998,-6.1194,-6.3192,-6.5281,-6.7338,-6.805,-6.8821,-6.986,-7.0514,-7.0898,-7.0898,-7.0898,-7.0898,-7.0898,-7.0898,-7.0898,-7.0898,-7.0898,-7.0898,-7.0898,-7.0898,-7.0898,-7.0898,-7.0898,-7.0552,-6.9937,-6.9662,-6.8761,-6.7424,-6.6993,-6.6383,-6.5673,-6.5505,-6.5413,-6.5413,-6.5413,-6.5413,-6.5413,-6.5413,-6.5413,-6.5413,-6.5413,-6.5413,-6.5413,-6.5413,-6.5413,-6.5413,-6.5413,-6.5413,-6.5413,-6.5413,-6.5413,-6.5413,-6.5413,-6.5413,-6.5413,-6.5413,-6.5413,-6.5413,-6.5413,-6.5413,-6.5413,-6.5413,-6.5413,-6.5413,-6.5413,-6.5413,-6.5413,-6.5413,-6.5413,-6.5413,-6.5413,-6.5413,-6.5413,-6.5413,-6.5413,-6.5413,-6.5413,-6.5413,-6.5413,-6.5413,-6.5413,-6.5413,-6.5413,-6.5413,-6.5413,-6.5413,-6.5413,-6.5413,-6.5413,-6.5413,-6.5413,-6.5413,-6.5413,-6.5608,-5.7699,-5.7816,-5.7933,-5.8948,-5.9768,-5.9651,-5.727,-5.727,-5.6411,-5.1568,-5.0436,-4.9889,-4.8445,-4.9421,-5.0982,-5.2665,-5.5201,-5.7757,-6.0023,-6.1732,-6.3898,-6.7057,-6.8022,-6.9052,-7.0629,-7.086,-7.0898,-7.0898,-7.0898,-7.0898,-7.0898,-7.0898,-7.0898,-7.0898,-7.0898,-7.0898,-7.0898,-7.0898,-7.0898,-7.0898,-7.0898,-7.086,-7.0744,-6.997,-6.9481,-6.9159,-6.7505,-6.6757,0.0,-6.5749,-6.5413,-6.5413,-6.5413,-6.5413,-6.5413,-6.5413,-6.5413,-6.5413,-6.5413,-6.5413,-6.5413,-6.5413,-6.5413,-6.5413,-6.5413,-6.5413,-6.5413,-6.5413,-6.5413,-6.5413,-6.5413,-6.5413,-6.5413,-6.5413,-6.5413,-6.5413,-6.5413,-6.5413,-6.5413,-6.5413,-6.5413,-6.5413,-6.5413,-6.5413,-6.5413,-6.5413,-6.5413,-6.5413,-6.5413,-6.5413,-6.5413,-6.5413,-6.5413,-6.5413,-6.5413,-6.5413,-6.5413,-6.5413,-6.5413,-6.5413,-6.5413,-6.5413,-6.5413,-6.5413,-6.5413,-6.5413,-6.5413,-6.5413,-6.5413,-6.5413,-6.5413,-6.5509,-5.7582,-5.8168,-5.8792,-5.9651,-5.8987,-5.7855,-5.684,-5.481,-5.2429,-4.9852,-4.8094,-4.7001,-4.6846,-4.7781,-4.8992,-5.0165,-5.3444,-5.6677,-5.9186,-6.1325,-6.404,-6.7838,-6.8418,-6.9153,-7.0758,-7.0898,-7.0898,-7.0898,-7.0898,-7.0898,-7.0898,-7.0898,-7.0898,-7.0898,-7.0898,-7.0898,-7.0898,-7.0898,-7.0898,-7.0898,-7.0898,-7.0667,-7.0167,-6.9833,-6.933,-6.8712,-6.7467,-6.6883,0.0,-6.5847,-6.542,-6.5413,-6.5413,-6.5413,-6.5413,-6.5413,-6.5413,-6.5413,-6.5413,-6.5413,-6.5413,-6.5413,-6.5413,-6.5413,-6.5413,-6.5413,-6.5413,-6.5413,-6.5413,-6.5413,-6.5413,-6.5413,-6.5413,-6.5413,-6.5413,-6.5413,-6.5413,-6.5413,-6.5413,-6.5413,-6.5413,-6.5413,-6.5413,-6.5413,-6.5413,-6.5413,-6.5413,-6.5413,-6.5413,-6.5413,-6.5413,-6.5413,-6.5413,-6.5413,-6.5413,-6.5413,-6.5413,-6.5413,-6.5413,-6.5413,-6.5413,-6.5413,-6.5413,-6.5413,-6.5413,-6.5413,-6.5413,-6.5413,-6.5413,-6.5413,-6.5413,-6.5509,-5.7582,-5.8636,-5.9612,-6.0237,-5.8675,-5.684,-5.6333,-5.3051,-4.9655,-4.8017,-4.6027,-4.4816,-4.5402,-4.6456,-4.7549,-4.8642,-5.2234,-5.563,-5.7699,-6.0293,-6.3381,-6.7278,-6.8036,-6.8938,-7.0733,-7.0898,-7.0898,-7.0898,-7.0898,-7.0898,-7.0898,-7.0898,-7.0898,-7.0898,-7.0898,-7.0898,-7.0898,-7.0898,-7.0898,-7.0898,-7.0898,-7.0591,-7.0052,-7.0052,-6.9679,-6.9023,-6.7881,-6.7337,0.0,-6.5968,-6.545,-6.5413,-6.5413,-6.5413,-6.5413,-6.5413,-6.5413,-6.5413,-6.5413,-6.5413,-6.5413,-6.5413,-6.5413,-6.5413,-6.5413,-6.5413,-6.5413,-6.5413,-6.5413,-6.5413,-6.5413,-6.5413,-6.5413,-6.5413,-6.5413,-6.5413,-6.5413,-6.5413,-6.5413,-6.5413,-6.5413,-6.5413,-6.5413,-6.5413,-6.5413,-6.5413,-6.5413,-6.5413,-6.5413,-6.5413,-6.5413,-6.5413,-6.5413,-6.5413,-6.5413,-6.5413,-6.5413,-6.5413,-6.5413,-6.5413,-6.5413,-6.5413,-6.5413,-6.5413,-6.5413,-6.5413,-6.5413,-6.5413,-6.5413,-6.5413,-6.5413,-6.5537,-5.7582,-5.9065,-6.0393,-6.0393,-5.9065,-5.7348,-5.5708,-5.2624,-4.9148,-4.5751,-4.4348,-4.3725,-4.3725,-4.5129,-4.6846,-4.8525,-5.1726,-5.4303,-5.5201,-5.8145,-6.1429,-6.4652,-6.6419,-6.8347,-7.0656,-7.0898,-7.0898,-7.0898,-7.0898,-7.0898,-7.0898,-7.0898,-7.0898,-7.0898,-7.0898,-7.0898,-7.0898,-7.0898,-7.0898,-7.0898,-7.0898,-7.0898,-7.0898,-7.0898,-7.0898,-7.0783,-6.9023,-6.8262,0.0,-6.6227,-6.545,-6.5413,-6.5413,-6.5413,-6.5413,-6.5413,-6.5413,-6.5413,-6.5413,-6.5413,-6.5413,-6.5413,-6.5413,-6.5413,-6.5413,-6.5413,-6.5413,-6.5413,-6.5413,-6.5413,-6.5413,-6.5413,-6.5413,-6.5413,-6.5413,-6.5413,-6.5413,-6.5413,-6.5413,-6.5413,-6.5413,-6.5413,-6.5413,-6.5413,-6.5413,-6.5413,-6.5413,-6.5413,-6.5413,-6.5413,-6.5413,-6.5413,-6.5413,-6.5413,-6.5413,-6.5413,-6.5413,-6.5413,-6.5413,-6.5413,-6.5413,-6.5413,-6.5413,-6.5413,-6.5413,-6.5413,-6.5413,-6.5413,-6.5413,-6.5413,-6.5413,-6.5622,-5.5123,-5.6879,-5.8363,-5.7192,-5.5162,-5.2975,-5.1258,-4.8213,-4.5246,-4.3567,-4.2513,-4.228,-4.3491,-4.5129,-4.7237,-5.0126,-5.2507,-5.4927,-5.7543,-5.9828,-6.2438,-6.5717,-6.8381,-7.0224,-7.0848,-7.0898,-7.0898,-7.0898,-7.0898,-7.0898,-7.0898,-7.0898,-7.0898,-7.0898,-7.0898,-7.0898,-7.0898,-7.0898,-7.0898,-7.0898,-7.0898,-7.0898,-7.0898,-7.0898,-7.0898,-7.0821,-6.9102,-6.8304,-6.8076,-6.6308,-6.5494,-6.5413,-6.5413,-6.5413,-6.5413,-6.5413,-6.5413,-6.5413,-6.5413,-6.5413,-6.5413,-6.5413,-6.5413,-6.5413,-6.5413,-6.5413,-6.5413,-6.5413,-6.5413,-6.5413,-6.5413,-6.5413,-6.5413,-6.5413,-6.5413,-6.5413,-6.5413,-6.5413,-6.5413,-6.5413,-6.5413,-6.5413,-6.5413,-6.5413,-6.5413,-6.5413,-6.5413,-6.5413,-6.5413,-6.5413,-6.5413,-6.5413,-6.5413,-6.5413,-6.5413,-6.5413,-6.5413,-6.5413,-6.5413,-6.5413,-6.5413,-6.5413,-6.5413,-6.5413,-6.5413,-6.5413,-6.5413,-6.5413,-6.5413,-6.5413,-6.5537,-6.5769,-5.3171,-5.4927,-5.6138,-5.5083,-5.2858,-5.0555,-4.9111,-4.6144,-4.345,-4.2591,-4.1693,-4.1734,-4.3801,-4.5636,-4.7783,-5.0906,-5.3405,-5.5708,-5.7855,-6.0195,-6.2906,-6.621,-6.9317,-7.1042,-7.0555,-7.076,-7.0898,-7.0898,-7.0898,-7.0898,-7.0898,-7.0898,-7.0898,-7.0898,-7.0898,-7.0898,-7.0898,-7.0898,-7.0898,-7.0898,-7.0898,-7.0898,-7.0898,-7.0898,-7.0744,-7.036,-6.9013,-6.8125,0.0,-6.6183,-6.5509,-6.5413,-6.5413,-6.5413,-6.5413,-6.5413,-6.5413,-6.5413,-6.5413,-6.5413,-6.5413,-6.5413,-6.5413,-6.5413,-6.5413,-6.5413,-6.5413,-6.5413,-6.5413,-6.5413,-6.5413,-6.5413,-6.5413,-6.5413,-6.5413,-6.5413,-6.5413,-6.5413,-6.5413,-6.5413,-6.5413,-6.5413,-6.5413,-6.5413,-6.5413,-6.5413,-6.5413,-6.5413,-6.5413,-6.5413,-6.5413,-6.5413,-6.5413,-6.5413,-6.5413,-6.5413,-6.5413,-6.5413,-6.5413,-6.5413,-6.5413,-6.5413,-6.5413,-6.5413,-6.5413,-6.5413,-6.5413,-6.5413,-6.542,-6.5509,-6.5743,-6.5905,0.0,-5.2975,-5.3795,-5.3756,-5.1841,-4.9772,-4.8837,-4.6183,0.0,-4.2825,-4.2045,-4.224,-4.4738,-4.661,-4.864,-5.1258,-5.4459,-5.6684,-5.6918,-5.9922,-6.3218,-6.6327,-6.9373,-7.0877,-6.9993,-7.0516,-7.0898,-7.0898,-7.0898,-7.0898,-7.0898,-7.0898,-7.0898,-7.0898,-7.0898,-7.0898,-7.0898,-7.0898,-7.0898,-7.0898,-7.0898,-7.0898,-7.0898,-7.0821,-7.0398,-6.9667,-6.8706,-6.7779,-6.6849,-6.5953,-6.5509,-6.5429,-6.5413,-6.5413,-6.5413,-6.5413,-6.5413,-6.5413,-6.5413,-6.5413,-6.5413,-6.5413,-6.5413,-6.5413,-6.5413,-6.5413,-6.5413,-6.5413,-6.5413,-6.5413,-6.5413,-6.5413,-6.5413,-6.5413,-6.5413,-6.5413,-6.5413,-6.5413,-6.5413,-6.5413,-6.5413,-6.5413,-6.5413,-6.5413,-6.5413,-6.5413,-6.5413,-6.5413,-6.5413,-6.5413,-6.5413,-6.5413,-6.5413,-6.5413,-6.5413,-6.5413,-6.5413,-6.5413,-6.5413,-6.5413,-6.5413,-6.5413,-6.5413,-6.5413,-6.5413,-6.5413,-6.5413,-6.5413,-6.5494,-6.5717,-6.5893,-6.6074,-4.6573,0.0,-5.1843,-5.1178,-5.0048,-4.872,0.0,-4.6261,-4.5636,-4.5441,-4.5207,-4.548,-4.6766,-4.8367,-5.0592,-5.3834,-5.563,-5.7504,-6.0117,-6.3438,-6.6106,-6.7457,-6.9865,-7.1048,-7.0015,-7.0516,-7.0898,-7.0898,-7.0898,-7.0898,-7.0898,-7.0898,-7.0898,-7.0898,-7.0898,-7.0898,-7.0898,-7.0898,-7.0898,-7.0898,-7.0898,-7.0898,-7.0898,-7.0244,-6.9898,-6.9629,-6.8052,-6.723,-6.6918,-6.5967,-6.5552,-6.5465,-6.5444,-6.5413,-6.5413,-6.5413,-6.5413,-6.5413,-6.5413,-6.5413,-6.5413,-6.5413,-6.5413,-6.5413,-6.5413,-6.5413,-6.5413,-6.5413,-6.5413,-6.5413,-6.5413,-6.5413,-6.5413,-6.5413,-6.5413,-6.5413,-6.5413,-6.5413,-6.5413,-6.5413,-6.5413,-6.5413,-6.5413,-6.5413,-6.5413,-6.5413,-6.5413,-6.5413,-6.5413,-6.5413,-6.5413,-6.5413,-6.5413,-6.5413,-6.5413,-6.5413,-6.5413,-6.5413,-6.5413,-6.5413,-6.5413,-6.5413,-6.5413,-6.5413,-6.5413,-6.5413,-6.5413,-6.5413,-6.5494,-6.5717,-6.5893,-6.6074,-4.5363,-4.7588,-4.954,-4.907,-4.8876,-4.8486,-4.7198,-4.6885,-4.6768,-4.6378,-4.6612,-4.7276,-4.8523,-5.0789,-5.3249,-5.5513,-5.7933,-6.0588,-6.3633,-6.5312,-6.6823,-6.8418,-6.9996,-7.0744,-7.0089,-7.0645,-7.1005,-7.0912,-7.0898,-7.0898,-7.0898,-7.0898,-7.0898,-7.0898,-7.0898,-7.0898,-7.0898,-7.0898,-7.0898,-7.0898,-7.0898,-7.0706,-7.0321,-6.9898,-6.9244,-6.8436,-6.7513,-6.6859,-6.6408,-6.5827,-6.5566,-6.5494,-6.5444,-6.5413,-6.5413,-6.5413,-6.5413,-6.5413,-6.5413,-6.5413,-6.5413,-6.5413,-6.5413,-6.5413,-6.5413,-6.5413,-6.5413,-6.5413,-6.5413,-6.5413,-6.5413,-6.5413,-6.5413,-6.5413,-6.5413,-6.5413,-6.5413,-6.5413,-6.5413,-6.5413,-6.5413,-6.5413,-6.5413,-6.5413,-6.5413,-6.5413,-6.5413,-6.5413,-6.5413,-6.5413,-6.5413,-6.5413,-6.5413,-6.5413,-6.5413,-6.5413,-6.5413,-6.5413,-6.5413,-6.5413,-6.5413,-6.5413,-6.5413,-6.5413,-6.5413,-6.5413,-6.5413,-6.5413,-6.5494,-6.5717,-6.5795,-6.5997,-4.5987,-4.7315,-4.8094,-4.7703,-4.8408,-4.8993,-4.8172,-4.8172,-4.8213,-4.7588,-4.8057,-4.9031,-5.0592,-5.3405,-5.5825,-5.6801,-6.0471,-6.4023,-6.6444,-6.6444,-6.699,-6.9137,-7.0126,-7.0485,-7.0238,-7.0816,-7.1136,-7.094,-7.0925,-7.0898,-7.0898,-7.0898,-7.0898,-7.0898,-7.0898,-7.0898,-7.0898,-7.0898,-7.0898,-7.0898,-7.0783,-7.036,-6.9706,-6.9436,-6.8513,-6.709,-6.6974,0.0,-6.5807,-6.5688,-6.558,-6.5509,-6.542,-6.5429,-6.5413,-6.5413,-6.5413,-6.5413,-6.5413,-6.5413,-6.5413,-6.5413,-6.5413,-6.5413,-6.5413,-6.5413,-6.5413,-6.5413,-6.5413,-6.5413,-6.5413,-6.5413,-6.5413,-6.5413,-6.5413,-6.5413,-6.5413,-6.5413,-6.5413,-6.5413,-6.5413,-6.5413,-6.5413,-6.5413,-6.5413,-6.5413,-6.5413,-6.5413,-6.5413,-6.5413,-6.5413,-6.5413,-6.5413,-6.5413,-6.5413,-6.5413,-6.5413,-6.5413,-6.5413,-6.5413,-6.5413,-6.5413,-6.5413,-6.5413,-6.5413,-6.5413,-6.5413,-6.5413,-6.5494,-6.5717,-6.5743,-6.5928,-4.6729,-4.9072,-5.0282,-4.8133,-4.9306,-5.0789,-4.9928,-5.0867,-5.2078,-5.2702,-5.2936,-5.3327,-5.4303,-5.5552,-5.6918,-5.8478,-6.1759,-6.4728,-6.6561,-6.7966,-6.8942,-6.9333,-7.0633,-7.1182,-7.0419,-7.0861,-7.1203,-7.1158,-7.0992,-7.0898,-7.0898,-7.0898,-7.0898,-7.0898,-7.0898,-7.0898,-7.0898,-7.0898,-7.0898,-7.0898,-7.0206,-6.9821,-6.9667,-6.8167,-6.7359,-6.7051,0.0,-6.6013,-6.5885,-6.5807,-6.5688,-6.558,-6.5509,-6.5435,-6.5413,-6.5413,-6.5413,-6.5413,-6.5413,-6.5413,-6.5413,-6.5413,-6.5413,-6.5413,-6.5413,-6.5413,-6.5413,-6.5413,-6.5413,-6.5413,-6.5413,-6.5413,-6.5413,-6.5413,-6.5413,-6.5413,-6.5413,-6.5413,-6.5413,-6.5413,-6.5413,-6.5413,-6.5413,-6.5413,-6.5413,-6.5413,-6.5413,-6.5413,-6.5413,-6.5413,-6.5413,-6.5413,-6.5413,-6.5413,-6.5413,-6.5413,-6.5413,-6.5413,-6.5413,-6.5413,-6.5413,-6.5413,-6.5413,-6.5413,-6.5413,-6.5413,-6.5413,-6.5413,-6.5494,-6.5717,-6.5856,-6.6052,-4.7001,-4.9462,-5.1102,-4.9969,-5.196,-5.4225,-5.4264,-5.4537,-5.4771,-5.4732,-5.5083,-5.5513,-5.5942,-5.7074,-5.8831,-6.1486,-6.3633,-6.5741,-6.7888,-6.8474,-6.9215,-7.0621,-7.1022,-7.1135,-7.1121,-7.128,-7.131,-7.1225,-7.1017,-7.0898,-7.0898,-7.0898,-7.0898,-7.0898,-7.0898,-7.0898,-7.0898,-7.0898,-7.0898,-7.0898,-7.009,-6.9436,-6.8936,-6.7667,-6.6859,-6.6436,0.0,-6.5897,-6.5897,-6.582,-6.5715,-6.5594,-6.5523,-6.545,-6.5413,-6.5413,-6.5413,-6.5413,-6.5413,-6.5413,-6.5413,-6.5413,-6.5413,-6.5413,-6.5413,-6.5413,-6.5413,-6.5413,-6.5413,-6.5413,-6.5413,-6.5413,-6.5413,-6.5413,-6.5413,-6.5413,-6.5413,-6.5413,-6.5413,-6.5413,-6.5413,-6.5413,-6.5413,-6.5413,-6.5413,-6.5413,-6.5413,-6.5413,-6.5413,-6.5413,-6.5413,-6.5413,-6.5413,-6.5413,-6.5413,-6.5413,-6.5413,-6.5413,-6.5413,-6.5413,-6.5413,-6.5413,-6.5413,-6.5413,-6.5413,-6.5413,-6.5413,-6.5413,-6.5494,-6.5717,-6.5782,-6.5986,-4.7899,-5.0048,-5.196,-5.2936,-5.4771,-5.6528,-5.7348,-5.7192,-5.6762,-5.6294,-5.6723,-5.7309,-5.7738,-5.9183,-6.133,-6.4377,-6.5468,-6.6795,-6.9333,-6.9137,-6.9528,-7.1753,-7.1402,-7.1224,-7.1707,-7.1628,-7.1473,-7.127,-7.1077,-7.0965,-7.0898,-7.0898,-7.0898,-7.0898,-7.0898,-7.0898,-7.0898,-7.0898,-7.0821,-7.0591,-6.9783,-6.8936,-6.809,-6.7205,-6.6474,-6.5897,-6.5897,-6.5897,-6.5897,-6.5846,-6.5728,-6.5622,-6.5552,-6.5465,-6.5413,-6.5413,-6.5413,-6.5413,-6.5413,-6.5413,-6.5413,-6.5413,-6.5413,-6.5413,-6.5413,-6.5413,-6.5413,-6.5413,-6.5413,-6.5413,-6.5413,-6.5413,-6.5413,-6.5413,-6.5413,-6.5413,-6.5413,-6.5413,-6.5413,-6.5413,-6.5413,-6.5413,-6.5413,-6.5413,-6.5413,-6.5413,-6.5413,-6.5413,-6.5413,-6.5413,-6.5413,-6.5413,-6.5413,-6.5413,-6.5413,-6.5413,-6.5413,-6.5413,-6.5413,-6.5413,-6.5413,-6.5413,-6.5413,-6.5413,-6.5413,-6.5413,-6.5413,-6.5435,-6.5552,-6.5717,-6.5769,-6.5936,-5.0243,-5.1843,-5.3561,-5.7543,-5.6957,-5.563,-5.6489,-5.7231,-5.7933,-5.8675,-5.8868,-5.9414,-6.1015,-6.2735,-6.4533,-6.6327,-6.6678,-6.7615,-7.023,-7.0543,-7.0894,-7.187,-7.1948,-7.1948,-7.1982,-7.1789,-7.1634,-7.1473,-7.128,-7.1089,-7.0912,-7.0898,-7.0898,-7.0898,-7.0898,-7.0898,-7.0898,-7.0898,-7.0514,-6.9783,-6.8898,-6.8052,-6.7167,-6.6359,-6.5936,-6.5897,-6.5897,-6.5897,-6.5897,-6.5897,-6.5846,-6.578,-6.5622,-6.5509,-6.5413,-6.5413,-6.5413,-6.5413,-6.5413,-6.5413,-6.5413,-6.5413,-6.5413,-6.5413,-6.5413,-6.5413,-6.5413,-6.5413,-6.5413,-6.5413,-6.5413,-6.5413,-6.5413,-6.5413,-6.5413,-6.5413,-6.5413,-6.5413,-6.5413,-6.5413,-6.5413,-6.5413,-6.5413,-6.5413,-6.5413,-6.5413,-6.5413,-6.5413,-6.5413,-6.5413,-6.5413,-6.5413,-6.5413,-6.5413,-6.5413,-6.5413,-6.5413,-6.5413,-6.5413,-6.5413,-6.5413,-6.5413,-6.5413,-6.5413,-6.5413,-6.5413,-6.5413,-6.5594,-6.5703,-6.5717,-6.6014,-6.6167,-5.1414,-5.3639,-5.5786,-5.8441,-5.7972,-5.7387,-5.9339,-5.9183,-5.9026,-6.0429,-6.0703,-6.1093,-6.2306,-6.4336,-6.6056,-6.6717,-6.8161,-6.9567,-7.0543,-7.1167,-7.1636,-7.1948,-7.1987,-7.1987,-7.1987,-7.1803,-7.1647,-7.1497,-7.13,-7.1112,-7.0912,-7.0898,-7.0898,-7.0898,-7.0898,-7.0898,-7.0898,-7.0898,-7.0206,-6.8898,-6.8552,-6.7936,-6.7051,-6.6282,-6.5897,-6.5897,-6.5897,-6.5897,-6.5897,-6.5897,-6.5795,-6.5674,-6.5547,-6.542,-6.5413,-6.5413,-6.5413,-6.5413,-6.5413,-6.5413,-6.5413,-6.5413,-6.5413,-6.5413,-6.5413,-6.5413,-6.5413,-6.5413,-6.5413,-6.5413,-6.5413,-6.5413,-6.5413,-6.5413,-6.5413,-6.5413,-6.5413,-6.5413,-6.5413,-6.5413,-6.5413,-6.5413,-6.5413,-6.5413,-6.5413,-6.5413,-6.5413,-6.5413,-6.5413,-6.5413,-6.5413,-6.5413,-6.5413,-6.5413,-6.5413,-6.5413,-6.5413,-6.5413,-6.5413,-6.5413,-6.5413,-6.5413,-6.5413,-6.5413,-6.5413,-6.5413,-6.5413,-6.5608,-6.5744,-6.5881,-6.6088,-6.6281,-5.2468,-5.4615,-5.6645,-5.8597,-5.805,-5.7816,-6.0976,-6.0547,-6.008,-6.211,-6.293,-6.3477,-6.4101,-6.6053,-6.7693,-6.8005,-6.9528,-7.0816,-7.1089,-7.1636,-7.1987,-7.1987,-7.1987,-7.1987,-7.1987,-7.1866,-7.1744,-7.1573,-7.1395,-7.1225,-7.1005,-7.0952,-7.0898,-7.0898,-7.0667,-7.0514,-7.0514,-7.0244,-6.9398,-6.7975,-6.7975,-6.7552,-6.6705,-6.6128,-6.5897,-6.5897,-6.5897,-6.5897,-6.5897,-6.5897,-6.5781,-6.5594,-6.5494,-6.5459,-6.5413,-6.5413,-6.5413,-6.5413,-6.5413,-6.5413,-6.5413,-6.5413,-6.5413,-6.5413,-6.5413,-6.5413,-6.5413,-6.5413,-6.5413,-6.5413,-6.5413,-6.5413,-6.5413,-6.5413,-6.5413,-6.5413,-6.5413,-6.5413,-6.5413,-6.5413,-6.5413,-6.5413,-6.5413,-6.5413,-6.5413,-6.5413,-6.5413,-6.5413,-6.5413,-6.5413,-6.5413,-6.5413,-6.5413,-6.5413,-6.5413,-6.5413,-6.5413,-6.5413,-6.5413,-6.5413,-6.5413,-6.5413,-6.5413,-6.5413,-6.5413,-6.5413,-6.5413,-6.5676,-6.5883,-6.5986,-6.6206,-6.6389,-5.3522,-5.4654,-5.5942,-5.848,-5.7231,-5.645,-6.0744,-6.1056,-6.1134,-6.3791,-6.5665,-6.6795,-6.6834,-6.8239,-6.9684,-7.0543,-7.0699,-7.1011,-7.187,-7.1987,-7.1987,-7.1987,-7.1987,-7.1987,-7.1987,-7.1987,-7.192,-7.1711,-7.1573,-7.1404,-7.1225,-7.1017,-7.0898,-7.0898,-7.0129,-6.9706,-6.9706,-6.8859,-6.7975,-6.709,-6.709,-6.6667,-6.5897,-6.5897,-6.5897,-6.5897,-6.5897,-6.5897,-6.5897,-6.5897,-6.5781,-6.5594,-6.5594,-6.5509,-6.5413,-6.5413,-6.5413,-6.5413,-6.5413,-6.5413,-6.5413,-6.5413,-6.5413,-6.5413,-6.5413,-6.5413,-6.5413,-6.5413,-6.5413,-6.5413,-6.5413,-6.5413,-6.5413,-6.5413,-6.5413,-6.5413,-6.5413,-6.5413,-6.5413,-6.5413,-6.5413,-6.5413,-6.5413,-6.5413,-6.5413,-6.5413,-6.5413,-6.5413,-6.5413,-6.5413,-6.5413,-6.5413,-6.5413,-6.5413,-6.5413,-6.5413,-6.5413,-6.5413,-6.5413,-6.5413,-6.5413,-6.5413,-6.5413,-6.5413,-6.5413,-6.5413,-6.5413,-6.5795,-6.5986,-6.6024,-6.6346,-6.6508,-5.3873,-5.5942,-5.8285,-5.9651,-5.9456,-5.969,-6.2813,-6.1915,-6.1486,-6.5273,-6.6951,-6.7888,-6.8513,-6.9567,-7.0387,-7.066,-7.1206,-7.1714,-7.1948,-7.1987,-7.1987,-7.1987,-7.1987,-7.1987,-7.1987,-7.1987,-7.192,-7.1711,-7.1665,-7.1497,-7.1236,-7.1147,-7.1067,-7.0912,-7.0129,-6.9706,-6.9706,-6.8859,-6.7975,-6.709,-6.709,-6.6667,-6.5897,-6.5897,-6.5897,-6.5897,-6.5897,-6.5897,-6.5897,-6.5846,-6.5728,-6.5594,-6.5552,-6.5465,-6.5413,-6.5413,-6.5413,-6.5413,-6.5413,-6.5413,-6.5413,-6.5413,-6.5413,-6.5413,-6.5413,-6.5413,-6.5413,-6.5413,-6.5413,-6.5413,-6.5413,-6.5413,-6.5413,-6.5413,-6.5413,-6.5413,-6.5413,-6.5413,-6.5413,-6.5413,-6.5413,-6.5413,-6.5413,-6.5413,-6.5413,-6.5413,-6.5413,-6.5413,-6.5413,-6.5413,-6.5413,-6.5413,-6.5413,-6.5413,-6.5413,-6.5413,-6.5413,-6.5413,-6.5413,-6.5413,-6.5413,-6.5413,-6.5413,-6.5413,-6.5413,-6.5413,-6.5413,-6.5795,-6.5986,-6.6024,-6.6346,-6.6508,-5.5747,-5.7777,-5.9846,-6.0705,-6.0939,-6.1603,-6.4219,-6.3828,-6.375,-6.6717,-6.8005,-6.8786,-6.9294,-7.0387,-7.1089,-7.0777,-7.1128,-7.1597,-7.1948,-7.1714,-7.1597,-7.1948,-7.1987,-7.1987,-7.1987,-7.1987,-7.1933,-7.1846,-7.1765,-7.1608,-7.1329,-7.0919,-7.0599,-7.045,-6.9283,-6.8667,-6.8667,-6.7821,-6.7128,-6.6628,-6.6628,-6.6359,-6.5897,-6.5897,-6.5897,-6.5897,-6.5897,-6.5897,-6.5897,-6.5859,-6.5742,-6.5594,-6.5552,-6.5479,-6.5413,-6.5413,-6.5413,-6.5413,-6.5413,-6.5413,-6.5413,-6.5413,-6.5413,-6.5413,-6.5413,-6.5413,-6.5413,-6.5413,-6.5413,-6.5413,-6.5413,-6.5413,-6.5413,-6.5413,-6.5413,-6.5413,-6.5413,-6.5413,-6.5413,-6.5413,-6.5413,-6.5413,-6.5413,-6.5413,-6.5413,-6.5413,-6.5413,-6.5413,-6.5413,-6.5413,-6.5413,-6.5413,-6.5413,-6.5413,-6.5413,-6.5413,-6.5413,-6.5413,-6.5413,-6.5413,-6.5413,-6.5413,-6.5413,-6.5413,-6.5413,-6.542,-6.5509,-6.5832,-6.6019,-6.6095,-6.6373,-6.6508,-5.8128,-5.9573,-6.0588,-6.1369,-6.1757,-6.2618,-6.5234,-6.6405,-6.7185,-6.8044,-6.8903,-6.9528,-6.9606,-7.0933,-7.1753,-7.0933,-7.0816,-7.1089,-7.187,-7.1324,-7.1128,-7.1909,-7.1987,-7.1987,-7.1987,-7.1987,-7.1987,-7.1987,-7.1846,-7.162,-7.1381,-7.0467,-6.981,-6.9604,-6.7975,-6.709,-6.709,-6.6282,-6.5897,-6.5897,-6.5897,-6.5897,-6.5897,-6.5897,-6.5897,-6.5897,-6.5897,-6.5897,-6.5897,-6.5897,-6.5781,-6.5594,-6.5594,-6.5509,-6.5413,-6.5413,-6.5413,-6.5413,-6.5413,-6.5413,-6.5413,-6.5413,-6.5413,-6.5413,-6.5413,-6.5413,-6.5413,-6.5413,-6.5413,-6.5413,-6.5413,-6.5413,-6.5413,-6.5413,-6.5413,-6.5413,-6.5413,-6.5413,-6.5413,-6.5413,-6.5413,-6.5413,-6.5413,-6.5413,-6.5413,-6.5413,-6.5413,-6.5413,-6.5413,-6.5413,-6.5413,-6.5413,-6.5413,-6.5413,-6.5413,-6.5413,-6.5413,-6.5413,-6.5413,-6.5413,-6.5413,-6.5413,-6.5413,-6.5413,-6.5413,-6.5494,-6.5717,-6.5893,-6.6074,-6.6196,-6.6406,-6.6508,-5.5981,-5.8207,-6.0432,-6.0627,-6.2228,-6.4414,-6.699,-6.7693,-6.8083,-6.8942,-6.9801,-7.0621,-7.1324,-7.1753,-7.1948,-7.1753,-7.1714,-7.1792,-7.1987,-7.1831,-7.1792,-7.1987,-7.1987,-7.1987,-7.1987,-7.1987,-7.1987,-7.1987,-7.1976,-7.1512,-7.0534,-7.0244,-6.9672,-6.8719,-6.7667,-6.709,-6.709,-6.6282,-6.5897,-6.5897,-6.5897,-6.5897,-6.5897,-6.5897,-6.5897,-6.5897,-6.5897,-6.5897,-6.5897,-6.5897,-6.5781,-6.5594,-6.5594,-6.5509,-6.5413,-6.5413,-6.5413,-6.5413,-6.5413,-6.5413,-6.5413,-6.5413,-6.5413,-6.5413,-6.5413,-6.5413,-6.5413,-6.5413,-6.5413,-6.5413,-6.5413,-6.5413,-6.5413,-6.5413,-6.5413,-6.5413,-6.5413,-6.5413,-6.5413,-6.5413,-6.5413,-6.5413,-6.5413,-6.5413,-6.5413,-6.5413,-6.5413,-6.5413,-6.5413,-6.5413,-6.5413,-6.5413,-6.5413,-6.5413,-6.5413,-6.5413,-6.5413,-6.5413,-6.5413,-6.5413,-6.5413,-6.5413,-6.5413,-6.5413,-6.5413,-6.5494,-6.5717,-6.5893,-6.6074,-6.6196,-6.6406,-6.6508,-5.645,-5.8128,-5.9651,-6.1759,-6.3284,-6.4846,-6.699,-6.8122,-6.8864,-6.9294,-7.0074,-7.0855,-7.1285,-7.1714,-7.187,-7.1441,-7.1363,-7.1519,-7.1948,-7.1636,-7.1519,-7.1948,-7.1987,-7.1987,-7.1987,-7.1987,-7.1987,-7.1987,-7.1987,-7.1456,-7.0262,-6.978,-6.9033,-6.7834,-6.6974,-6.6513,-6.6513,-6.609,-6.5897,-6.5897,-6.5897,-6.5897,-6.5897,-6.5897,-6.5897,-6.5897,-6.5897,-6.5897,-6.5897,-6.5897,-6.5781,-6.5594,-6.5594,-6.5509,-6.5413,-6.5413,-6.5413,-6.5413,-6.5413,-6.5413,-6.5413,-6.5413,-6.5413,-6.5413,-6.5413,-6.5413,-6.5413,-6.5413,-6.5413,-6.5413,-6.5413,-6.5413,-6.5413,-6.5413,-6.5413,-6.5413,-6.5413,-6.5413,-6.5413,-6.5413,-6.5413,-6.5413,-6.5413,-6.5413,-6.5413,-6.5413,-6.5413,-6.5413,-6.5413,-6.5413,-6.5413,-6.5413,-6.5413,-6.5413,-6.5413,-6.5413,-6.5413,-6.5413,-6.5413,-6.5413,-6.5413,-6.5413,-6.5413,-6.5413,-6.5494,-6.5649,-6.5832,-6.6019,-6.6187,-6.6334,-6.6439,-6.6508,-5.7348,-5.8675,-5.9573,-6.3164,-6.4182,-6.4728,-6.6405,-6.8161,-6.945,-6.9606,-7.0309,-7.0933,-7.0933,-7.1519,-7.1753,-7.105,-7.0933,-7.1167,-7.1909,-7.1363,-7.1206,-7.1909,-7.1987,-7.1987,-7.1987,-7.1987,-7.1987,-7.1987,-7.1987,-7.1417,-7.0029,-6.9282,-6.8296,-6.6962,-6.6244,-6.5897,-6.5897,-6.5897,-6.5897,-6.5897,-6.5897,-6.5897,-6.5897,-6.5897,-6.5897,-6.5897,-6.5897,-6.5897,-6.5897,-6.5897,-6.5781,-6.5594,-6.5594,-6.5509,-6.5413,-6.5413,-6.5413,-6.5413,-6.5413,-6.5413,-6.5413,-6.5413,-6.5413,-6.5413,-6.5413,-6.5413,-6.5413,-6.5413,-6.5413,-6.5413,-6.5413,-6.5413,-6.5413,-6.5413,-6.5413,-6.5413,-6.5413,-6.5413,-6.5413,-6.5413,-6.5413,-6.5413,-6.5413,-6.5413,-6.5413,-6.5413,-6.5413,-6.5413,-6.5413,-6.5413,-6.5413,-6.5413,-6.5413,-6.5413,-6.5413,-6.5413,-6.5413,-6.5413,-6.5413,-6.5413,-6.5413,-6.5413,-6.5413,-6.5413,-6.5566,-6.5744,-6.5986,-6.6126,-6.6281,-6.6508,-6.6508,-6.6508,-5.5942,-5.9573,-6.2462,-6.3047,-6.375,-6.4728,-6.6405,-6.8161,-6.9606,-7.0387,-7.1206,-7.1831,-7.1831,-7.1909,-7.1948,-7.1831,-7.1831,-7.187,-7.1987,-7.1909,-7.187,-7.1987,-7.1987,-7.1987,-7.1987,-7.1987,-7.1987,-7.1987,-7.1987,-7.1144,-6.9181,-6.8972,-6.8025,-6.6115,-6.5974,-6.5897,-6.5897,-6.5897,-6.5897,-6.5897,-6.5897,-6.5897,-6.5897,-6.5897,-6.5897,-6.5897,-6.5897,-6.5897,-6.5897,-6.5897,-6.5781,-6.5594,-6.5594,-6.5509,-6.5413,-6.5413,-6.5413,-6.5413,-6.5413,-6.5413,-6.5413,-6.5413,-6.5413,-6.5413,-6.5413,-6.5413,-6.5413,-6.5413,-6.5413,-6.5413,-6.5413,-6.5413,-6.5413,-6.5413,-6.5413,-6.5413,-6.5413,-6.5413,-6.5413,-6.5413,-6.5413,-6.5413,-6.5413,-6.5413,-6.5413,-6.5413,-6.5413,-6.5413,-6.5413,-6.5413,-6.5413,-6.5413,-6.5413,-6.5413,-6.5413,-6.5413,-6.5413,-6.5413,-6.5413,-6.5413,-6.5413,-6.5413,-6.5413,-6.5413,-6.5444,-6.5635,-6.5986,-6.6008,-6.6177,-6.6508,-6.6508,-6.6508,-5.4537,-5.8285,-6.1291,-6.3243,-6.3633,-6.4023,-6.5741,-6.7068,-6.8318,-6.9684,-7.066,-7.1402,-7.1909,-7.1987,-7.1987,-7.1987,-7.1987,-7.1987,-7.1987,-7.1987,-7.1987,-7.1987,-7.1987,-7.1987,-7.1987,-7.1987,-7.1987,-7.1987,-7.1558,-7.0618,-6.9143,-6.8511,-6.7489,-6.6047,-6.5933,-6.5897,-6.5897,-6.5897,-6.5897,-6.5897,-6.5897,-6.5897,-6.5897,-6.5897,-6.5897,-6.5897,-6.5897,-6.5897,-6.5897,-6.5897,-6.5846,-6.5701,-6.5622,-6.5537,-6.5435,-6.539,-6.5413,-6.5413,-6.5413,-6.5413,-6.5413,-6.5413,-6.5413,-6.5413,-6.5413,-6.5413,-6.5413,-6.5413,-6.5413,-6.5413,-6.5413,-6.5413,-6.5413,-6.5413,-6.5413,-6.5413,-6.5413,-6.5413,-6.5413,-6.5413,-6.5413,-6.5413,-6.5413,-6.5413,-6.5413,-6.5413,-6.5413,-6.5413,-6.5413,-6.5413,-6.5413,-6.5413,-6.5413,-6.5413,-6.5413,-6.5413,-6.5413,-6.5413,-6.5413,-6.5413,-6.5413,-6.5413,-6.5413,-6.5413,-6.5509,-6.573,-6.5986,-6.6084,-6.6244,-6.6508,-6.6508,-6.6508,-5.3288,-5.6528,-5.9183,-6.2228,-6.2657,-6.2813,-6.4531,-6.5897,-6.7185,-6.8474,-6.9606,-7.0621,-7.1519,-7.1831,-7.1987,-7.1987,-7.1987,-7.1987,-7.1987,-7.1987,-7.1987,-7.1987,-7.1987,-7.1987,-7.1987,-7.1987,-7.1987,-7.1987,-7.1206,-7.0242,-6.926,-6.8196,-6.7135,-6.6118,-6.5955,-6.5897,-6.5897,-6.5897,-6.5897,-6.5897,-6.5897,-6.5897,-6.5897,-6.5897,-6.5897,-6.5897,-6.5897,-6.5897,-6.5897,-6.5897,-6.5859,-6.578,-6.5674,-6.5566,-6.5494,-6.5405,-6.5413,-6.5413,-6.5413,-6.5413,-6.5413,-6.5413,-6.5413,-6.5413,-6.5413,-6.5413,-6.5413,-6.5413,-6.5413,-6.5413,-6.5413,-6.5413,-6.5413,-6.5413,-6.5413,-6.5413,-6.5413,-6.5413,-6.5413,-6.5413,-6.5413,-6.5413,-6.5413,-6.5413,-6.5413,-6.5413,-6.5413,-6.5413,-6.5413,-6.5413,-6.5413,-6.5413,-6.5413,-6.5413,-6.5413,-6.5413,-6.5413,-6.5413,-6.5413,-6.5413,-6.5413,-6.5413,-6.5413,-6.5413,-6.5552,-6.5705,-6.5905,-6.6084,-6.6244,-6.6422,-6.6493,-6.6508,-5.2312,-5.4732,-5.7153,-5.8948,-5.9963,-6.0978,-6.2735,-6.5038,-6.6834,-6.6912,-6.8279,-6.9723,-7.0621,-7.1441,-7.1987,-7.1987,-7.1987,-7.1987,-7.1987,-7.1987,-7.1987,-7.1987,-7.1987,-7.1987,-7.1987,-7.1987,-7.1987,-7.1987,-7.1206,-7.0242,-6.926,-6.8196,-6.7135,-6.6118,-6.5955,-6.5897,-6.5897,-6.5897,-6.5897,-6.5897,-6.5897,-6.5897,-6.5897,-6.5897,-6.5897,-6.5897,-6.5897,-6.5897,-6.5897,-6.5897,-6.5859,-6.578,-6.5674,-6.5566,-6.5494,-6.5405,-6.5413,-6.5413,-6.5413,-6.5413,-6.5413,-6.5413,-6.5413,-6.5413,-6.5413,-6.5413,-6.5413,-6.5413,-6.5413,-6.5413,-6.5413,-6.5413,-6.5413,-6.5413,-6.5413,-6.5413,-6.5413,-6.5413,-6.5413,-6.5413,-6.5413,-6.5413,-6.5413,-6.5413,-6.5413,-6.5413,-6.5413,-6.5413,-6.5413,-6.5413,-6.5413,-6.5413,-6.5413,-6.5413,-6.5413,-6.5413,-6.5413,-6.5413,-6.5413,-6.5413,-6.5413,-6.5413,-6.5413,-6.5413,-6.5429,-6.5509,-6.573,-6.5905,-6.6084,-6.6205,-6.6414,-6.6508,-5.0438,-5.2546,-5.4771,-5.7582,-5.8909,-6.0002,-6.1759,-6.3282,-6.4804,-6.6444,-6.7303,-6.8357,-7.0348,-7.0972,-7.1363,-7.1909,-7.1987,-7.1987,-7.1987,-7.1987,-7.1987,-7.1987,-7.1987,-7.1987,-7.1987,-7.1987,-7.1987,-7.1987,-7.066,-6.9715,-6.9341,-6.7696,-6.6602,-6.6217,-6.5997,-6.5897,-6.5897,-6.5897,-6.5897,-6.5897,-6.5897,-6.5897,-6.5897,-6.5897,-6.5897,-6.5897,-6.5897,-6.5897,-6.5897,-6.5897,-6.5885,-6.5846,-6.5688,-6.558,-6.5552,-6.542,-6.5413,-6.5413,-6.5413,-6.5413,-6.5413,-6.5413,-6.5413,-6.5413,-6.5413,-6.5413,-6.5413,-6.5413,-6.5413,-6.5413,-6.5413,-6.5413,-6.5413,-6.5413,-6.5413,-6.5413,-6.5413,-6.5413,-6.5413,-6.5413,-6.5413,-6.5413,-6.5413,-6.5413,-6.5413,-6.5413,-6.5413,-6.5413,-6.5413,-6.5413,-6.5413,-6.5413,-6.5413,-6.5413,-6.5413,-6.5413,-6.5413,-6.5413,-6.5413,-6.5413,-6.5413,-6.5413,-6.5413,-6.5413,-6.5413,-6.5494,-6.5717,-6.5756,-6.5893,-6.6084,-6.6235,-6.6308,-4.864,-5.0282,-5.2234,-5.5669,-5.7582,-5.9104,-6.0861,-6.2149,-6.3477,-6.5194,-6.5741,-6.6678,-6.8981,-6.9372,-6.9957,-7.1714,-7.1987,-7.1987,-7.1987,-7.1987,-7.1987,-7.1987,-7.1987,-7.1987,-7.1987,-7.1987,-7.1987,-7.1987,-7.0387,-6.9411,-6.9411,-6.7481,-6.6344,-6.6226,-6.6008,-6.5897,-6.5897,-6.5897,-6.5897,-6.5897,-6.5897,-6.5897,-6.5897,-6.5897,-6.5897,-6.5897,-6.5897,-6.5897,-6.5897,-6.5897,-6.5897,-6.5885,-6.5701,-6.5594,-6.558,-6.5435,-6.5413,-6.5413,-6.5413,-6.5413,-6.5413,-6.5413,-6.5413,-6.5413,-6.5413,-6.5413,-6.5413,-6.5413,-6.5413,-6.5413,-6.5413,-6.5413,-6.5413,-6.5413,-6.5413,-6.5413,-6.5413,-6.5413,-6.5413,-6.5413,-6.5413,-6.5413,-6.5413,-6.5413,-6.5413,-6.5413,-6.5413,-6.5413,-6.5413,-6.5413,-6.5413,-6.5413,-6.5413,-6.5413,-6.5413,-6.5413,-6.5413,-6.5413,-6.5413,-6.5413,-6.5413,-6.5413,-6.5413,-6.5413,-6.5413,-6.545,-6.5608,-6.5676,-6.5782,-6.5893,-6.6074,-6.6177,0.0,0.0,0.0,-5.3053,-5.5825,-5.8168,-5.9963,-6.172,-6.2969,-6.3008,-6.3711,-6.4846,-6.6483,-6.6795,-6.7927,-7.1363,-7.1909,-7.1948,-7.1948,-7.1948,-7.1987,-7.1987,-7.1987,-7.1987,-7.1987,-7.1987,-7.1987,-7.1987,-7.0426,-6.9411,-6.9411,-6.7621,-6.6432,-6.6118,-6.5955,-6.5897,-6.5897,-6.5897,-6.5897,-6.5897,-6.5897,-6.5897,-6.5897,-6.5897,-6.5897,-6.5897,-6.5897,-6.5897,-6.5897,-6.5897,-6.5897,-6.5885,-6.5663,-6.5608,-6.558,-6.5474,-6.5375,-6.5413,-6.5413,-6.5413,-6.5413,-6.5413,-6.5413,-6.5413,-6.5413,-6.5413,-6.5413,-6.5413,-6.5413,-6.5413,-6.5413,-6.5413,-6.5413,-6.5413,-6.5413,-6.5413,-6.5413,-6.5413,-6.5413,-6.5413,-6.5413,-6.5413,-6.5413,-6.5413,-6.5413,-6.5413,-6.5413,-6.5413,-6.5413,-6.5413,-6.5413,-6.5413,-6.5413,-6.5413,-6.5413,-6.5413,-6.5413,-6.5413,-6.5413,-6.5413,-6.5413,-6.5413,-6.5413,-6.5413,-6.5413,-6.5413,-6.5413,-6.5594,-6.5703,-6.5703,-6.5881,-6.6063,-4.5402,0.0,0.0,0.0,0.0,0.0,-5.8792,-6.0822,-6.2228,-6.2852,-6.4179,-6.5546,-6.66,-6.6795,-6.7537,-6.9762,-7.0113,-7.0348,-7.0972,-7.105,-7.1285,-7.1948,-7.1987,-7.1987,-7.1987,-7.1987,-7.1987,0.0,-7.0972,-7.0074,-6.9411,-6.7475,-6.6283,-6.6118,-6.5955,-6.5897,-6.5897,-6.5897,-6.5897,-6.5897,-6.5897,-6.5897,-6.5897,-6.5897,-6.5897,-6.5897,-6.5897,-6.5897,-6.5897,-6.5897,-6.5897,-6.5897,-6.5793,-6.5715,-6.5753,-6.558,-6.5509,-6.5465,-6.5465,-6.542,-6.5413,-6.5413,-6.5413,-6.5413,-6.5413,-6.5413,-6.5413,-6.5413,-6.5413,-6.5413,-6.5413,-6.5413,-6.5413,-6.5413,-6.5413,-6.5413,-6.5413,-6.5413,-6.5413,-6.5413,-6.5413,-6.5413,-6.5413,-6.5413,-6.5413,-6.5413,-6.5413,-6.5413,-6.5413,-6.5413,-6.5413,-6.5413,-6.5413,-6.5413,-6.5413,-6.5413,-6.5413,-6.5413,-6.5413,-6.5413,-6.5413,-6.5413,-6.5413,-6.5413,-6.5413,-6.5413,-6.5413,-6.5435,-6.5479,-6.5479,-6.5703,-6.5869,-4.4972,-4.5636,-4.6885,-4.9228,0.0,0.0,-5.7933,-6.0198,-6.2032,-6.3282,-6.4336,-6.5194,-6.5663,-6.5743,-6.6095,-6.7107,-6.7576,-6.8357,-6.9957,-7.0152,-7.0465,-7.1363,-7.1128,-7.1206,-7.1948,-7.1675,-7.1597,-7.1987,-7.1206,-7.0152,-6.8903,-6.7214,-6.6267,-6.6194,-6.6013,-6.5897,-6.5897,-6.5897,-6.5897,-6.5897,-6.5897,-6.5897,-6.5897,-6.5897,-6.5897,-6.5897,-6.5897,-6.5897,-6.5897,-6.5897,-6.5897,-6.5897,-6.582,-6.5793,-6.578,-6.566,-6.5552,-6.5494,-6.5494,-6.545,-6.5413,-6.5413,-6.5413,-6.5413,-6.5413,-6.5413,-6.5413,-6.5413,-6.5413,-6.5413,-6.5413,-6.5413,-6.5413,-6.5413,-6.5413,-6.5413,-6.5413,-6.5413,-6.5413,-6.5413,-6.5413,-6.5413,-6.5413,-6.5413,-6.5413,-6.5413,-6.5413,-6.5413,-6.5413,-6.5719,-6.5948,-6.5948,-6.6254,-6.6292,-6.5987,-6.5948,-6.5796,-6.5413,-6.5413,-6.5413,-6.5413,-6.5413,-6.5413,-6.5413,-6.5413,-6.5413,-6.5413,-6.5413,-6.5413,-6.5413,-6.5509,-6.5703,-4.5441,-4.5636,-4.6378,-4.7352,-5.1102,0.0,-5.7074,-5.9417,-6.1642,-6.336,-6.387,-6.4026,-6.4026,-6.3948,-6.3948,-6.426,-6.4882,-6.6209,-6.8747,-6.9098,-6.9489,-7.0426,-6.9801,-6.9918,-7.1558,-7.1011,-7.0894,-7.1636,-7.0972,-6.9879,-6.8318,-6.7091,-6.6392,-6.6314,-6.6041,-6.5897,-6.5897,-6.5897,-6.5897,-6.5897,-6.5897,-6.5897,-6.5897,-6.5897,-6.5897,-6.5897,-6.5897,-6.5897,-6.5897,-6.5897,-6.5897,-6.5897,-6.5833,-6.5807,-6.5793,-6.5688,-6.558,-6.5509,-6.5509,-6.545,-6.5413,-6.5413,-6.5413,-6.5413,-6.5413,-6.5413,-6.5413,-6.5413,-6.5413,-6.5413,-6.5413,-6.5413,-6.5413,-6.5413,-6.5413,-6.5413,-6.5413,-6.5413,-6.5413,-6.5413,-6.5413,-6.5413,-6.5413,-6.549,-6.5528,-6.5528,-6.5605,-6.5681,-6.5681,-6.6369,-6.6827,-6.6827,-6.7477,-6.7591,-6.6904,-6.6751,-6.6369,-6.5605,-6.5452,-6.5413,-6.5413,-6.5413,-6.5413,-6.5413,-6.5413,-6.5413,-6.5413,-6.5413,-6.5413,-6.5413,-6.5413,-6.5494,-4.6651,-4.5675,-4.5636,-4.7196,-4.8837,0.0,-5.4927,-5.6723,-5.8089,-5.9768,-6.1213,-6.2228,-6.2228,-6.1642,-6.1837,-6.3948,-6.3867,-6.4414,-6.6951,-6.7303,-6.7888,-6.9489,-6.8864,-6.8747,-6.9801,-6.9762,-6.9723,-6.9879,-6.9762,-6.9528,-6.9176,-6.7993,-6.7021,-6.6314,-6.6041,-6.5897,-6.5897,-6.5897,-6.5897,-6.5897,-6.5897,-6.5897,-6.5897,-6.5897,-6.5897,-6.5897,-6.5897,-6.5897,-6.5897,-6.5897,-6.5897,-6.5897,-6.5885,-6.5885,-6.5872,-6.5859,-6.5742,-6.558,-6.558,-6.5494,-6.5413,-6.5413,-6.5413,-6.5413,-6.5413,-6.5413,-6.5413,-6.5413,-6.5413,-6.5413,-6.5413,-6.5413,-6.5413,-6.5413,-6.5413,-6.5413,-6.5413,-6.5413,-6.5413,-6.5413,-6.5413,-6.5413,-6.5413,-6.5987,-6.6445,-6.6445,-6.698,-6.74,-6.74,-6.7553,-6.7668,-6.7668,-6.7821,-6.7821,-6.7668,-6.7056,-6.6636,-6.6445,-6.5796,-6.5413,-6.5413,-6.5413,-6.5413,-6.5413,-6.5413,-6.5413,-6.5413,-6.5413,-6.5413,-6.5413,-6.5413,-6.5444,-4.7861,-4.63,-4.5753,-4.6181,-4.7276,0.0,0.0,-5.4381,-5.5669,-5.6957,-5.9261,-6.0666,-5.9378,-5.9846,-6.0549,-6.0978,-6.1798,-6.2501,-6.2891,-6.4843,-6.6834,-6.8552,-6.7224,-6.7068,-6.9176,-6.8239,-6.7849,-6.8708,-6.8747,-6.8552,-6.8122,-6.737,-6.6586,-6.5724,-6.581,-6.5897,-6.5897,-6.5897,-6.5897,-6.5897,-6.5897,-6.5897,-6.5897,-6.5897,-6.5897,-6.5897,-6.5897,-6.5897,-6.5897,-6.5897,-6.5897,-6.5897,-6.5897,-6.5897,-6.5897,-6.5897,-6.5768,-6.5594,-6.5594,-6.5509,-6.5413,-6.5413,-6.5413,-6.5413,-6.5413,-6.5413,-6.5413,-6.5413,-6.5413,-6.5413,-6.5413,-6.5413,-6.5413,-6.5413,-6.5413,-6.5413,-6.5413,-6.5413,-6.5413,-6.5413,-6.5413,-6.5413,-6.5413,-6.6139,-6.6713,-6.6713,-6.7362,-6.7897,-6.7897,-6.8279,-6.8547,-6.8547,-6.889,-6.8967,-6.8585,-6.8165,-6.7744,-6.7324,-6.6904,-6.6636,-6.6636,-6.6636,-6.6445,-6.6063,-6.6063,-6.5834,-6.5413,-6.5413,-6.5413,-6.5413,-6.5413,-6.5413,-4.9304,-4.7588,-4.6807,-4.5753,-4.6923,-4.8835,0.0,0.0,0.0,-5.4381,-5.6762,-5.8128,-5.6411,-5.7621,-5.8402,-5.6801,-5.8753,-5.9807,-5.7894,-6.1369,-6.4843,-6.6873,-6.5585,-6.5585,-6.8161,-6.7303,-6.6912,-6.7771,-6.863,-6.8513,-6.7107,-6.6763,-6.6227,-6.5374,-6.5737,-6.5909,-6.5897,-6.5897,-6.5897,-6.5897,-6.5897,-6.5897,-6.5897,-6.5897,-6.5897,-6.5897,-6.5897,-6.5897,-6.5897,-6.5897,-6.5897,-6.5897,-6.5897,-6.5897,-6.5897,-6.5897,-6.5768,-6.5594,-6.5594,-6.5509,-6.5413,-6.5413,-6.5413,-6.5413,-6.5413,-6.5413,-6.5413,-6.5413,-6.5413,-6.5413,-6.5413,-6.5413,-6.5413,-6.5413,-6.5413,-6.5413,-6.5413,-6.5528,-6.5643,-6.5643,-6.5796,-6.5796,-6.5452,-6.6254,-6.6942,-6.6942,-6.7744,-6.8394,-6.8394,-6.9005,-6.9425,-6.9425,-6.9999,-7.0151,-6.9502,-6.9273,-6.889,-6.8203,-6.7973,-6.7897,-6.7897,-6.7897,-6.7591,-6.6942,-6.6942,-6.6522,-6.5643,-6.5643,-6.5566,-6.5413,-6.5413,-6.5413,-5.1178,-4.9733,-4.9304,-4.7703,-4.915,-5.0828,-5.0358,0.0,-5.1726,-5.1804,0.0,-5.2819,-5.4068,0.0,0.0,-5.2273,-5.4303,-5.5162,-5.2624,-5.5981,-5.9885,-6.3204,-6.4687,-6.5312,-6.4924,-6.8044,-6.9255,-6.7107,-7.0543,-7.1324,-6.8122,-6.7812,-6.7229,-6.6198,-6.6119,-6.6008,-6.5897,-6.5897,-6.5897,-6.5897,-6.5897,-6.5897,-6.5897,-6.5897,-6.5897,-6.5897,-6.5897,-6.5897,-6.5897,-6.5897,-6.5897,-6.5897,-6.5897,-6.5897,-6.5897,-6.5897,-6.5768,-6.5594,-6.5594,-6.5509,-6.5413,-6.5413,-6.5413,-6.5413,-6.5413,-6.5413,-6.5413,-6.5413,-6.5413,-6.5413,-6.5413,-6.5413,-6.5413,-6.5413,-6.5413,-6.5413,-6.5413,-6.6025,-6.656,-6.656,-6.7133,-6.7133,-6.5643,-6.6713,-6.7744,-6.7744,-6.912,-7.0113,-7.0113,-7.019,-7.0266,-7.0266,-7.0342,-7.0381,-7.0266,-6.9616,-6.9158,-6.9043,-6.8317,-6.7897,-6.7897,-6.7897,-6.7859,-6.7782,-6.7744,-6.7362,-6.656,-6.656,-6.6178,-6.5413,-6.5413,-6.5413,-5.5279,-5.3871,-5.3327,-5.1102,-5.1375,-5.2078,-5.1687,-5.0711,-4.9774,-4.9306,0.0,0.0,0.0,0.0,0.0,0.0,-5.1648,-5.2312,-5.0204,-5.36,-5.7426,-6.0393,-6.1369,0.0,-6.2735,-6.7146,-6.8864,-6.6288,-6.9176,-6.9762,-6.6795,-6.6958,-6.6657,-6.5654,-6.5943,-6.6041,-6.591,-6.5897,-6.5897,-6.5897,-6.5897,-6.5897,-6.5897,-6.5897,-6.5897,-6.5897,-6.5897,-6.5897,-6.5897,-6.5897,-6.5897,-6.5897,-6.5897,-6.5897,-6.5897,-6.5897,-6.5833,-6.5701,-6.5622,-6.5537,-6.5435,-6.539,-6.5413,-6.5413,-6.5413,-6.5413,-6.5413,-6.5413,-6.5413,-6.5413,-6.5413,-6.5413,-6.5413,-6.5413,-6.5796,-6.6025,-6.5528,-6.6445,-6.7247,-6.6789,-6.7362,-6.7668,-6.698,-6.7859,-6.8661,-6.8661,-6.9655,-7.0419,-7.0419,-7.0419,-7.0419,-7.0419,-7.0419,-7.0419,-7.0419,-7.0113,-6.9884,-6.9884,-6.954,-6.9349,-6.9349,-6.9349,-6.912,-6.8661,-6.8165,-6.7706,-6.74,-6.6942,-6.6751,-6.6827,-6.5834,-6.5413,-5.8519,-5.7113,-5.6489,-5.4576,-5.4264,-5.4381,-5.4149,-5.2273,-5.0204,-4.8915,-4.8564,0.0,0.0,0.0,-4.8525,-4.6963,0.0,-4.8525,-4.63,-4.9735,-5.3795,-5.7309,-5.8324,-5.9417,0.0,-6.6249,-6.8239,-6.5468,-6.8279,-6.8786,-6.5741,-6.6046,-6.6068,-6.546,-6.5911,-6.6067,-6.591,-6.5897,-6.5897,-6.5897,-6.5897,-6.5897,-6.5897,-6.5897,-6.5897,-6.5897,-6.5897,-6.5897,-6.5897,-6.5897,-6.5897,-6.5897,-6.5897,-6.5897,-6.5897,-6.5897,-6.5859,-6.578,-6.566,-6.5537,-6.545,-6.5429,-6.5413,-6.5413,-6.5413,-6.5413,-6.5413,-6.5413,-6.5413,-6.5413,-6.5413,-6.5413,-6.5413,-6.5413,-6.5872,-6.6254,-6.5834,-6.6904,-6.7782,-6.7439,-6.8012,-6.8585,-6.8585,-6.8929,-6.9196,-6.9196,-6.9884,-7.0419,-7.0419,-7.0419,-7.0419,-7.0419,-7.0419,-7.0419,-7.0419,-7.0419,-7.0419,-7.0419,-7.0419,-7.0419,-7.0419,-7.0419,-7.0151,-6.954,-6.889,-6.847,-6.8241,-6.7668,-6.7553,-6.7859,-6.6636,-6.5987,-5.9768,-5.8402,-5.7738,-5.766,-5.8285,-5.8675,-5.7816,-5.6333,-5.4381,-5.1804,-4.9345,-4.7354,-4.6495,-4.6378,-4.5324,-4.189,-4.2827,0.0,0.0,-4.263,-4.7549,-5.3444,-5.6333,-5.8519,-6.0276,-6.5858,-6.8005,0.0,-6.9059,-7.0074,-6.5819,-6.5621,-6.5827,-6.6244,-6.6268,-6.6167,-6.591,-6.5897,-6.5897,-6.5897,-6.5897,-6.5897,-6.5897,-6.5897,-6.5897,-6.5897,-6.5897,-6.5897,-6.5897,-6.5897,-6.5897,-6.5897,-6.5897,-6.5897,-6.5897,-6.5897,-6.5859,-6.578,-6.566,-6.5509,-6.5413,-6.5413,-6.5413,-6.5413,-6.5413,-6.5413,-6.5413,-6.5413,-6.5413,-6.5413,-6.5413,-6.5413,-6.5413,-6.5413,-6.5413,-6.5681,-6.6483,-6.7324,-6.8126,-6.8967,-6.9769,-7.0342,-7.0342,-6.9693,-6.9196,-6.9196,-6.9884,-7.0419,-7.0419,-7.0419,-7.0419,-7.0419,-7.0419,-7.0419,-7.0419,-7.0419,-7.0419,-7.0419,-7.0419,-7.0419,-7.0419,-7.0419,-7.0381,-7.0381,-7.0342,-6.996,-6.9158,-6.912,-6.8699,-6.7897,-6.7821,-6.74,-6.4453,-6.3594,-6.2813,-6.2267,-6.2774,-6.3008,-6.1564,-5.9026,-5.6372,-5.4381,-5.0594,-4.7508,-4.7198,-4.5753,-4.4193,-4.3022,-4.2358,-4.1578,0.0,-4.2006,-4.3801,-4.5285,-5.075,-5.5552,-5.8402,-6.3125,0.0,0.0,-6.8357,0.0,-6.4921,-6.578,-6.617,-6.5645,-6.6055,-6.62,-6.603,-6.5946,-6.5897,-6.5897,-6.5897,-6.5897,-6.5897,-6.5897,-6.5897,-6.5897,-6.5897,-6.5897,-6.5897,-6.5897,-6.5897,-6.5897,-6.5897,-6.5897,-6.5897,-6.5897,-6.5885,-6.5846,-6.5649,-6.5509,-6.5413,-6.5413,-6.5413,-6.5413,-6.5413,-6.5413,-6.5413,-6.5413,-6.5413,-6.5413,-6.5413,-6.5413,-6.5566,-6.6139,-6.7095,-6.8012,-6.8279,-6.9884,-7.1183,-7.0916,-7.1527,-7.2138,-7.2138,-7.1871,-7.1336,-7.019,-7.0228,-7.0419,-7.0419,-7.0419,-7.0419,-7.0419,-7.0419,-7.0419,-7.0419,-7.0419,-7.0419,-7.0419,-7.0419,-7.0419,-7.0419,-7.0419,-7.0419,-7.0419,-6.9884,-6.9731,-6.9999,-6.9464,-6.9311,-6.954,-6.954,-6.8547,-6.6457,-6.5755,-6.5169,-6.5208,-6.5169,-6.5167,-6.5241,-6.2351,-5.9345,-5.8248,-5.3912,-5.036,-5.036,-4.7705,-4.5636,-4.5948,-4.3762,-4.1812,0.0,-4.1069,-4.0952,-4.0678,-4.6419,-5.1999,-5.6059,-6.0354,-6.3672,0.0,0.0,-6.7264,0.0,-6.5314,-6.5712,-6.5309,-6.5965,-6.6226,-6.6108,-6.5955,-6.5897,-6.5897,-6.5897,-6.5897,-6.5897,-6.5897,-6.5897,-6.5897,-6.5897,-6.5897,-6.5897,-6.5897,-6.5897,-6.5897,-6.5897,-6.5897,-6.5897,-6.5897,-6.5872,-6.5768,-6.5635,-6.5509,-6.5413,-6.5413,-6.5413,-6.5413,-6.5413,-6.5413,-6.5452,-6.5796,-6.6063,-6.6292,-6.6292,-6.6713,-6.7247,-6.7515,-6.8623,-6.9693,-6.9999,-7.1374,-7.2444,-7.2215,-7.2597,-7.2979,-7.2979,-7.2979,-7.2635,-7.1489,-7.1068,-7.0992,-7.1298,-7.1068,-7.0992,-7.1298,-7.1336,-7.1221,-7.0877,-7.0572,-7.0419,-7.0419,-7.0419,-7.0419,-7.0419,-7.0419,-7.0572,-7.0877,-7.0037,-7.0037,-7.0877,-7.0037,-6.9884,-7.0419,-7.0419,-6.9387]},{"header":{"parameterUnit":"m.s-1","parameterCategory":1,"la1":30.6,"la2":29.2853,"lo1":-89.7004,"lo2":-87.6739,"dx":0.0162,"dy":0.0183,"nx":112,"ny":82,"refTime":"2022-12-02T06:00:00:Z","depth":0,"parameterNumber":3,"parameterNumberName":"V-component_of_WINDS"},"data":[0.0,0.0,0.0,0.0,0.0,0.0,0.0,0.0,0.0,0.0,0.0,0.0,0.0,0.0,0.0,0.0,0.0,0.0,0.0,0.0,0.0,0.0,0.0,0.0,0.0,0.0,0.0,0.0,0.0,0.0,0.0,0.0,0.0,0.0,0.0,0.0,0.0,0.0,0.0,0.0,0.0,0.0,0.0,0.0,0.0,0.0,0.0,0.0,0.0,0.0,0.0,0.0,0.0,0.0,0.0,0.0,0.0,0.0,0.0,0.0,0.0,0.0,0.0,0.0,0.0,0.0,0.0,0.0,0.0,0.0,0.0,0.0,0.0,0.0,0.0,0.0,0.0,0.0,0.0,0.0,0.0,0.0,0.0,0.0,0.0,0.0,0.0,0.0,0.0,0.0,-0.531,-0.5246,-0.4433,-0.3893,-0.3903,-0.2904,-0.2465,-0.2798,0.0,0.0,0.0,0.0,0.0,0.0,0.0,0.0,0.0,0.0,0.0,0.0,0.0,0.0,0.0,0.0,0.0,0.0,0.0,0.0,0.0,0.0,0.0,0.0,0.0,0.0,0.0,0.0,0.0,0.0,0.0,0.0,0.0,0.0,0.0,0.0,0.0,0.0,0.0,0.0,0.0,0.0,0.0,0.0,0.0,0.0,0.0,0.0,0.0,0.0,0.0,0.0,0.0,0.0,0.0,0.0,0.0,0.0,0.0,0.0,0.0,0.0,0.0,0.0,0.0,0.0,0.0,0.0,0.0,0.0,0.0,0.0,0.0,0.0,0.0,0.0,0.0,0.0,0.0,0.0,0.0,0.0,0.0,0.0,0.0,0.0,0.0,0.0,0.0,0.0,0.0,0.0,0.0,0.0,0.0,0.0,0.0,0.0,0.0,0.0,0.0,0.0,0.0,0.0,-0.542,-0.4256,-0.4057,-0.384,-0.3437,-0.3085,-0.2891,-0.2906,0.0,0.0,0.0,0.0,0.0,0.0,0.0,0.0,0.0,0.0,0.0,0.0,0.0,0.0,0.0,0.0,0.0,0.0,0.0,0.0,0.0,0.0,0.0,0.0,0.0,0.0,0.0,0.0,0.0,0.0,0.0,0.0,0.0,0.0,0.0,0.0,0.0,0.0,0.0,0.0,0.0,0.0,0.0,0.0,0.0,0.0,0.0,0.0,0.0,0.0,0.0,0.0,0.0,0.0,0.0,0.0,0.0,0.0,0.0,0.0,0.0,0.0,0.0,0.0,0.0,0.0,0.0,0.0,0.0,0.0,0.0,0.0,0.0,0.0,0.0,0.0,0.0,0.0,0.0,0.0,0.0,0.0,0.0,0.0,0.0,0.0,0.0,0.0,0.0,0.0,0.0,0.0,0.0,0.0,0.0,0.0,0.0,0.0,0.0,0.0,0.0,0.0,0.0,-0.5991,-0.5521,-0.4572,-0.421,-0.3947,-0.3723,-0.328,-0.3077,-0.3228,-0.3049,0.0,0.0,0.0,0.0,0.0,0.0,0.0,0.0,0.0,0.0,0.0,0.0,0.0,0.0,0.0,0.0,0.0,0.0,0.0,0.0,0.0,0.0,0.0,0.0,0.0,0.0,0.0,0.0,0.0,0.0,0.0,0.0,0.0,0.0,0.0,0.0,0.0,0.0,0.0,0.0,0.0,0.0,0.0,0.0,0.0,0.0,0.0,0.0,0.0,0.0,0.0,0.0,0.0,0.0,0.0,0.0,0.0,0.0,0.0,0.0,0.0,0.0,0.0,0.0,0.0,0.0,0.0,0.0,0.0,0.0,0.0,0.0,0.0,0.0,0.0,0.0,0.0,0.0,0.0,0.0,0.0,0.0,0.0,0.0,0.0,0.0,0.0,0.0,0.0,0.0,0.0,0.0,0.0,0.0,0.0,0.0,0.0,0.0,0.0,0.0,0.0,0.0,-0.5618,-0.5468,-0.506,-0.4551,-0.4261,-0.4311,-0.3629,-0.3365,-0.3689,-0.3471,0.0,0.0,0.0,0.0,0.0,0.0,0.0,0.0,0.0,0.0,0.0,0.0,0.0,0.0,0.0,0.0,0.0,0.0,0.0,0.0,0.0,0.0,0.0,0.0,0.0,0.0,0.0,0.0,0.0,0.0,0.0,0.0,0.0,0.0,0.0,0.0,0.0,0.0,0.0,0.0,0.0,0.0,0.0,0.0,0.0,0.0,0.0,0.0,0.0,0.0,0.0,0.0,0.0,0.0,0.0,0.0,0.0,0.0,0.0,0.0,0.0,0.0,0.0,0.0,0.0,0.0,0.0,0.0,0.0,0.0,0.0,0.0,0.0,0.0,0.0,0.0,0.0,0.0,0.0,0.0,0.0,0.0,0.0,0.0,0.0,0.0,0.0,0.0,0.0,0.0,0.0,0.0,0.0,0.0,0.0,0.0,0.0,0.0,0.0,0.0,0.0,0.0,-0.5509,-0.506,-0.5021,-0.4965,-0.491,-0.491,-0.4299,-0.4007,-0.4218,-0.3769,0.0,0.0,0.0,0.0,0.0,0.0,0.0,0.0,0.0,0.0,0.0,0.0,0.0,0.0,0.0,0.0,0.0,0.0,0.0,0.0,0.0,0.0,0.0,0.0,0.0,0.0,0.0,0.0,0.0,0.0,0.0,0.0,0.0,0.0,0.0,0.0,0.0,0.0,0.0,0.0,0.0,0.0,0.0,0.0,0.0,0.0,0.0,0.0,0.0,0.0,0.0,0.0,0.0,0.0,0.0,0.0,0.0,0.0,0.0,0.0,0.0,0.0,0.0,0.0,0.0,0.0,0.0,0.0,0.0,0.0,0.0,0.0,0.0,0.0,0.0,0.0,0.0,0.0,0.0,0.0,0.0,0.0,0.0,0.0,0.0,0.0,0.0,0.0,0.0,0.0,0.0,0.0,0.0,0.0,0.0,0.0,0.0,0.0,0.0,0.0,0.0,0.0,-0.6611,-0.6231,-0.6023,-0.5461,-0.5055,-0.5055,-0.4739,-0.4477,-0.4356,0.0,0.0,0.0,0.0,0.0,0.0,0.0,0.0,0.0,0.0,0.0,0.0,0.0,0.0,0.0,0.0,0.0,0.0,0.0,0.0,0.0,0.0,0.0,0.0,0.0,0.0,0.0,0.0,0.0,0.0,0.0,0.0,0.0,0.0,0.0,0.0,0.0,0.0,0.0,0.0,0.0,0.0,0.0,0.0,0.0,0.0,0.0,0.0,0.0,0.0,0.0,0.0,0.0,0.0,0.0,0.0,0.0,0.0,0.0,0.0,0.0,0.0,0.0,0.0,0.0,0.0,0.0,0.0,0.0,0.0,0.0,0.0,0.0,0.0,0.0,0.0,0.0,0.0,0.0,0.0,0.0,0.0,0.0,0.0,0.0,0.0,0.0,0.0,0.0,0.0,0.0,0.0,0.0,0.0,0.0,0.0,0.0,0.0,0.0,0.0,0.0,0.0,-0.7721,-0.7556,-0.7229,-0.673,-0.6039,-0.5491,-0.5112,-0.4965,-0.4765,-0.4496,0.0,0.0,0.0,0.0,0.0,0.0,0.0,0.0,0.0,0.0,0.0,0.0,0.0,0.0,0.0,0.0,0.0,0.0,0.0,0.0,0.0,0.0,0.0,0.0,0.0,0.0,0.0,0.0,0.0,0.0,0.0,0.0,0.0,0.0,0.0,0.0,0.0,0.0,0.0,0.0,0.0,0.0,0.0,0.0,0.0,0.0,0.0,0.0,0.0,0.0,0.0,0.0,0.0,0.0,0.0,0.0,0.0,0.0,0.0,0.0,0.0,0.0,0.0,0.0,0.0,0.0,0.0,0.0,0.0,0.0,0.0,0.0,0.0,0.0,0.0,0.0,0.0,0.0,0.0,0.0,0.0,0.0,0.0,0.0,0.0,0.0,0.0,0.0,0.0,0.0,0.0,0.0,0.0,0.0,0.0,0.0,0.0,0.0,0.0,0.0,0.0,0.0,-0.7905,-0.8111,-0.787,-0.6927,-0.6816,-0.6344,-0.5231,-0.5079,-0.4909,0.0,0.0,0.0,0.0,0.0,0.0,0.0,0.0,0.0,0.0,0.0,0.0,0.0,0.0,0.0,0.0,0.0,0.0,0.0,0.0,0.0,0.0,0.0,0.0,0.0,0.0,0.0,0.0,0.0,0.0,0.0,0.0,0.0,0.0,0.0,0.0,0.0,0.0,0.0,0.0,0.0,0.0,0.0,0.0,0.0,0.0,0.0,0.0,0.0,0.0,0.0,0.0,0.0,0.0,0.0,0.0,0.0,0.0,0.0,0.0,0.0,0.0,0.0,0.0,0.0,0.0,0.0,0.0,0.0,0.0,0.0,0.0,0.0,0.0,0.0,0.0,0.0,0.0,0.0,0.0,0.0,0.0,0.0,0.0,0.0,0.0,0.0,0.0,0.0,0.0,0.0,0.0,0.0,0.0,0.0,0.0,0.0,0.0,0.0,0.0,0.0,0.0,0.0,-0.8918,-0.9005,-0.892,-0.8637,-0.8177,-0.7404,-0.6246,-0.6071,-0.5676,-0.4913,0.0,0.0,0.0,0.0,0.0,0.0,0.0,0.0,0.0,0.0,0.0,0.0,0.0,0.0,0.0,0.0,0.0,0.0,0.0,0.0,0.0,0.0,0.0,0.0,0.0,0.0,0.0,0.0,0.0,0.0,0.0,0.0,0.0,0.0,0.0,0.0,0.0,0.0,0.0,0.0,0.0,0.0,0.0,0.0,0.0,0.0,0.0,0.0,0.0,0.0,0.0,0.0,0.0,0.0,0.0,0.0,0.0,0.0,0.0,0.0,0.0,0.0,0.0,0.0,0.0,0.0,0.0,0.0,0.0,0.0,0.0,0.0,0.0,0.0,0.0,0.0,0.0,0.0,0.0,0.0,0.0,0.0,0.0,0.0,0.0,0.0,0.0,0.0,0.0,0.0,0.0,0.0,0.0,0.0,0.0,0.0,0.0,0.0,0.0,0.0,0.0,0.0,-0.9437,-0.9875,-0.9973,-0.9516,-0.9144,-0.847,-0.7219,-0.7071,-0.6585,-0.5597,0.0,0.0,0.0,0.0,0.0,0.0,0.0,0.0,0.0,0.0,0.0,0.0,0.0,0.0,0.0,0.0,0.0,0.0,0.0,0.0,0.0,0.0,0.0,0.0,0.0,0.0,0.0,0.0,0.0,0.0,0.0,0.0,0.0,0.0,0.0,0.0,0.0,0.0,0.0,0.0,0.0,0.0,0.0,0.0,0.0,0.0,0.0,0.0,0.0,0.0,0.0,0.0,0.0,0.0,0.0,0.0,0.0,0.0,0.0,0.0,0.0,0.0,0.0,0.0,0.0,0.0,0.0,0.0,0.0,0.0,0.0,0.0,0.0,0.0,0.0,0.0,0.0,0.0,0.0,0.0,0.0,0.0,0.0,0.0,0.0,0.0,0.0,0.0,0.0,0.0,0.0,0.0,0.0,0.0,0.0,0.0,0.0,0.0,0.0,0.0,0.0,0.0,-0.9657,-1.0582,-1.0807,-0.9843,-0.991,-0.9475,-0.8167,-0.8008,-0.7582,-0.652,0.0,0.0,0.0,0.0,0.0,0.0,0.0,0.0,0.0,0.0,0.0,0.0,0.0,0.0,0.0,0.0,0.0,0.0,0.0,0.0,0.0,0.0,0.0,0.0,0.0,0.0,0.0,0.0,0.0,0.0,0.0,0.0,0.0,0.0,0.0,0.0,0.0,0.0,0.0,0.0,0.0,0.0,0.0,0.0,0.0,0.0,0.0,0.0,0.0,0.0,0.0,0.0,0.0,0.0,0.0,0.0,0.0,0.0,0.0,0.0,-0.8732,-0.8225,0.0,0.0,0.0,0.0,0.0,0.0,0.0,0.0,0.0,0.0,0.0,0.0,0.0,0.0,0.0,0.0,0.0,0.0,0.0,0.0,0.0,0.0,0.0,0.0,0.0,0.0,0.0,0.0,0.0,0.0,0.0,0.0,0.0,0.0,0.0,0.0,0.0,0.0,0.0,0.0,-1.0098,-1.0737,-1.1102,-1.0763,-1.0833,-1.0429,-0.9175,-0.8988,-0.8561,-0.7683,-0.7015,0.0,0.0,0.0,0.0,0.0,0.0,0.0,0.0,0.0,0.0,0.0,0.0,0.0,0.0,0.0,0.0,0.0,0.0,0.0,0.0,0.0,0.0,0.0,0.0,0.0,0.0,0.0,0.0,0.0,0.0,0.0,0.0,0.0,0.0,0.0,0.0,0.0,0.0,0.0,0.0,0.0,0.0,0.0,0.0,0.0,0.0,0.0,0.0,0.0,0.0,0.0,0.0,0.0,0.0,0.0,0.0,0.0,0.0,0.0,-0.9395,-0.8914,0.0,0.0,0.0,0.0,0.0,0.0,0.0,0.0,0.0,0.0,0.0,0.0,0.0,0.0,0.0,0.0,0.0,0.0,0.0,0.0,0.0,0.0,0.0,0.0,0.0,0.0,0.0,0.0,0.0,0.0,0.0,0.0,0.0,0.0,0.0,0.0,0.0,0.0,0.0,0.0,-1.0306,-1.0915,-1.1256,-1.0997,-1.1118,-1.0907,-1.0107,-0.9953,-0.9519,-0.8648,-0.7702,0.0,0.0,0.0,0.0,0.0,0.0,0.0,0.0,0.0,0.0,0.0,0.0,0.0,0.0,0.0,0.0,0.0,0.0,0.0,0.0,0.0,0.0,0.0,0.0,0.0,0.0,0.0,0.0,0.0,0.0,0.0,0.0,0.0,0.0,0.0,0.0,0.0,0.0,0.0,0.0,0.0,0.0,0.0,0.0,0.0,0.0,0.0,0.0,0.0,0.0,0.0,0.0,0.0,-0.9318,-0.9651,-0.9809,-0.9992,-1.0225,-1.0499,-0.9955,-0.9546,-0.9283,-0.9315,0.0,0.0,0.0,0.0,0.0,0.0,0.0,0.0,0.0,0.0,0.0,0.0,0.0,0.0,0.0,0.0,0.0,0.0,0.0,0.0,0.0,0.0,0.0,0.0,-1.0073,-1.0184,-0.9592,0.0,0.0,0.0,0.0,0.0,0.0,0.0,0.0,0.0,0.0,0.0,-1.0599,-1.111,-1.137,-1.1045,-1.1135,-1.1078,-1.072,-1.0688,-1.0358,-0.9514,-0.8688,-0.7804,0.0,0.0,0.0,0.0,0.0,0.0,0.0,0.0,0.0,0.0,0.0,0.0,0.0,0.0,0.0,0.0,0.0,0.0,0.0,0.0,0.0,0.0,0.0,0.0,0.0,0.0,0.0,0.0,0.0,0.0,0.0,0.0,-0.5705,-0.6564,0.0,0.0,0.0,0.0,0.0,0.0,0.0,0.0,0.0,0.0,0.0,0.0,0.0,-0.8438,-0.8587,-0.9266,-0.9545,-0.9292,-0.9919,-1.0036,-0.9816,-1.0123,-1.0123,-0.9919,-1.0342,0.0,-1.0082,-1.0193,0.0,0.0,0.0,0.0,0.0,0.0,0.0,0.0,0.0,0.0,0.0,0.0,0.0,0.0,0.0,0.0,0.0,0.0,0.0,0.0,0.0,0.0,-1.0826,-1.0948,-1.1029,-1.1053,0.0,-1.0209,-0.9502,-0.9478,-0.9494,0.0,0.0,0.0,0.0,0.0,0.0,0.0,-1.1143,-1.1338,-1.1419,-1.1216,-1.1208,-1.1078,-1.072,-1.0688,-1.0625,-1.0491,-0.9684,-0.9049,-0.8727,-0.7118,0.0,0.0,0.0,0.0,0.0,0.0,0.0,0.0,0.0,0.0,0.0,0.0,0.0,0.0,0.0,0.0,0.0,0.0,0.0,0.0,0.0,0.0,0.0,0.0,0.0,0.0,0.0,0.0,0.0,-0.4047,-0.5051,-0.5751,-0.5833,-0.5737,0.0,0.0,0.0,0.0,0.0,0.0,0.0,0.0,0.0,-0.8811,-0.875,-0.8811,-0.896,-0.93,-0.9441,-0.9418,-0.996,-1.0119,-0.9946,-1.0456,-1.0573,-1.0311,-1.0763,-1.085,-1.0669,-1.059,-1.0444,-1.0209,0.0,0.0,0.0,0.0,-0.9543,-0.9567,-0.9778,-0.9851,-0.9876,-1.0054,0.0,0.0,0.0,0.0,0.0,0.0,0.0,0.0,0.0,0.0,-1.1013,-1.1183,-1.1224,-1.1224,-1.1224,-1.085,-1.0469,0.0,-1.0314,-1.0404,-1.0485,0.0,0.0,0.0,0.0,-1.1589,-1.1403,-1.1541,-1.1581,-1.1395,-1.1378,-1.1232,-1.0875,-1.085,-1.0802,-1.0696,-0.9946,-0.9488,-0.9413,-0.8043,-0.7006,0.0,0.0,0.0,0.0,0.0,0.0,0.0,0.0,0.0,0.0,0.0,0.0,0.0,0.0,0.0,0.0,0.0,0.0,0.0,0.0,0.0,0.0,0.0,0.0,0.0,0.0,0.0,0.0,-0.4216,-0.5116,-0.5902,-0.6025,-0.6085,0.0,0.0,0.0,0.0,0.0,0.0,-0.8648,-0.8723,-0.892,-0.9316,-0.913,-0.9137,-0.9378,-0.9442,-0.9476,-0.9559,-1.0082,-1.0295,-1.0193,-1.0781,-1.0946,-1.0763,-1.1051,-1.1094,-1.0964,-1.0834,-1.0737,-1.068,-1.055,-1.055,-1.059,-1.0274,-1.0128,-1.0144,-1.0509,-1.0585,-1.0601,-1.0785,-1.0826,-1.0769,-1.0514,0.0,0.0,0.0,0.0,-1.0623,-1.0842,-1.1005,-1.1151,-1.1321,-1.1362,-1.1362,-1.1362,-1.1362,-1.1256,0.0,-1.094,-1.1037,-1.1037,0.0,0.0,-1.1484,-1.1695,-1.1776,-1.1589,-1.1695,-1.1703,-1.1516,-1.15,-1.137,-1.1062,-1.1037,-1.0956,-1.0777,-1.0268,-0.992,-0.9883,-0.8906,-0.8064,-0.7408,0.0,0.0,0.0,0.0,0.0,0.0,0.0,0.0,0.0,0.0,0.0,0.0,0.0,0.0,0.0,0.0,0.0,0.0,0.0,0.0,0.0,0.0,0.0,0.0,0.0,0.0,0.0,0.0,0.0,-0.8532,-0.8581,0.0,0.0,0.0,0.0,-0.9026,-0.8925,-0.8967,-0.9166,-0.8994,-0.913,-0.9571,-0.9442,-0.9496,-0.9781,-1.0091,-1.0141,-0.9947,-1.0665,-1.0824,-1.0655,-1.1001,-1.1059,-1.082,-1.1109,-1.1043,-1.0797,-1.0916,-1.085,-1.0688,-1.068,-1.0582,-1.0485,-1.0802,-1.0802,-1.0704,-1.1062,-1.1183,-1.1183,-1.1191,-1.1191,-1.1159,-1.098,-1.0988,0.0,0.0,-1.0932,-1.1021,-1.137,-1.1468,-1.1516,-1.1703,-1.1752,-1.1752,-1.1752,-1.1752,-1.1638,0.0,-1.12,-1.1208,-1.1208,0.0,-1.1695,-1.1524,-1.1792,-1.1955,-1.1784,-1.1768,-1.1703,-1.1516,-1.15,-1.1419,-1.1224,-1.1208,-1.1135,-1.0964,-1.0964,-1.0835,-1.0657,-0.9895,-0.9439,-0.9241,-0.7552,0.0,0.0,0.0,0.0,0.0,0.0,0.0,0.0,0.0,0.0,0.0,0.0,0.0,0.0,0.0,0.0,0.0,0.0,0.0,0.0,0.0,0.0,0.0,0.0,0.0,0.0,0.0,0.0,-0.7891,-0.8575,0.0,-0.9293,-0.9089,-0.8994,-0.92,-0.9286,-0.9395,-0.9442,-0.9673,-0.9829,-0.9829,-0.9741,-0.9713,-0.9822,-0.9847,-0.9838,-0.9731,-1.006,-1.0194,-1.0137,-1.0495,-1.0554,-1.0487,-1.0686,-1.0817,-1.0918,-1.0862,-1.0995,-1.1224,-1.1346,-1.1354,-1.1313,-1.1443,-1.1443,-1.1411,-1.1533,-1.1581,-1.1541,-1.1297,-1.1151,-1.1029,-1.0842,-1.0875,-1.0997,-1.1102,-1.1216,-1.137,-1.1614,-1.1679,-1.1695,-1.176,-1.1776,-1.1809,-1.1914,-1.1939,-1.1898,-1.1768,-1.1654,-1.1581,-1.1581,-1.1687,-1.1792,-1.1833,-1.1857,-1.1841,-1.1784,-1.1776,-1.1752,-1.1687,-1.1679,-1.1606,-1.1419,-1.1403,-1.1321,-1.1143,-1.1248,-1.1224,-1.1037,-1.0752,-1.0322,-0.9751,-0.8364,-0.7404,0.0,0.0,0.0,0.0,0.0,0.0,0.0,0.0,0.0,0.0,0.0,0.0,0.0,0.0,0.0,0.0,0.0,0.0,0.0,0.0,0.0,0.0,0.0,0.0,0.0,-0.6172,-0.7427,-0.8085,-0.878,-0.9268,-0.9361,-0.9245,-0.9225,-0.9367,-0.9612,-0.9754,-0.9754,-1.0086,-1.0256,-1.0202,-1.01,-1.0073,-1.0127,-1.0032,-0.9985,-0.9985,-1.0204,-1.0218,-1.0232,-1.0667,-1.0823,-1.0834,-1.1035,-1.1224,-1.1458,-1.128,-1.1423,-1.176,-1.1638,-1.1589,-1.1598,-1.1663,-1.1687,-1.1695,-1.1752,-1.1776,-1.1736,-1.1492,-1.1338,-1.1273,-1.1094,-1.1143,-1.1265,-1.1378,-1.15,-1.1622,-1.1744,-1.1817,-1.1857,-1.1857,-1.1906,-1.1971,-1.202,-1.2028,-1.2012,-1.1955,-1.1947,-1.1914,-1.1801,-1.1825,-1.1898,-1.2012,-1.189,-1.1801,-1.1857,-1.1809,-1.1776,-1.1776,-1.1776,-1.1727,-1.1606,-1.1703,-1.1638,-1.1338,-1.1541,-1.1541,-1.1232,-1.1459,-1.126,-1.0598,-0.9308,-0.8073,-0.7044,0.0,0.0,0.0,0.0,0.0,0.0,0.0,0.0,0.0,0.0,0.0,0.0,0.0,0.0,0.0,0.0,0.0,0.0,0.0,0.0,0.0,0.0,0.0,-0.6945,-0.7129,-0.775,-0.9205,-0.9309,-0.9391,-0.9774,-0.9686,-0.9659,-0.9808,-0.9903,-0.9997,-1.0004,-1.0215,-1.0371,-1.05,-1.0507,-1.0575,-1.0724,-1.0724,-1.0724,-1.0717,-1.1056,-1.111,-1.102,-1.166,-1.1898,-1.1806,-1.2123,-1.2249,-1.2304,-1.2304,-1.2304,-1.2239,-1.1524,-1.1248,-1.1273,-1.1443,-1.1508,-1.1533,-1.1711,-1.1776,-1.1776,-1.1768,-1.1768,-1.1768,-1.176,-1.176,-1.1768,-1.1768,-1.1776,-1.1776,-1.1776,-1.1898,-1.202,-1.202,-1.2158,-1.2239,-1.2069,-1.2028,-1.1979,-1.1817,-1.2069,-1.2199,-1.1841,-1.1914,-1.2028,-1.1958,-1.1882,0.0,-1.2004,-1.1874,-1.1776,-1.1784,-1.1784,-1.1784,-1.1784,-1.2101,-1.2077,-1.1541,-1.1833,-1.1784,-1.1248,-1.1906,-1.219,-1.195,-1.0294,-0.8661,-0.7173,0.0,0.0,0.0,0.0,0.0,0.0,0.0,0.0,0.0,0.0,0.0,0.0,0.0,0.0,0.0,0.0,0.0,0.0,0.0,0.0,0.0,-0.5211,-0.5926,-0.7287,-0.822,-0.8946,-0.9458,-0.9408,-0.9408,-0.9646,-0.953,-0.9551,-0.9802,-1.0066,-1.0263,-1.0365,-1.0717,-1.0887,-1.0759,-1.0759,-1.0846,-1.082,-1.082,-1.0833,-1.0724,-1.09,-1.1073,-1.1249,-1.1381,-1.1555,-1.1656,-1.1721,-1.1851,-1.1925,-1.1925,-1.2051,-1.2272,-1.1939,-1.1809,-1.1801,-1.1727,-1.1703,-1.1711,-1.176,-1.1776,-1.1752,-1.1622,-1.1573,-1.1549,-1.1419,-1.1468,-1.1573,-1.1573,-1.1671,-1.1776,-1.1776,-1.1809,-1.1849,-1.1849,-1.1882,-1.1939,-1.2012,-1.2028,-1.2012,-1.1971,-1.2247,-1.2337,-1.1857,-1.1914,-1.1987,-1.1866,-1.1809,0.0,-1.1841,-1.1809,-1.1825,-1.1947,-1.1963,-1.1963,-1.1963,-1.2052,-1.1987,-1.1719,-1.1792,-1.1719,-1.1435,-1.1614,-1.1331,-1.0391,-1.0112,-0.9368,0.0,0.0,0.0,0.0,0.0,0.0,0.0,0.0,0.0,0.0,0.0,0.0,0.0,0.0,0.0,0.0,0.0,0.0,0.0,0.0,0.0,0.0,-0.5553,-0.6272,-0.8099,-0.8922,-0.9367,-0.9585,-0.9476,-0.9462,-0.968,-0.9618,-0.9713,-1.0073,-1.0331,-1.0527,-1.0677,-1.105,-1.1219,-1.1138,-1.113,-1.1157,-1.1157,-1.1157,-1.1116,-1.1097,-1.1185,-1.122,-1.1342,-1.1478,-1.1596,-1.1637,-1.1969,-1.2076,-1.2126,-1.2248,-1.2402,0.0,0.0,0.0,0.0,0.0,-1.1996,-1.1996,-1.1996,-1.1996,-1.1979,-1.1874,-1.1841,-1.1817,-1.1711,-1.1752,-1.1841,-1.1841,-1.1914,-1.1996,-1.1996,-1.2052,-1.2171,-1.2171,-1.2166,-1.2223,-1.2247,-1.2255,-1.2231,-1.2158,-1.2369,0.0,-1.206,-1.2142,-1.2223,-1.2117,-1.2044,-1.2028,-1.2101,-1.2044,-1.2004,-1.2028,-1.2028,-1.2004,-1.1931,-1.2125,0.0,0.0,0.0,-1.206,-1.1947,-1.15,0.0,0.0,0.0,0.0,0.0,0.0,0.0,0.0,-0.6092,-0.6443,0.0,0.0,0.0,0.0,0.0,0.0,0.0,0.0,0.0,0.0,0.0,0.0,0.0,0.0,0.0,0.0,-0.5718,-0.6663,-0.8929,-0.9127,-0.9185,-0.9578,-0.9503,-0.9537,-0.9822,-0.9863,-1.0053,-1.0487,-1.0656,-1.0819,-1.0921,-1.1267,0.0,0.0,0.0,-1.1619,-1.1619,-1.1619,-1.1619,-1.1619,-1.1619,-1.1545,-1.1487,-1.1769,-1.1881,-1.1779,-1.2475,-1.2642,-1.2471,-1.2866,-1.2912,-1.2734,-1.2467,-1.232,-1.2304,-1.2304,-1.2304,-1.2304,-1.2304,0.0,0.0,-1.2304,-1.2304,-1.2304,-1.2304,-1.2304,-1.2304,-1.2304,-1.2304,-1.2304,-1.2304,-1.2418,-1.2596,-1.2596,-1.2661,-1.2735,-1.2572,-1.2596,-1.2491,-1.2337,-1.2442,-1.2515,-1.2361,-1.2467,-1.262,-1.254,-1.2402,-1.2361,-1.2515,-1.2402,-1.2247,-1.2101,0.0,0.0,-1.1882,-1.2359,-1.2408,-1.1841,-1.2231,-1.2539,-1.2539,-1.149,-1.0968,-1.1162,-1.0059,-0.8863,-0.7657,-0.7612,-0.7077,-0.6236,-0.6893,-0.7572,0.0,0.0,0.0,0.0,0.0,0.0,0.0,0.0,0.0,0.0,0.0,0.0,0.0,0.0,0.0,-0.5454,-0.5639,-0.6195,-0.795,-0.8051,-0.8349,-0.9479,-0.9686,-0.9808,-0.9923,-1.012,-1.0324,-1.0649,-1.0819,-1.1023,-1.1294,-1.1477,-1.1572,-1.1572,-1.1606,-1.1619,-1.1619,-1.1619,-1.1619,-1.1619,-1.1619,0.0,-1.208,-1.2073,-1.2129,-1.22,-1.2337,-1.224,-1.1961,-1.2293,-1.26,-1.275,-1.2596,-1.2426,-1.2304,-1.2304,-1.2304,-1.2304,-1.2304,-1.2304,-1.2304,-1.2304,-1.2304,-1.2304,-1.2304,-1.2304,0.0,-1.2304,-1.2304,-1.2304,-1.2304,-1.2328,-1.2353,-1.2353,-1.2385,-1.2402,-1.2361,-1.2353,-1.2345,-1.2312,-1.2442,-1.262,-1.2515,-1.254,-1.2515,-1.2377,-1.2328,-1.232,-1.2353,-1.2328,-1.2345,-1.245,-1.2458,-1.2442,-1.2482,-1.2571,-1.2393,-1.2004,-1.1947,-1.1931,-1.1931,-1.1707,-1.1582,-1.1411,-1.0395,-0.9746,-0.9387,-0.8781,-0.8401,-0.8189,-0.6808,-0.6263,0.0,0.0,0.0,0.0,0.0,0.0,0.0,0.0,0.0,0.0,0.0,-0.1768,-0.1829,0.0,-0.3957,-0.4633,-0.5293,-0.6219,-0.7718,-0.7861,-0.8111,-0.8787,-0.9461,-0.9963,-1.0249,-1.0412,-1.0622,-1.0921,-1.1084,-1.1267,-1.1491,-1.1647,-1.1728,-1.1728,-1.1803,-1.1843,-1.1843,-1.1843,-1.1843,-1.1843,-1.1843,-1.199,-1.2129,-1.2053,-1.2,-1.2059,-1.2199,-1.2102,-1.1862,-1.2239,-1.2637,-1.2946,-1.2767,-1.2645,-1.2572,-1.2572,-1.2572,-1.2572,-1.2572,-1.2572,-1.2572,-1.2572,-1.2572,-1.2572,-1.2572,-1.2572,-1.2572,-1.2572,-1.2572,-1.2572,-1.2572,-1.2572,-1.2572,-1.2572,-1.2572,-1.2572,-1.2572,-1.2572,-1.2572,-1.2572,-1.2645,-1.2702,-1.2702,-1.2702,-1.267,-1.2588,-1.2572,-1.2572,-1.2572,-1.2572,-1.2572,-1.2628,-1.2628,-1.2532,-1.2442,-1.2434,-1.2393,-1.2304,-1.2134,-1.2044,-1.2044,-1.1542,-1.1248,-1.1164,-1.0115,-0.9371,-0.8878,-0.8386,-0.7948,-0.7501,-0.6508,-0.6273,0.0,0.0,0.0,0.0,0.0,0.0,0.0,-0.1722,-0.1729,-0.1843,-0.1842,-0.1838,-0.1894,-0.2962,-0.3782,-0.3734,-0.472,-0.5904,-0.6964,-0.75,-0.777,-0.7791,-0.9148,-1.0213,-1.0514,-1.0697,-1.0921,-1.1185,-1.1348,-1.1504,-1.1653,-1.1796,-1.1877,-1.1877,-1.1999,-1.2135,-1.2135,-1.2135,-1.2135,-1.2135,-1.2135,-1.2135,-1.206,-1.1932,-1.1843,-1.1782,-1.1965,-1.203,-1.2028,-1.2392,-1.2819,-1.3133,-1.2994,-1.2938,-1.2929,-1.2865,-1.2774,-1.2774,-1.2774,-1.2774,-1.2774,-1.2774,-1.2774,-1.2774,-1.2774,-1.2774,-1.2774,-1.2774,-1.2774,-1.2774,-1.2774,-1.2774,-1.2774,-1.2774,-1.2774,-1.2774,-1.2774,-1.2774,-1.2774,-1.2774,-1.2774,-1.2774,-1.2774,-1.2774,-1.2774,-1.2774,-1.2774,-1.2774,-1.2774,-1.2774,-1.2783,-1.2629,-1.2613,-1.2564,-1.2418,-1.2377,-1.2418,-1.262,-1.2402,-1.2304,-1.2304,-1.1538,-1.1087,-1.1087,-1.0072,-0.913,-0.8392,-0.813,-0.7562,-0.6877,-0.6619,-0.681,-0.158,-0.1561,-0.1642,-0.1756,-0.1707,-0.1723,0.0,-0.1804,-0.1847,-0.1941,-0.1937,-0.1926,-0.196,-0.2913,-0.3738,-0.3846,-0.3993,-0.4144,-0.4383,-0.559,-0.6443,-0.6593,-0.8978,-1.0656,-1.069,-1.0948,-1.1185,-1.1355,-1.1504,-1.1653,-1.1796,-1.1952,-1.2033,-1.2033,-1.2054,-1.2135,-1.2135,-1.2135,-1.2135,-1.2135,-1.2135,-1.2135,-1.2135,-1.2047,-1.1891,-1.1626,-1.1685,-1.1967,-1.2291,-1.2597,-1.2993,-1.3336,-1.3319,-1.3311,-1.3271,-1.2954,-1.2774,-1.2774,-1.2774,-1.2774,-1.2774,-1.2774,-1.2774,-1.2774,-1.2774,-1.2774,-1.2774,-1.2774,-1.2774,-1.2774,-1.2774,-1.2774,-1.2774,-1.2774,-1.2774,-1.2774,-1.2774,-1.2774,-1.2774,-1.2774,-1.2774,-1.2774,-1.2774,-1.2774,-1.2774,-1.2774,-1.2774,-1.2774,-1.2774,-1.2774,-1.2766,-1.2808,-1.2808,-1.28,-1.2783,-1.2629,-1.2604,-1.2628,-1.2402,-1.2304,-1.2304,-1.2178,-1.2115,-1.2115,-1.115,-1.065,-1.0661,-0.9747,-0.9282,-0.9203,-0.827,-0.7309,-0.1707,-0.1714,-0.1744,-0.1812,-0.1806,-0.1809,-0.1849,-0.1898,-0.1888,-0.1962,-0.1966,-0.1962,-0.1974,-0.3005,-0.3605,-0.2895,-0.3413,-0.3951,-0.4074,-0.5354,-0.6675,-0.7563,-0.9612,-1.0948,-1.086,-1.1199,-1.1457,-1.1518,-1.1742,-1.1904,-1.1965,-1.2108,-1.2196,-1.2196,-1.2277,-1.2318,-1.2318,-1.2318,-1.2318,-1.2318,-1.2318,-1.2318,-1.2318,-1.223,-1.2026,-1.1735,-1.1965,-1.2286,-1.2615,-1.2874,-1.3183,-1.3522,-1.3417,-1.3368,-1.3336,-1.3084,-1.2986,-1.297,-1.2873,-1.2774,-1.2774,-1.2774,-1.2774,-1.2774,-1.2774,-1.2774,-1.2774,-1.2774,-1.2774,-1.2774,-1.2774,-1.2774,-1.2774,-1.2774,-1.2774,-1.2774,-1.2774,-1.2774,-1.2774,-1.2774,-1.2921,-1.2986,-1.2986,-1.3076,-1.3149,-1.3149,-1.297,-1.2774,-1.2774,-1.2774,-1.2774,-1.2774,-1.2774,-1.2774,-1.2774,-1.2767,-1.2726,-1.2726,-1.2653,-1.2613,-1.2613,-1.2613,-1.2613,-1.2613,-1.156,-1.1069,-1.1141,-1.0083,-0.9257,-0.8645,-0.8174,-0.7403,-0.1802,-0.1824,-0.1792,-0.1888,-0.1881,-0.182,-0.1932,-0.1926,-0.1925,-0.1977,-0.1988,-0.199,-0.2,-0.2808,-0.3118,-0.2187,-0.2844,-0.352,-0.3622,-0.524,-0.6837,-0.7937,-0.9936,-1.1199,-1.1069,-1.1463,-1.1694,-1.1735,-1.1979,-1.2128,-1.2128,-1.2271,-1.2345,-1.2345,-1.2447,-1.2501,-1.2501,-1.2501,-1.2501,-1.2501,-1.2501,-1.2501,-1.2494,-1.2505,-1.2313,-1.2093,-1.2531,-1.2859,-1.3028,-1.3216,-1.3436,-1.3701,-1.3571,-1.3514,-1.3498,-1.3311,-1.3214,-1.3157,-1.3027,-1.2986,-1.2986,-1.2986,-1.2986,-1.297,-1.2921,-1.2905,-1.2897,-1.2848,-1.2774,-1.2774,-1.2774,-1.2774,-1.2774,-1.2774,-1.2807,-1.2905,-1.2905,-1.2946,-1.2986,-1.2986,-1.3084,-1.3173,-1.3173,-1.3279,-1.3368,-1.3368,-1.3149,-1.2986,-1.2986,-1.2986,-1.2986,-1.2986,-1.2986,-1.2986,-1.2986,-1.2986,-1.2986,-1.2986,-1.2986,-1.2986,-1.2986,-1.2938,-1.2905,-1.2905,-1.2056,-1.163,-1.163,-1.0944,-1.0165,-0.9358,-0.8795,-0.8137,-0.1782,-0.1782,-0.1796,-0.1854,-0.1869,-0.1937,-0.1969,-0.1974,-0.1982,-0.2011,-0.2018,-0.2026,-0.2056,-0.2126,-0.2126,-0.2126,-0.2152,-0.2172,-0.2173,-0.4585,-0.6464,-0.6757,-0.9521,-1.1443,-1.1586,-1.1735,-1.1884,-1.204,-1.2196,-1.2284,-1.2284,-1.242,-1.2494,-1.2494,-1.2501,-1.2501,-1.2501,-1.2501,-1.2501,-1.2501,-1.2501,-1.2501,-1.2494,-1.2803,-1.2877,-1.2925,-1.3362,-1.359,-1.3566,-1.3826,-1.3896,-1.3896,-1.3888,-1.3888,-1.3863,-1.3693,-1.3514,-1.336,-1.336,-1.3352,-1.3352,-1.3352,-1.3352,-1.3319,-1.3141,-1.3084,-1.3051,-1.2815,-1.2774,-1.2774,-1.2774,-1.2774,-1.2774,-1.2774,-1.2962,-1.3084,-1.3084,-1.323,-1.3352,-1.3352,-1.336,-1.336,-1.336,-1.3368,-1.3368,-1.3368,-1.336,-1.3352,-1.3352,-1.3352,-1.3352,-1.3352,-1.3352,-1.3352,-1.3352,-1.3352,-1.3352,-1.3352,-1.3352,-1.3352,-1.3352,-1.3181,-1.3084,-1.3084,-1.2855,-1.2774,-1.2774,-1.2936,-1.2949,-1.2882,-1.0858,-0.989,-0.1876,-0.19,-0.1936,-0.1956,-0.1962,-0.1964,-0.1974,-0.1977,-0.1979,-0.1989,-0.199,-0.2,-0.2029,-0.2034,-0.2041,-0.2126,-0.209,-0.2116,-0.2136,-0.4723,-0.665,-0.6803,-0.956,-1.1531,-1.1877,-1.2047,-1.2155,-1.221,-1.2345,-1.2433,-1.2433,-1.2474,-1.2501,-1.2501,-1.2501,-1.2501,-1.2501,-1.2501,-1.2501,-1.2501,-1.2501,-1.2501,-1.2494,-1.2505,-1.2608,-1.2721,-1.303,-1.3302,-1.3411,-1.3785,-1.3904,-1.3904,-1.3904,-1.3904,-1.3896,-1.3839,-1.3774,-1.3693,-1.3457,-1.3368,-1.3368,-1.3368,-1.3368,-1.336,-1.3295,-1.3279,-1.3262,-1.3206,-1.3189,-1.3189,-1.3189,-1.3189,-1.3189,-1.3189,-1.3238,-1.3279,-1.3279,-1.3327,-1.3368,-1.3368,-1.3474,-1.3555,-1.3555,-1.3644,-1.3725,-1.3725,-1.3522,-1.3368,-1.3368,-1.3368,-1.3368,-1.3368,-1.3368,-1.3368,-1.3368,-1.3368,-1.3368,-1.3368,-1.3368,-1.3368,-1.3368,-1.3311,-1.3279,-1.3279,-1.3222,-1.3189,-1.3189,-1.3246,-1.2938,-1.2179,-1.0711,-0.9625,-0.1921,-0.1947,-0.1977,-0.1977,-0.1977,-0.1977,-0.1977,-0.1977,-0.1979,-0.1989,-0.1984,-0.1989,-0.2027,-0.2034,-0.2045,-0.2075,-0.2106,-0.2136,-0.2166,-0.4771,-0.6777,-0.6894,-0.9581,-1.1626,-1.2026,-1.2203,-1.2311,-1.2366,-1.2447,-1.2501,-1.2501,-1.2501,-1.2501,-1.2501,-1.2501,-1.2501,-1.2501,-1.2501,-1.2501,-1.2501,-1.2501,-1.2551,-1.2657,-1.2706,-1.2806,-1.3022,-1.3301,-1.3527,-1.3634,-1.3785,-1.3904,-1.3904,-1.3904,-1.3904,-1.3904,-1.3904,-1.3904,-1.3872,-1.3644,-1.3563,-1.3563,-1.3563,-1.3563,-1.3547,-1.349,-1.3465,-1.3457,-1.3392,-1.3368,-1.3368,-1.3368,-1.3368,-1.3368,-1.3368,-1.3425,-1.3465,-1.3465,-1.3514,-1.3563,-1.3563,-1.366,-1.3734,-1.3734,-1.3831,-1.3904,-1.3904,-1.3709,-1.3563,-1.3563,-1.3563,-1.3563,-1.3563,-1.3563,-1.3563,-1.3563,-1.3563,-1.3563,-1.3563,-1.3563,-1.3563,-1.3563,-1.3498,-1.3465,-1.3465,-1.3401,-1.3368,-1.3368,-1.3433,-1.312,-1.2427,-1.1287,-1.0187,-0.1969,-0.1977,-0.1977,-0.1977,-0.1977,-0.1977,-0.1978,-0.1978,-0.1986,-0.2012,-0.1997,-0.1996,-0.2052,-0.2127,-0.2074,-0.2105,-0.2136,-0.2168,-0.2198,-0.4806,-0.6789,-0.6906,-0.9666,-1.1748,-1.2047,-1.2203,-1.2345,-1.2488,-1.2501,-1.2501,-1.2501,-1.2501,-1.2501,-1.2501,-1.2501,-1.2501,-1.2501,-1.2501,-1.2501,-1.2501,-1.2501,-1.2664,-1.2913,-1.3271,-1.3559,-1.378,-1.405,-1.4188,-1.4164,-1.3985,-1.3912,-1.3904,-1.3904,-1.3904,-1.3904,-1.3904,-1.3904,-1.3904,-1.3904,-1.3904,-1.3904,-1.3904,-1.3904,-1.3872,-1.3639,-1.359,-1.362,-1.3449,-1.3401,-1.3401,-1.3401,-1.3401,-1.3401,-1.3401,-1.353,-1.359,-1.359,-1.3782,-1.3904,-1.3904,-1.3904,-1.3904,-1.3904,-1.3904,-1.3904,-1.3904,-1.3904,-1.3904,-1.3904,-1.3904,-1.3904,-1.3904,-1.3904,-1.3904,-1.3904,-1.3904,-1.3904,-1.3904,-1.3904,-1.3904,-1.3904,-1.3742,-1.359,-1.359,-1.349,-1.3401,-1.3401,-1.3571,-1.359,-1.359,-1.2607,-1.1527,-0.1974,-0.1977,-0.1977,-0.1977,-0.1977,-0.1982,-0.2003,-0.2008,-0.2009,-0.2018,-0.2012,-0.2012,-0.2027,-0.2049,-0.2074,-0.2105,-0.2154,-0.2199,-0.223,-0.4914,-0.691,-0.7092,-0.9843,-1.1898,-1.2203,-1.2271,-1.2345,-1.2488,-1.2501,-1.2501,-1.2501,-1.2501,-1.2501,-1.2501,-1.2501,-1.2501,-1.2501,-1.2501,-1.2501,-1.2501,-1.2501,-1.2558,-1.2594,-1.2934,-1.3242,-1.3574,-1.3854,-1.4074,-1.4172,-1.4123,-1.4026,-1.3904,-1.3904,-1.3904,-1.3904,-1.3904,-1.3904,-1.3904,-1.3904,-1.3904,-1.3904,-1.3904,-1.3904,-1.3896,-1.3847,-1.3831,-1.3823,-1.3782,-1.3766,-1.3766,-1.3766,-1.3766,-1.3766,-1.3766,-1.3798,-1.3831,-1.3831,-1.3872,-1.3904,-1.3904,-1.3904,-1.3904,-1.3904,-1.3904,-1.3904,-1.3904,-1.3904,-1.3904,-1.3904,-1.3904,-1.3904,-1.3904,-1.3904,-1.3904,-1.3904,-1.3904,-1.3904,-1.3904,-1.3904,-1.3904,-1.3904,-1.3855,-1.3831,-1.3831,-1.379,-1.3766,-1.3766,-1.3815,-1.3831,-1.3768,-1.2731,-1.1527,-0.1992,-0.1986,-0.1979,-0.1992,-0.1994,-0.1996,-0.1999,-0.2009,-0.2015,-0.2003,-0.1989,-0.1988,-0.2014,-0.2033,-0.2059,-0.2102,-0.2161,-0.221,-0.2171,-0.4885,-0.6964,-0.7104,-0.9877,-1.1925,-1.2169,-1.225,-1.2345,-1.2488,-1.2501,-1.2501,-1.2501,-1.2501,-1.2501,-1.2501,-1.2501,-1.2501,-1.2501,-1.2501,-1.2501,-1.2501,-1.2501,-1.2544,-1.2713,-1.3003,-1.3334,-1.3572,-1.3916,-1.4075,-1.4058,-1.4058,-1.3993,-1.3904,-1.3904,-1.3904,-1.3904,-1.3904,-1.3904,-1.3904,-1.3904,-1.3904,-1.3904,-1.3904,-1.3904,-1.3904,-1.3904,-1.3904,-1.3904,-1.3904,-1.3904,-1.3904,-1.3904,-1.3904,-1.3904,-1.3904,-1.3904,-1.3904,-1.3904,-1.3904,-1.3904,-1.3904,-1.3904,-1.3904,-1.3904,-1.3904,-1.3904,-1.3904,-1.3904,-1.3904,-1.3904,-1.3904,-1.3904,-1.3904,-1.3904,-1.3904,-1.3904,-1.3904,-1.3904,-1.3904,-1.3904,-1.3904,-1.3904,-1.3904,-1.3904,-1.3904,-1.3904,-1.3904,-1.3904,-1.3904,-1.3904,-1.3904,-1.3253,-1.2029,-0.2011,-0.1997,-0.1984,-0.2011,-0.2019,-0.2012,-0.1988,-0.2004,-0.2015,-0.1984,-0.1955,-0.1951,-0.1999,-0.2007,-0.2027,-0.2093,-0.2151,-0.227,-0.2518,-0.5023,-0.7023,-0.7268,-1.0006,-1.1925,-1.2081,-1.223,-1.2372,-1.2494,-1.2501,-1.2501,-1.2501,-1.2501,-1.2501,-1.2501,-1.2501,-1.2501,-1.2501,-1.2501,-1.2501,-1.2501,-1.2501,-1.2587,-1.2851,-1.3278,-1.3559,-1.3579,-1.4075,-1.4107,-1.3937,-1.3937,-1.392,-1.3904,-1.3904,-1.3904,-1.3904,-1.3904,-1.3904,-1.3904,-1.3904,-1.3904,-1.3904,-1.3904,-1.3904,-1.3904,-1.3904,-1.3904,-1.3904,-1.3904,-1.3904,-1.3904,-1.3904,-1.3904,-1.3904,-1.3904,-1.3904,-1.3904,-1.3904,-1.3904,-1.3904,-1.3904,-1.3904,-1.3904,-1.3904,-1.3904,-1.3904,-1.3904,-1.3904,-1.3904,-1.3904,-1.3904,-1.3904,-1.3904,-1.3904,-1.3904,-1.3904,-1.3904,-1.3904,-1.3904,-1.3904,-1.3904,-1.3904,-1.3904,-1.3904,-1.3904,-1.3904,-1.3904,-1.3904,-1.3904,-1.3904,-1.3904,-1.3904,-1.261,-0.2011,-0.1997,-0.1984,-0.2011,-0.2019,-0.2018,-0.2012,-0.2034,-0.2041,-0.1988,-0.1973,-0.1964,-0.1949,-0.1947,-0.1974,-0.2059,-0.2102,-0.2622,-0.3969,-0.5729,-0.7406,-0.8899,-1.081,-1.2081,-1.2237,-1.2379,-1.2474,-1.2501,-1.2501,-1.2501,-1.2501,-1.2501,-1.2501,-1.2501,-1.2501,-1.2501,-1.2501,-1.2501,-1.2501,-1.2501,-1.2501,-1.2488,-1.2615,-1.3246,-1.3536,-1.3552,-1.4151,-1.4286,-1.4131,-1.4131,-1.4042,-1.3904,-1.3904,-1.3904,-1.3904,-1.3904,-1.3904,-1.3904,-1.3904,-1.3904,-1.3904,-1.3904,-1.3904,-1.3904,-1.3904,-1.3904,-1.3904,-1.3904,-1.3904,-1.3904,-1.3904,-1.3904,-1.3904,-1.3904,-1.3904,-1.3904,-1.3904,-1.3904,-1.3904,-1.3904,-1.3904,-1.3904,-1.3904,-1.3904,-1.3904,-1.3904,-1.3904,-1.3904,-1.3904,-1.3904,-1.3904,-1.3904,-1.3904,-1.3904,-1.3904,-1.3904,-1.3904,-1.3904,-1.3904,-1.3904,-1.3904,-1.3904,-1.3904,-1.3904,-1.3904,-1.3904,-1.3904,-1.3904,-1.3904,-1.3904,-1.3904,-1.261,-0.203,-0.2009,-0.199,-0.205,-0.2053,-0.2038,-0.2022,-0.203,-0.2023,-0.1964,-0.1928,-0.1906,-0.1907,-0.1907,-0.1926,-0.1985,-0.206,-0.2395,-0.3211,-0.5401,-0.7267,-0.8191,-1.0545,-1.2121,-1.2277,-1.242,-1.2501,-1.2501,-1.2501,-1.2501,-1.2501,-1.2501,-1.2501,-1.2501,-1.2501,-1.2501,-1.2501,-1.2501,-1.2501,-1.2501,-1.2501,-1.2461,-1.2386,-1.292,-1.3244,-1.3304,-1.3745,-1.3978,-1.4034,-1.4034,-1.3985,-1.3904,-1.3904,-1.3904,-1.3904,-1.3904,-1.3904,-1.3904,-1.3904,-1.3904,-1.3904,-1.3904,-1.3904,-1.3904,-1.3904,-1.3904,-1.3904,-1.3904,-1.3904,-1.3904,-1.3904,-1.3904,-1.3904,-1.3904,-1.3904,-1.3904,-1.3904,-1.3904,-1.3904,-1.3904,-1.3904,-1.3904,-1.3904,-1.3904,-1.3904,-1.3904,-1.3904,-1.3904,-1.3904,-1.3904,-1.3904,-1.3904,-1.3904,-1.3904,-1.3904,-1.3904,-1.3904,-1.3904,-1.3904,-1.3904,-1.3904,-1.3904,-1.3904,-1.3904,-1.3904,-1.3904,-1.3904,-1.3904,-1.3904,-1.3904,-1.3904,-1.261,-0.2039,-0.202,-0.2004,-0.208,-0.2087,-0.2063,-0.2019,-0.2014,-0.1994,-0.191,-0.1854,-0.1824,-0.1836,-0.1849,-0.1869,-0.1906,-0.2007,-0.2226,-0.2605,-0.5112,-0.7077,-0.7672,-1.0322,-1.2135,-1.2318,-1.2433,-1.2501,-1.2501,-1.2501,-1.2501,-1.2501,-1.2501,-1.2501,-1.2501,-1.2501,-1.2501,-1.2501,-1.2501,-1.2501,-1.2501,-1.2501,-1.244,-1.2332,-1.2754,-1.2899,-1.303,-1.3402,-1.3657,-1.381,-1.3849,-1.3904,-1.3904,-1.3904,-1.3904,-1.3904,-1.3904,-1.3904,-1.3904,-1.3904,-1.3904,-1.3904,-1.3904,-1.3904,-1.3904,-1.3904,-1.3904,-1.3904,-1.3904,-1.3904,-1.3904,-1.3904,-1.3904,-1.3904,-1.3904,-1.3904,-1.3904,-1.3904,-1.3904,-1.3904,-1.3904,-1.3904,-1.3904,-1.3904,-1.3904,-1.3904,-1.3904,-1.3904,-1.3904,-1.3904,-1.3904,-1.3904,-1.3904,-1.3904,-1.3904,-1.3904,-1.3904,-1.3904,-1.3904,-1.3904,-1.3904,-1.3904,-1.3904,-1.3904,-1.3904,-1.3904,-1.3904,-1.3904,-1.3904,-1.3904,-1.3904,-1.3904,-1.2753,-0.2015,-0.2019,-0.2023,-0.2059,-0.2087,-0.2083,-0.2,-0.2,-0.197,-0.1857,-0.1816,-0.1797,-0.1745,-0.178,-0.1836,-0.1782,-0.1928,-0.2522,-0.4,-0.5672,-0.7492,-0.9275,-1.1002,-1.2176,-1.2454,-1.2494,-1.2501,-1.2501,-1.2501,-1.2501,-1.2501,-1.2501,-1.2501,-1.2501,-1.2501,-1.2501,-1.2501,-1.2501,-1.2501,-1.2501,-1.2501,-1.2494,-1.2474,-1.281,-1.2877,-1.2896,-1.3428,-1.3582,0.0,-1.3826,-1.3904,-1.3904,-1.3904,-1.3904,-1.3904,-1.3904,-1.3904,-1.3904,-1.3904,-1.3904,-1.3904,-1.3904,-1.3904,-1.3904,-1.3904,-1.3904,-1.3904,-1.3904,-1.3904,-1.3904,-1.3904,-1.3904,-1.3904,-1.3904,-1.3904,-1.3904,-1.3904,-1.3904,-1.3904,-1.3904,-1.3904,-1.3904,-1.3904,-1.3904,-1.3904,-1.3904,-1.3904,-1.3904,-1.3904,-1.3904,-1.3904,-1.3904,-1.3904,-1.3904,-1.3904,-1.3904,-1.3904,-1.3904,-1.3904,-1.3904,-1.3904,-1.3904,-1.3904,-1.3904,-1.3904,-1.3904,-1.3904,-1.3904,-1.3904,-1.3904,-1.3904,-1.3253,-0.2011,-0.2031,-0.2053,-0.2083,-0.206,-0.202,-0.1985,-0.1914,-0.1831,-0.1741,-0.1732,-0.1693,-0.1636,-0.1721,-0.1764,-0.1752,-0.1866,-0.2165,-0.2908,-0.4423,-0.6166,-0.8104,-0.9692,-1.1107,-1.2397,-1.2501,-1.2501,-1.2501,-1.2501,-1.2501,-1.2501,-1.2501,-1.2501,-1.2501,-1.2501,-1.2501,-1.2501,-1.2501,-1.2501,-1.2501,-1.2501,-1.2461,-1.2372,-1.2471,-1.2615,-1.2735,-1.2809,-1.3152,0.0,-1.3546,-1.3682,-1.3904,-1.3904,-1.3904,-1.3904,-1.3904,-1.3904,-1.3904,-1.3904,-1.3904,-1.3904,-1.3904,-1.3904,-1.3904,-1.3904,-1.3904,-1.3904,-1.3904,-1.3904,-1.3904,-1.3904,-1.3904,-1.3904,-1.3904,-1.3904,-1.3904,-1.3904,-1.3904,-1.3904,-1.3904,-1.3904,-1.3904,-1.3904,-1.3904,-1.3904,-1.3904,-1.3904,-1.3904,-1.3904,-1.3904,-1.3904,-1.3904,-1.3904,-1.3904,-1.3904,-1.3904,-1.3904,-1.3904,-1.3904,-1.3904,-1.3904,-1.3904,-1.3904,-1.3904,-1.3904,-1.3904,-1.3904,-1.3904,-1.3904,-1.3904,-1.3904,-1.3253,-0.2011,-0.2048,-0.2082,-0.2104,-0.2049,-0.1985,-0.1967,-0.1911,-0.1788,-0.1677,-0.1607,-0.1565,-0.1585,-0.1622,-0.166,-0.1699,-0.1824,-0.1943,-0.2015,-0.3424,-0.5197,-0.7145,-0.8731,-1.0457,-1.2313,-1.2501,-1.2501,-1.2501,-1.2501,-1.2501,-1.2501,-1.2501,-1.2501,-1.2501,-1.2501,-1.2501,-1.2501,-1.2501,-1.2501,-1.2501,-1.2501,-1.2447,-1.2352,-1.2352,-1.2443,-1.2559,-1.2504,-1.2861,0.0,-1.3346,-1.3539,-1.3904,-1.3904,-1.3904,-1.3904,-1.3904,-1.3904,-1.3904,-1.3904,-1.3904,-1.3904,-1.3904,-1.3904,-1.3904,-1.3904,-1.3904,-1.3904,-1.3904,-1.3904,-1.3904,-1.3904,-1.3904,-1.3904,-1.3904,-1.3904,-1.3904,-1.3904,-1.3904,-1.3904,-1.3904,-1.3904,-1.3904,-1.3904,-1.3904,-1.3904,-1.3904,-1.3904,-1.3904,-1.3904,-1.3904,-1.3904,-1.3904,-1.3904,-1.3904,-1.3904,-1.3904,-1.3904,-1.3904,-1.3904,-1.3904,-1.3904,-1.3904,-1.3904,-1.3904,-1.3904,-1.3904,-1.3904,-1.3904,-1.3904,-1.3904,-1.3904,-1.3111,-0.2011,-0.2063,-0.2109,-0.2109,-0.2063,-0.2003,-0.1945,-0.1838,-0.177,-0.1648,-0.1549,-0.1479,-0.1479,-0.1576,-0.1636,-0.1695,-0.1806,-0.1896,-0.1928,-0.3365,-0.5104,-0.7081,-0.8744,-1.0443,-1.23,-1.2501,-1.2501,-1.2501,-1.2501,-1.2501,-1.2501,-1.2501,-1.2501,-1.2501,-1.2501,-1.2501,-1.2501,-1.2501,-1.2501,-1.2501,-1.2501,-1.2501,-1.2501,-1.2501,-1.2501,-1.2481,-1.2559,-1.2806,0.0,-1.3248,-1.3539,-1.3904,-1.3904,-1.3904,-1.3904,-1.3904,-1.3904,-1.3904,-1.3904,-1.3904,-1.3904,-1.3904,-1.3904,-1.3904,-1.3904,-1.3904,-1.3904,-1.3904,-1.3904,-1.3904,-1.3904,-1.3904,-1.3904,-1.3904,-1.3904,-1.3904,-1.3904,-1.3904,-1.3904,-1.3904,-1.3904,-1.3904,-1.3904,-1.3904,-1.3904,-1.3904,-1.3904,-1.3904,-1.3904,-1.3904,-1.3904,-1.3904,-1.3904,-1.3904,-1.3904,-1.3904,-1.3904,-1.3904,-1.3904,-1.3904,-1.3904,-1.3904,-1.3904,-1.3904,-1.3904,-1.3904,-1.3904,-1.3904,-1.3904,-1.3904,-1.3904,-1.2681,-0.1925,-0.1986,-0.2038,-0.1997,-0.1926,-0.185,-0.179,-0.1684,-0.158,-0.1521,-0.1485,-0.143,-0.1471,-0.1576,-0.165,-0.175,-0.1834,-0.1918,-0.2009,-0.2547,-0.3546,-0.5388,-0.8169,-1.0573,-1.2333,-1.2501,-1.2501,-1.2501,-1.2501,-1.2501,-1.2501,-1.2501,-1.2501,-1.2501,-1.2501,-1.2501,-1.2501,-1.2501,-1.2501,-1.2501,-1.2501,-1.2501,-1.2501,-1.2501,-1.2501,-1.2488,-1.234,-1.2582,-1.3156,-1.3039,-1.3325,-1.3904,-1.3904,-1.3904,-1.3904,-1.3904,-1.3904,-1.3904,-1.3904,-1.3904,-1.3904,-1.3904,-1.3904,-1.3904,-1.3904,-1.3904,-1.3904,-1.3904,-1.3904,-1.3904,-1.3904,-1.3904,-1.3904,-1.3904,-1.3904,-1.3904,-1.3904,-1.3904,-1.3904,-1.3904,-1.3904,-1.3904,-1.3904,-1.3904,-1.3904,-1.3904,-1.3904,-1.3904,-1.3904,-1.3904,-1.3904,-1.3904,-1.3904,-1.3904,-1.3904,-1.3904,-1.3904,-1.3904,-1.3904,-1.3904,-1.3904,-1.3904,-1.3904,-1.3904,-1.3904,-1.3904,-1.3904,-1.3904,-1.3904,-1.3904,-1.3111,-1.1893,-0.1857,-0.1918,-0.196,-0.1924,-0.1846,-0.1765,-0.1715,-0.1611,-0.1517,-0.1487,-0.1456,-0.1412,-0.153,-0.1594,-0.1669,-0.1778,-0.1865,-0.1945,-0.202,-0.2168,-0.2815,-0.4557,-0.7898,-1.038,-1.1491,-1.2159,-1.2501,-1.2501,-1.2501,-1.2501,-1.2501,-1.2501,-1.2501,-1.2501,-1.2501,-1.2501,-1.2501,-1.2501,-1.2501,-1.2501,-1.2501,-1.2501,-1.2501,-1.2501,-1.2474,-1.2406,-1.2169,-1.2473,0.0,-1.2865,-1.3253,-1.3904,-1.3904,-1.3904,-1.3904,-1.3904,-1.3904,-1.3904,-1.3904,-1.3904,-1.3904,-1.3904,-1.3904,-1.3904,-1.3904,-1.3904,-1.3904,-1.3904,-1.3904,-1.3904,-1.3904,-1.3904,-1.3904,-1.3904,-1.3904,-1.3904,-1.3904,-1.3904,-1.3904,-1.3904,-1.3904,-1.3904,-1.3904,-1.3904,-1.3904,-1.3904,-1.3904,-1.3904,-1.3904,-1.3904,-1.3904,-1.3904,-1.3904,-1.3904,-1.3904,-1.3904,-1.3904,-1.3904,-1.3904,-1.3904,-1.3904,-1.3904,-1.3904,-1.3904,-1.3904,-1.3904,-1.3904,-1.3904,-1.3682,-1.3253,-1.2036,-1.0881,0.0,-0.185,-0.1879,-0.1877,-0.1867,-0.1792,-0.1705,-0.1613,0.0,-0.1495,-0.1468,-0.1475,-0.1562,-0.1679,-0.1752,-0.179,-0.1902,-0.1979,-0.1988,-0.2158,-0.2829,-0.4565,-0.7751,-0.9882,-0.9993,-1.1484,-1.2501,-1.2501,-1.2501,-1.2501,-1.2501,-1.2501,-1.2501,-1.2501,-1.2501,-1.2501,-1.2501,-1.2501,-1.2501,-1.2501,-1.2501,-1.2501,-1.2501,-1.2488,-1.2413,-1.2284,-1.2115,-1.2409,-1.2918,-1.282,-1.3253,-1.3833,-1.3904,-1.3904,-1.3904,-1.3904,-1.3904,-1.3904,-1.3904,-1.3904,-1.3904,-1.3904,-1.3904,-1.3904,-1.3904,-1.3904,-1.3904,-1.3904,-1.3904,-1.3904,-1.3904,-1.3904,-1.3904,-1.3904,-1.3904,-1.3904,-1.3904,-1.3904,-1.3904,-1.3904,-1.3904,-1.3904,-1.3904,-1.3904,-1.3904,-1.3904,-1.3904,-1.3904,-1.3904,-1.3904,-1.3904,-1.3904,-1.3904,-1.3904,-1.3904,-1.3904,-1.3904,-1.3904,-1.3904,-1.3904,-1.3904,-1.3904,-1.3904,-1.3904,-1.3904,-1.3904,-1.3904,-1.3904,-1.3325,-1.218,-1.0953,-0.9801,-0.1626,0.0,-0.181,-0.1843,-0.1748,-0.1701,0.0,-0.1615,-0.1594,-0.1587,-0.1579,-0.1588,-0.1684,-0.1742,-0.1822,-0.188,-0.1943,-0.2008,-0.2165,-0.2215,-0.2958,-0.4643,-0.6804,-0.8566,-0.984,-1.1484,-1.2501,-1.2501,-1.2501,-1.2501,-1.2501,-1.2501,-1.2501,-1.2501,-1.2501,-1.2501,-1.2501,-1.2501,-1.2501,-1.2501,-1.2501,-1.2501,-1.2501,-1.2386,-1.2325,-1.2277,-1.1999,-1.2157,-1.2554,-1.2748,-1.3039,-1.3468,-1.3761,-1.3904,-1.3904,-1.3904,-1.3904,-1.3904,-1.3904,-1.3904,-1.3904,-1.3904,-1.3904,-1.3904,-1.3904,-1.3904,-1.3904,-1.3904,-1.3904,-1.3904,-1.3904,-1.3904,-1.3904,-1.3904,-1.3904,-1.3904,-1.3904,-1.3904,-1.3904,-1.3904,-1.3904,-1.3904,-1.3904,-1.3904,-1.3904,-1.3904,-1.3904,-1.3904,-1.3904,-1.3904,-1.3904,-1.3904,-1.3904,-1.3904,-1.3904,-1.3904,-1.3904,-1.3904,-1.3904,-1.3904,-1.3904,-1.3904,-1.3904,-1.3904,-1.3904,-1.3904,-1.3904,-1.3904,-1.3325,-1.218,-1.0953,-0.9801,-0.1584,-0.1662,-0.173,-0.1767,-0.1707,-0.1693,-0.1648,-0.1637,-0.1633,-0.162,-0.1628,-0.1651,-0.1747,-0.1774,-0.1859,-0.1939,-0.2023,-0.2116,-0.2222,-0.2281,-0.2625,-0.366,-0.5278,-0.7046,-0.8683,-1.04,-1.1643,-1.2424,-1.2501,-1.2501,-1.2501,-1.2501,-1.2501,-1.2501,-1.2501,-1.2501,-1.2501,-1.2501,-1.2501,-1.2501,-1.2501,-1.2467,-1.24,-1.2325,-1.221,-1.2067,-1.1904,-1.2015,-1.2308,-1.2647,-1.2968,-1.3325,-1.3761,-1.3904,-1.3904,-1.3904,-1.3904,-1.3904,-1.3904,-1.3904,-1.3904,-1.3904,-1.3904,-1.3904,-1.3904,-1.3904,-1.3904,-1.3904,-1.3904,-1.3904,-1.3904,-1.3904,-1.3904,-1.3904,-1.3904,-1.3904,-1.3904,-1.3904,-1.3904,-1.3904,-1.3904,-1.3904,-1.3904,-1.3904,-1.3904,-1.3904,-1.3904,-1.3904,-1.3904,-1.3904,-1.3904,-1.3904,-1.3904,-1.3904,-1.3904,-1.3904,-1.3904,-1.3904,-1.3904,-1.3904,-1.3904,-1.3904,-1.3904,-1.3904,-1.3904,-1.3904,-1.3904,-1.3904,-1.3325,-1.218,-1.1527,-1.0305,-0.1606,-0.1652,-0.1732,-0.1718,-0.169,-0.1711,-0.1735,-0.1735,-0.1684,-0.1662,-0.1678,-0.1766,-0.1822,-0.1865,-0.1949,-0.1984,-0.2112,-0.2236,-0.232,-0.232,-0.2339,-0.2414,-0.3905,-0.5547,-0.6995,-0.8852,-1.0552,-1.203,-1.2347,-1.2501,-1.2501,-1.2501,-1.2501,-1.2501,-1.2501,-1.2501,-1.2501,-1.2501,-1.2501,-1.2501,-1.2481,-1.2406,-1.2291,-1.2244,-1.2081,-1.183,-1.1809,0.0,-1.2122,-1.2545,-1.2896,-1.3253,-1.3682,-1.3833,-1.3904,-1.3904,-1.3904,-1.3904,-1.3904,-1.3904,-1.3904,-1.3904,-1.3904,-1.3904,-1.3904,-1.3904,-1.3904,-1.3904,-1.3904,-1.3904,-1.3904,-1.3904,-1.3904,-1.3904,-1.3904,-1.3904,-1.3904,-1.3904,-1.3904,-1.3904,-1.3904,-1.3904,-1.3904,-1.3904,-1.3904,-1.3904,-1.3904,-1.3904,-1.3904,-1.3904,-1.3904,-1.3904,-1.3904,-1.3904,-1.3904,-1.3904,-1.3904,-1.3904,-1.3904,-1.3904,-1.3904,-1.3904,-1.3904,-1.3904,-1.3904,-1.3904,-1.3904,-1.3904,-1.3325,-1.218,-1.2036,-1.0737,-0.1632,-0.1714,-0.1756,-0.1733,-0.1722,-0.1774,-0.1798,-0.1776,-0.1819,-0.184,-0.1849,-0.1862,-0.1896,-0.194,-0.1988,-0.2106,-0.2157,-0.219,-0.2324,-0.2373,-0.2408,-0.2421,-0.3934,-0.5134,-0.5388,-0.8152,-1.0086,-1.0397,-1.1721,-1.2501,-1.2501,-1.2501,-1.2501,-1.2501,-1.2501,-1.2501,-1.2501,-1.2501,-1.2501,-1.2501,-1.2379,-1.2311,-1.2284,-1.202,-1.1877,-1.1823,0.0,-1.164,-1.1691,-1.2122,-1.2545,-1.2896,-1.3253,-1.3611,-1.3904,-1.3904,-1.3904,-1.3904,-1.3904,-1.3904,-1.3904,-1.3904,-1.3904,-1.3904,-1.3904,-1.3904,-1.3904,-1.3904,-1.3904,-1.3904,-1.3904,-1.3904,-1.3904,-1.3904,-1.3904,-1.3904,-1.3904,-1.3904,-1.3904,-1.3904,-1.3904,-1.3904,-1.3904,-1.3904,-1.3904,-1.3904,-1.3904,-1.3904,-1.3904,-1.3904,-1.3904,-1.3904,-1.3904,-1.3904,-1.3904,-1.3904,-1.3904,-1.3904,-1.3904,-1.3904,-1.3904,-1.3904,-1.3904,-1.3904,-1.3904,-1.3904,-1.3904,-1.3904,-1.3325,-1.218,-1.1168,-0.9945,-0.1693,-0.1727,-0.1785,-0.1745,-0.1814,-0.1894,-0.1895,-0.1904,-0.1913,-0.1911,-0.1924,-0.1939,-0.1954,-0.1993,-0.2054,-0.2147,-0.2222,-0.2296,-0.2371,-0.2391,-0.2417,-0.2466,-0.3179,-0.4039,-0.4895,-0.7178,-0.8993,-0.9931,-1.1566,-1.2501,-1.2501,-1.2501,-1.2501,-1.2501,-1.2501,-1.2501,-1.2501,-1.2501,-1.2501,-1.2501,-1.2359,-1.2244,-1.2155,-1.1932,-1.1789,-1.1714,0.0,-1.1619,-1.1619,-1.2051,-1.2402,-1.2824,-1.3182,-1.3539,-1.3904,-1.3904,-1.3904,-1.3904,-1.3904,-1.3904,-1.3904,-1.3904,-1.3904,-1.3904,-1.3904,-1.3904,-1.3904,-1.3904,-1.3904,-1.3904,-1.3904,-1.3904,-1.3904,-1.3904,-1.3904,-1.3904,-1.3904,-1.3904,-1.3904,-1.3904,-1.3904,-1.3904,-1.3904,-1.3904,-1.3904,-1.3904,-1.3904,-1.3904,-1.3904,-1.3904,-1.3904,-1.3904,-1.3904,-1.3904,-1.3904,-1.3904,-1.3904,-1.3904,-1.3904,-1.3904,-1.3904,-1.3904,-1.3904,-1.3904,-1.3904,-1.3904,-1.3904,-1.3904,-1.3325,-1.218,-1.1599,-1.0377,-0.1725,-0.1748,-0.1814,-0.1849,-0.1913,-0.1974,-0.2003,-0.1997,-0.1982,-0.1966,-0.1981,-0.2001,-0.2016,-0.2067,-0.2142,-0.2178,-0.2286,-0.2333,-0.2421,-0.2414,-0.2428,-0.2506,-0.2493,-0.3032,-0.4307,-0.5952,-0.7591,-0.9304,-1.094,-1.2114,-1.2501,-1.2501,-1.2501,-1.2501,-1.2501,-1.2501,-1.2501,-1.2501,-1.2488,-1.2447,-1.2305,-1.2155,-1.2006,-1.185,-1.1721,-1.1619,-1.1619,-1.1619,-1.1619,-1.1907,-1.233,-1.2681,-1.3039,-1.3468,-1.3904,-1.3904,-1.3904,-1.3904,-1.3904,-1.3904,-1.3904,-1.3904,-1.3904,-1.3904,-1.3904,-1.3904,-1.3904,-1.3904,-1.3904,-1.3904,-1.3904,-1.3904,-1.3904,-1.3904,-1.3904,-1.3904,-1.3904,-1.3904,-1.3904,-1.3904,-1.3904,-1.3904,-1.3904,-1.3904,-1.3904,-1.3904,-1.3904,-1.3904,-1.3904,-1.3904,-1.3904,-1.3904,-1.3904,-1.3904,-1.3904,-1.3904,-1.3904,-1.3904,-1.3904,-1.3904,-1.3904,-1.3904,-1.3904,-1.3904,-1.3904,-1.3904,-1.3904,-1.3611,-1.3039,-1.218,-1.1671,-1.0443,-0.1755,-0.181,-0.187,-0.2009,-0.1989,-0.1943,-0.1973,-0.1999,-0.2023,-0.2049,-0.212,-0.214,-0.2197,-0.2191,-0.2183,-0.2316,-0.2328,-0.2361,-0.2453,-0.2463,-0.2476,-0.251,-0.2512,-0.2512,-0.2671,-0.4234,-0.5874,-0.7591,-0.9226,-1.0862,-1.2424,-1.2501,-1.2501,-1.2501,-1.2501,-1.2501,-1.2501,-1.2501,-1.2433,-1.2305,-1.2149,-1.1999,-1.1843,-1.1701,-1.1626,-1.1619,-1.1619,-1.1619,-1.1619,-1.1619,-1.1907,-1.2266,-1.2681,-1.3253,-1.3904,-1.3904,-1.3904,-1.3904,-1.3904,-1.3904,-1.3904,-1.3904,-1.3904,-1.3904,-1.3904,-1.3904,-1.3904,-1.3904,-1.3904,-1.3904,-1.3904,-1.3904,-1.3904,-1.3904,-1.3904,-1.3904,-1.3904,-1.3904,-1.3904,-1.3904,-1.3904,-1.3904,-1.3904,-1.3904,-1.3904,-1.3904,-1.3904,-1.3904,-1.3904,-1.3904,-1.3904,-1.3904,-1.3904,-1.3904,-1.3904,-1.3904,-1.3904,-1.3904,-1.3904,-1.3904,-1.3904,-1.3904,-1.3904,-1.3904,-1.3904,-1.3904,-1.3904,-1.2824,-1.2252,-1.218,-0.9939,-0.8858,-0.1795,-0.1873,-0.1948,-0.2041,-0.2024,-0.2004,-0.2072,-0.2067,-0.2061,-0.2176,-0.2186,-0.22,-0.2176,-0.2247,-0.2235,-0.233,-0.238,-0.2429,-0.2463,-0.2485,-0.2502,-0.2512,-0.2514,-0.2514,-0.2514,-0.3999,-0.5717,-0.7357,-0.9071,-1.0707,-1.2424,-1.2501,-1.2501,-1.2501,-1.2501,-1.2501,-1.2501,-1.2501,-1.2379,-1.2149,-1.2088,-1.1979,-1.1823,-1.1687,-1.1619,-1.1619,-1.1619,-1.1619,-1.1619,-1.1619,-1.1972,-1.2617,-1.3261,-1.3682,-1.3904,-1.3904,-1.3904,-1.3904,-1.3904,-1.3904,-1.3904,-1.3904,-1.3904,-1.3904,-1.3904,-1.3904,-1.3904,-1.3904,-1.3904,-1.3904,-1.3904,-1.3904,-1.3904,-1.3904,-1.3904,-1.3904,-1.3904,-1.3904,-1.3904,-1.3904,-1.3904,-1.3904,-1.3904,-1.3904,-1.3904,-1.3904,-1.3904,-1.3904,-1.3904,-1.3904,-1.3904,-1.3904,-1.3904,-1.3904,-1.3904,-1.3904,-1.3904,-1.3904,-1.3904,-1.3904,-1.3904,-1.3904,-1.3904,-1.3904,-1.3904,-1.3904,-1.3904,-1.2753,-1.1814,-1.1025,-0.9435,-0.8285,-0.1832,-0.1907,-0.1978,-0.2046,-0.2027,-0.2019,-0.2196,-0.218,-0.2098,-0.2169,-0.2198,-0.2217,-0.2238,-0.2307,-0.2364,-0.2375,-0.2428,-0.2473,-0.2482,-0.2502,-0.2514,-0.2514,-0.2514,-0.2514,-0.2514,-0.3531,-0.4938,-0.6577,-0.8292,-0.9931,-1.1643,-1.2192,-1.2501,-1.2501,-1.2461,-1.2433,-1.2433,-1.2386,-1.2237,-1.1986,-1.1986,-1.1911,-1.1762,-1.166,-1.1619,-1.1619,-1.1619,-1.1619,-1.1619,-1.1619,-1.2043,-1.2824,-1.3325,-1.369,-1.3904,-1.3904,-1.3904,-1.3904,-1.3904,-1.3904,-1.3904,-1.3904,-1.3904,-1.3904,-1.3904,-1.3904,-1.3904,-1.3904,-1.3904,-1.3904,-1.3904,-1.3904,-1.3904,-1.3904,-1.3904,-1.3904,-1.3904,-1.3904,-1.3904,-1.3904,-1.3904,-1.3904,-1.3904,-1.3904,-1.3904,-1.3904,-1.3904,-1.3904,-1.3904,-1.3904,-1.3904,-1.3904,-1.3904,-1.3904,-1.3904,-1.3904,-1.3904,-1.3904,-1.3904,-1.3904,-1.3904,-1.3904,-1.3904,-1.3904,-1.3904,-1.3904,-1.3904,-1.2395,-1.1247,-1.0377,-0.8863,-0.7711,-0.1869,-0.1909,-0.1954,-0.2042,-0.1999,-0.1971,-0.2121,-0.2132,-0.2135,-0.2158,-0.2221,-0.2333,-0.2334,-0.2383,-0.2433,-0.2463,-0.2469,-0.248,-0.251,-0.2514,-0.2514,-0.2514,-0.2514,-0.2514,-0.2514,-0.2514,-0.3219,-0.4857,-0.6577,-0.8214,-0.9931,-1.1566,-1.2501,-1.2501,-1.2366,-1.2291,-1.2291,-1.2142,-1.1986,-1.183,-1.183,-1.1755,-1.1619,-1.1619,-1.1619,-1.1619,-1.1619,-1.1619,-1.1619,-1.1619,-1.2043,-1.2824,-1.2824,-1.3253,-1.3904,-1.3904,-1.3904,-1.3904,-1.3904,-1.3904,-1.3904,-1.3904,-1.3904,-1.3904,-1.3904,-1.3904,-1.3904,-1.3904,-1.3904,-1.3904,-1.3904,-1.3904,-1.3904,-1.3904,-1.3904,-1.3904,-1.3904,-1.3904,-1.3904,-1.3904,-1.3904,-1.3904,-1.3904,-1.3904,-1.3904,-1.3904,-1.3904,-1.3904,-1.3904,-1.3904,-1.3904,-1.3904,-1.3904,-1.3904,-1.3904,-1.3904,-1.3904,-1.3904,-1.3904,-1.3904,-1.3904,-1.3904,-1.3904,-1.3904,-1.3904,-1.3904,-1.3904,-1.1527,-1.0377,-1.0383,-0.8073,-0.699,-0.1881,-0.1954,-0.2035,-0.2083,-0.2076,-0.2084,-0.2193,-0.2162,-0.2147,-0.2279,-0.2338,-0.2371,-0.2393,-0.2429,-0.2458,-0.2467,-0.2487,-0.2504,-0.2512,-0.2514,-0.2514,-0.2514,-0.2514,-0.2514,-0.2514,-0.2514,-0.3219,-0.4857,-0.5483,-0.6963,-0.9853,-1.0474,-1.1256,-1.2424,-1.2366,-1.2291,-1.2291,-1.2142,-1.1986,-1.183,-1.183,-1.1755,-1.1619,-1.1619,-1.1619,-1.1619,-1.1619,-1.1619,-1.1619,-1.1907,-1.233,-1.2824,-1.3039,-1.3468,-1.3904,-1.3904,-1.3904,-1.3904,-1.3904,-1.3904,-1.3904,-1.3904,-1.3904,-1.3904,-1.3904,-1.3904,-1.3904,-1.3904,-1.3904,-1.3904,-1.3904,-1.3904,-1.3904,-1.3904,-1.3904,-1.3904,-1.3904,-1.3904,-1.3904,-1.3904,-1.3904,-1.3904,-1.3904,-1.3904,-1.3904,-1.3904,-1.3904,-1.3904,-1.3904,-1.3904,-1.3904,-1.3904,-1.3904,-1.3904,-1.3904,-1.3904,-1.3904,-1.3904,-1.3904,-1.3904,-1.3904,-1.3904,-1.3904,-1.3904,-1.3904,-1.3904,-1.3904,-1.1527,-1.0377,-1.0383,-0.8073,-0.699,-0.1947,-0.2018,-0.209,-0.212,-0.2128,-0.2151,-0.2243,-0.2229,-0.2226,-0.233,-0.2375,-0.2402,-0.242,-0.2458,-0.2482,-0.2472,-0.2484,-0.25,-0.2512,-0.2504,-0.25,-0.2512,-0.2514,-0.2514,-0.2514,-0.2514,-0.2905,-0.3922,-0.4625,-0.6186,-0.8837,-0.9573,-1.0709,-1.2343,-1.2216,-1.2108,-1.2108,-1.1959,-1.1837,-1.1748,-1.1748,-1.1701,-1.1619,-1.1619,-1.1619,-1.1619,-1.1619,-1.1619,-1.1619,-1.1835,-1.2259,-1.2824,-1.3039,-1.3396,-1.3904,-1.3904,-1.3904,-1.3904,-1.3904,-1.3904,-1.3904,-1.3904,-1.3904,-1.3904,-1.3904,-1.3904,-1.3904,-1.3904,-1.3904,-1.3904,-1.3904,-1.3904,-1.3904,-1.3904,-1.3904,-1.3904,-1.3904,-1.3904,-1.3904,-1.3904,-1.3904,-1.3904,-1.3904,-1.3904,-1.3904,-1.3904,-1.3904,-1.3904,-1.3904,-1.3904,-1.3904,-1.3904,-1.3904,-1.3904,-1.3904,-1.3904,-1.3904,-1.3904,-1.3904,-1.3904,-1.3904,-1.3904,-1.3904,-1.3904,-1.3904,-1.3682,-1.3253,-1.1312,-1.0161,-0.9657,-0.7856,-0.699,-0.203,-0.208,-0.2116,-0.2143,-0.2224,-0.2187,-0.2278,-0.2319,-0.2346,-0.2376,-0.2406,-0.2428,-0.2431,-0.2477,-0.2506,-0.2477,-0.2473,-0.2482,-0.251,-0.2491,-0.2484,-0.2511,-0.2514,-0.2514,-0.2514,-0.2514,-0.2514,-0.2514,-0.3922,-0.5558,-0.7345,-0.8808,-1.0433,-1.2195,-1.1986,-1.183,-1.183,-1.1687,-1.1619,-1.1619,-1.1619,-1.1619,-1.1619,-1.1619,-1.1619,-1.1619,-1.1619,-1.1619,-1.1619,-1.1619,-1.2043,-1.2824,-1.2824,-1.3253,-1.3904,-1.3904,-1.3904,-1.3904,-1.3904,-1.3904,-1.3904,-1.3904,-1.3904,-1.3904,-1.3904,-1.3904,-1.3904,-1.3904,-1.3904,-1.3904,-1.3904,-1.3904,-1.3904,-1.3904,-1.3904,-1.3904,-1.3904,-1.3904,-1.3904,-1.3904,-1.3904,-1.3904,-1.3904,-1.3904,-1.3904,-1.3904,-1.3904,-1.3904,-1.3904,-1.3904,-1.3904,-1.3904,-1.3904,-1.3904,-1.3904,-1.3904,-1.3904,-1.3904,-1.3904,-1.3904,-1.3904,-1.3904,-1.3904,-1.3904,-1.3904,-1.3325,-1.218,-1.0953,-0.9801,-0.8641,-0.7566,-0.699,-0.1955,-0.2033,-0.211,-0.2117,-0.2173,-0.2249,-0.2339,-0.2364,-0.2378,-0.2408,-0.2438,-0.2466,-0.2491,-0.2506,-0.2512,-0.2506,-0.2504,-0.2507,-0.2514,-0.2508,-0.2507,-0.2514,-0.2514,-0.2514,-0.2514,-0.2514,-0.2514,-0.2514,-0.2828,-0.4296,-0.718,-0.7693,-0.9173,-1.204,-1.1932,-1.183,-1.183,-1.1687,-1.1619,-1.1619,-1.1619,-1.1619,-1.1619,-1.1619,-1.1619,-1.1619,-1.1619,-1.1619,-1.1619,-1.1619,-1.2043,-1.2824,-1.2824,-1.3253,-1.3904,-1.3904,-1.3904,-1.3904,-1.3904,-1.3904,-1.3904,-1.3904,-1.3904,-1.3904,-1.3904,-1.3904,-1.3904,-1.3904,-1.3904,-1.3904,-1.3904,-1.3904,-1.3904,-1.3904,-1.3904,-1.3904,-1.3904,-1.3904,-1.3904,-1.3904,-1.3904,-1.3904,-1.3904,-1.3904,-1.3904,-1.3904,-1.3904,-1.3904,-1.3904,-1.3904,-1.3904,-1.3904,-1.3904,-1.3904,-1.3904,-1.3904,-1.3904,-1.3904,-1.3904,-1.3904,-1.3904,-1.3904,-1.3904,-1.3904,-1.3904,-1.3325,-1.218,-1.0953,-0.9801,-0.8641,-0.7566,-0.699,-0.1971,-0.203,-0.2083,-0.2157,-0.2141,-0.2194,-0.2339,-0.2379,-0.2405,-0.242,-0.2447,-0.2474,-0.2489,-0.2504,-0.251,-0.2495,-0.2492,-0.2497,-0.2512,-0.2502,-0.2497,-0.2512,-0.2514,-0.2514,-0.2514,-0.2514,-0.2514,-0.2514,-0.2514,-0.3901,-0.7152,-0.7257,-0.8629,-1.1885,-1.1809,-1.1728,-1.1728,-1.1653,-1.1619,-1.1619,-1.1619,-1.1619,-1.1619,-1.1619,-1.1619,-1.1619,-1.1619,-1.1619,-1.1619,-1.1619,-1.2043,-1.2824,-1.2824,-1.3253,-1.3904,-1.3904,-1.3904,-1.3904,-1.3904,-1.3904,-1.3904,-1.3904,-1.3904,-1.3904,-1.3904,-1.3904,-1.3904,-1.3904,-1.3904,-1.3904,-1.3904,-1.3904,-1.3904,-1.3904,-1.3904,-1.3904,-1.3904,-1.3904,-1.3904,-1.3904,-1.3904,-1.3904,-1.3904,-1.3904,-1.3904,-1.3904,-1.3904,-1.3904,-1.3904,-1.3904,-1.3904,-1.3904,-1.3904,-1.3904,-1.3904,-1.3904,-1.3904,-1.3904,-1.3904,-1.3904,-1.3904,-1.3904,-1.3904,-1.3904,-1.3325,-1.2538,-1.1312,-1.0161,-0.9008,-0.7851,-0.7276,-0.699,-0.2003,-0.2049,-0.208,-0.2206,-0.2171,-0.219,-0.2319,-0.238,-0.2425,-0.2431,-0.2455,-0.2477,-0.2477,-0.2497,-0.2506,-0.2481,-0.2477,-0.2485,-0.2511,-0.2492,-0.2487,-0.2511,-0.2514,-0.2514,-0.2514,-0.2514,-0.2514,-0.2514,-0.2514,-0.3899,-0.7129,-0.7129,-0.8537,-1.1657,-1.1681,-1.1619,-1.1619,-1.1619,-1.1619,-1.1619,-1.1619,-1.1619,-1.1619,-1.1619,-1.1619,-1.1619,-1.1619,-1.1619,-1.1619,-1.1619,-1.2043,-1.2824,-1.2824,-1.3253,-1.3904,-1.3904,-1.3904,-1.3904,-1.3904,-1.3904,-1.3904,-1.3904,-1.3904,-1.3904,-1.3904,-1.3904,-1.3904,-1.3904,-1.3904,-1.3904,-1.3904,-1.3904,-1.3904,-1.3904,-1.3904,-1.3904,-1.3904,-1.3904,-1.3904,-1.3904,-1.3904,-1.3904,-1.3904,-1.3904,-1.3904,-1.3904,-1.3904,-1.3904,-1.3904,-1.3904,-1.3904,-1.3904,-1.3904,-1.3904,-1.3904,-1.3904,-1.3904,-1.3904,-1.3904,-1.3904,-1.3904,-1.3904,-1.3904,-1.3904,-1.2968,-1.1814,-1.0377,-0.9441,-0.8285,-0.699,-0.699,-0.699,-0.1954,-0.208,-0.2181,-0.2202,-0.2226,-0.219,-0.2319,-0.238,-0.2431,-0.2458,-0.2487,-0.2508,-0.2508,-0.2511,-0.2512,-0.2508,-0.2508,-0.251,-0.2514,-0.2511,-0.251,-0.2514,-0.2514,-0.2514,-0.2514,-0.2514,-0.2514,-0.2514,-0.2514,-0.3884,-0.6966,-0.7097,-0.8503,-1.1509,-1.1633,-1.1619,-1.1619,-1.1619,-1.1619,-1.1619,-1.1619,-1.1619,-1.1619,-1.1619,-1.1619,-1.1619,-1.1619,-1.1619,-1.1619,-1.1619,-1.2043,-1.2824,-1.2824,-1.3253,-1.3904,-1.3904,-1.3904,-1.3904,-1.3904,-1.3904,-1.3904,-1.3904,-1.3904,-1.3904,-1.3904,-1.3904,-1.3904,-1.3904,-1.3904,-1.3904,-1.3904,-1.3904,-1.3904,-1.3904,-1.3904,-1.3904,-1.3904,-1.3904,-1.3904,-1.3904,-1.3904,-1.3904,-1.3904,-1.3904,-1.3904,-1.3904,-1.3904,-1.3904,-1.3904,-1.3904,-1.3904,-1.3904,-1.3904,-1.3904,-1.3904,-1.3904,-1.3904,-1.3904,-1.3904,-1.3904,-1.3904,-1.3904,-1.3904,-1.3904,-1.3761,-1.261,-1.0377,-1.0233,-0.908,-0.699,-0.699,-0.699,-0.1904,-0.2035,-0.214,-0.2208,-0.2222,-0.2236,-0.2296,-0.2342,-0.2386,-0.2433,-0.2467,-0.2493,-0.2511,-0.2514,-0.2514,-0.2514,-0.2514,-0.2514,-0.2514,-0.2514,-0.2514,-0.2514,-0.2514,-0.2514,-0.2514,-0.2514,-0.2514,-0.2514,-0.2499,-0.3469,-0.5669,-0.6597,-0.8062,-1.0239,-1.1181,-1.1619,-1.1619,-1.1619,-1.1619,-1.1619,-1.1619,-1.1619,-1.1619,-1.1619,-1.1619,-1.1619,-1.1619,-1.1619,-1.1619,-1.1619,-1.1907,-1.2474,-1.2681,-1.3111,-1.3611,-1.3825,-1.3904,-1.3904,-1.3904,-1.3904,-1.3904,-1.3904,-1.3904,-1.3904,-1.3904,-1.3904,-1.3904,-1.3904,-1.3904,-1.3904,-1.3904,-1.3904,-1.3904,-1.3904,-1.3904,-1.3904,-1.3904,-1.3904,-1.3904,-1.3904,-1.3904,-1.3904,-1.3904,-1.3904,-1.3904,-1.3904,-1.3904,-1.3904,-1.3904,-1.3904,-1.3904,-1.3904,-1.3904,-1.3904,-1.3904,-1.3904,-1.3904,-1.3904,-1.3904,-1.3904,-1.3904,-1.3904,-1.3904,-1.3904,-1.3253,-1.2108,-1.0377,-0.9729,-0.8574,-0.699,-0.699,-0.699,-0.1861,-0.1974,-0.2067,-0.2173,-0.2188,-0.2193,-0.2253,-0.2301,-0.2346,-0.2391,-0.2431,-0.2466,-0.2497,-0.2508,-0.2514,-0.2514,-0.2514,-0.2514,-0.2514,-0.2514,-0.2514,-0.2514,-0.2514,-0.2514,-0.2514,-0.2514,-0.2514,-0.2514,-0.2487,-0.3144,-0.4615,-0.6191,-0.7723,-0.9219,-1.0815,-1.1619,-1.1619,-1.1619,-1.1619,-1.1619,-1.1619,-1.1619,-1.1619,-1.1619,-1.1619,-1.1619,-1.1619,-1.1619,-1.1619,-1.1619,-1.1835,-1.2266,-1.2617,-1.2968,-1.3325,-1.3753,-1.3904,-1.3904,-1.3904,-1.3904,-1.3904,-1.3904,-1.3904,-1.3904,-1.3904,-1.3904,-1.3904,-1.3904,-1.3904,-1.3904,-1.3904,-1.3904,-1.3904,-1.3904,-1.3904,-1.3904,-1.3904,-1.3904,-1.3904,-1.3904,-1.3904,-1.3904,-1.3904,-1.3904,-1.3904,-1.3904,-1.3904,-1.3904,-1.3904,-1.3904,-1.3904,-1.3904,-1.3904,-1.3904,-1.3904,-1.3904,-1.3904,-1.3904,-1.3904,-1.3904,-1.3904,-1.3904,-1.3904,-1.3904,-1.3039,-1.2029,-1.0881,-0.9729,-0.8574,-0.7421,-0.7135,-0.699,-0.1827,-0.1911,-0.1996,-0.2059,-0.2094,-0.2129,-0.2191,-0.2271,-0.2334,-0.2337,-0.2384,-0.2435,-0.2466,-0.2495,-0.2514,-0.2514,-0.2514,-0.2514,-0.2514,-0.2514,-0.2514,-0.2514,-0.2514,-0.2514,-0.2514,-0.2514,-0.2514,-0.2514,-0.2487,-0.3144,-0.4615,-0.6191,-0.7723,-0.9219,-1.0815,-1.1619,-1.1619,-1.1619,-1.1619,-1.1619,-1.1619,-1.1619,-1.1619,-1.1619,-1.1619,-1.1619,-1.1619,-1.1619,-1.1619,-1.1619,-1.1835,-1.2266,-1.2617,-1.2968,-1.3325,-1.3753,-1.3904,-1.3904,-1.3904,-1.3904,-1.3904,-1.3904,-1.3904,-1.3904,-1.3904,-1.3904,-1.3904,-1.3904,-1.3904,-1.3904,-1.3904,-1.3904,-1.3904,-1.3904,-1.3904,-1.3904,-1.3904,-1.3904,-1.3904,-1.3904,-1.3904,-1.3904,-1.3904,-1.3904,-1.3904,-1.3904,-1.3904,-1.3904,-1.3904,-1.3904,-1.3904,-1.3904,-1.3904,-1.3904,-1.3904,-1.3904,-1.3904,-1.3904,-1.3904,-1.3904,-1.3904,-1.3904,-1.3904,-1.3904,-1.3833,-1.3253,-1.2108,-1.0881,-0.9729,-0.8569,-0.7494,-0.699,-0.1761,-0.1835,-0.1913,-0.2011,-0.2057,-0.2095,-0.2157,-0.221,-0.2263,-0.232,-0.235,-0.2387,-0.2457,-0.2478,-0.2492,-0.2511,-0.2514,-0.2514,-0.2514,-0.2514,-0.2514,-0.2514,-0.2514,-0.2514,-0.2514,-0.2514,-0.2514,-0.2514,-0.2467,-0.2663,-0.3179,-0.5625,-0.7221,-0.7837,-1.0305,-1.1619,-1.1619,-1.1619,-1.1619,-1.1619,-1.1619,-1.1619,-1.1619,-1.1619,-1.1619,-1.1619,-1.1619,-1.1619,-1.1619,-1.1619,-1.1691,-1.1907,-1.2545,-1.2896,-1.3039,-1.3682,-1.3904,-1.3904,-1.3904,-1.3904,-1.3904,-1.3904,-1.3904,-1.3904,-1.3904,-1.3904,-1.3904,-1.3904,-1.3904,-1.3904,-1.3904,-1.3904,-1.3904,-1.3904,-1.3904,-1.3904,-1.3904,-1.3904,-1.3904,-1.3904,-1.3904,-1.3904,-1.3904,-1.3904,-1.3904,-1.3904,-1.3904,-1.3904,-1.3904,-1.3904,-1.3904,-1.3904,-1.3904,-1.3904,-1.3904,-1.3904,-1.3904,-1.3904,-1.3904,-1.3904,-1.3904,-1.3904,-1.3904,-1.3904,-1.3904,-1.3325,-1.218,-1.1743,-1.0953,-0.9729,-0.8646,-0.8068,-0.1752,-0.1756,-0.1824,-0.1944,-0.2011,-0.2064,-0.2125,-0.217,-0.2217,-0.2277,-0.2296,-0.2328,-0.2409,-0.2423,-0.2443,-0.2504,-0.2514,-0.2514,-0.2514,-0.2514,-0.2514,-0.2514,-0.2514,-0.2514,-0.2514,-0.2514,-0.2514,-0.2514,-0.2458,-0.2424,-0.2424,-0.4867,-0.668,-0.7765,-1.0233,-1.1619,-1.1619,-1.1619,-1.1619,-1.1619,-1.1619,-1.1619,-1.1619,-1.1619,-1.1619,-1.1619,-1.1619,-1.1619,-1.1619,-1.1619,-1.1619,-1.1691,-1.2474,-1.2824,-1.2896,-1.3611,-1.3904,-1.3904,-1.3904,-1.3904,-1.3904,-1.3904,-1.3904,-1.3904,-1.3904,-1.3904,-1.3904,-1.3904,-1.3904,-1.3904,-1.3904,-1.3904,-1.3904,-1.3904,-1.3904,-1.3904,-1.3904,-1.3904,-1.3904,-1.3904,-1.3904,-1.3904,-1.3904,-1.3904,-1.3904,-1.3904,-1.3904,-1.3904,-1.3904,-1.3904,-1.3904,-1.3904,-1.3904,-1.3904,-1.3904,-1.3904,-1.3904,-1.3904,-1.3904,-1.3904,-1.3904,-1.3904,-1.3904,-1.3904,-1.3904,-1.3539,-1.2753,-1.2395,-1.1821,-1.0953,-0.9801,-0.908,0.0,0.0,0.0,-0.1853,-0.1949,-0.2031,-0.2094,-0.2155,-0.2199,-0.22,-0.2225,-0.2194,-0.2322,-0.2333,-0.2372,-0.2492,-0.2511,-0.2512,-0.2512,-0.2512,-0.2514,-0.2514,-0.2514,-0.2514,-0.2514,-0.2514,-0.2514,-0.2514,-0.2459,-0.2424,-0.2424,-0.3914,-0.6177,-0.9219,-1.0815,-1.1619,-1.1619,-1.1619,-1.1619,-1.1619,-1.1619,-1.1619,-1.1619,-1.1619,-1.1619,-1.1619,-1.1619,-1.1619,-1.1619,-1.1619,-1.1619,-1.1691,-1.2466,-1.2753,-1.2896,-1.3619,-1.3896,-1.3904,-1.3904,-1.3904,-1.3904,-1.3904,-1.3904,-1.3904,-1.3904,-1.3904,-1.3904,-1.3904,-1.3904,-1.3904,-1.3904,-1.3904,-1.3904,-1.3904,-1.3904,-1.3904,-1.3904,-1.3904,-1.3904,-1.3904,-1.3904,-1.3904,-1.3904,-1.3904,-1.3904,-1.3904,-1.3904,-1.3904,-1.3904,-1.3904,-1.3904,-1.3904,-1.3904,-1.3904,-1.3904,-1.3904,-1.3904,-1.3904,-1.3904,-1.3904,-1.3904,-1.3904,-1.3904,-1.3904,-1.3904,-1.3904,-1.3904,-1.2824,-1.2252,-1.2252,-1.1025,-0.9873,-0.1585,0.0,0.0,0.0,0.0,0.0,-0.2053,-0.2124,-0.2173,-0.2195,-0.2241,-0.2289,-0.2326,-0.2333,-0.2358,-0.2436,-0.2448,-0.2457,-0.2478,-0.2481,-0.2489,-0.2512,-0.2514,-0.2514,-0.2514,-0.2514,-0.2514,0.0,-0.2478,-0.2447,-0.2424,-0.494,-0.7259,-0.9219,-1.0815,-1.1619,-1.1619,-1.1619,-1.1619,-1.1619,-1.1619,-1.1619,-1.1619,-1.1619,-1.1619,-1.1619,-1.1619,-1.1619,-1.1619,-1.1619,-1.1619,-1.1619,-1.2194,-1.2402,-1.2409,-1.2896,-1.3253,-1.3468,-1.3468,-1.3682,-1.3904,-1.3904,-1.3904,-1.3904,-1.3904,-1.3904,-1.3904,-1.3904,-1.3904,-1.3904,-1.3904,-1.3904,-1.3904,-1.3904,-1.3904,-1.3904,-1.3904,-1.3904,-1.3904,-1.3904,-1.3904,-1.3904,-1.3904,-1.3904,-1.3904,-1.3904,-1.3904,-1.3904,-1.3904,-1.3904,-1.3904,-1.3904,-1.3904,-1.3904,-1.3904,-1.3904,-1.3904,-1.3904,-1.3904,-1.3904,-1.3904,-1.3904,-1.3904,-1.3904,-1.3904,-1.3904,-1.3904,-1.3611,-1.3396,-1.3396,-1.2252,-1.1096,-0.157,-0.1594,-0.1637,-0.1719,0.0,0.0,-0.2023,-0.2102,-0.2166,-0.221,-0.2247,-0.2277,-0.2293,-0.2224,-0.2236,-0.2343,-0.236,-0.2387,-0.2443,-0.245,-0.2461,-0.2492,-0.2484,-0.2487,-0.2512,-0.2503,-0.25,-0.2514,-0.2487,-0.245,-0.2406,-0.529,-0.7404,-0.8348,-1.0455,-1.1619,-1.1619,-1.1619,-1.1619,-1.1619,-1.1619,-1.1619,-1.1619,-1.1619,-1.1619,-1.1619,-1.1619,-1.1619,-1.1619,-1.1619,-1.1619,-1.1619,-1.2051,-1.2194,-1.2266,-1.2689,-1.3039,-1.3325,-1.3325,-1.3539,-1.3904,-1.3904,-1.3904,-1.3904,-1.3904,-1.3904,-1.3904,-1.3904,-1.3904,-1.3904,-1.3904,-1.3904,-1.3904,-1.3904,-1.3904,-1.3904,-1.3904,-1.3904,-1.3904,-1.3904,-1.3904,-1.3904,-1.3904,-1.3904,-1.3904,-1.3904,-1.3904,-1.3904,-1.3904,-1.3969,-1.4018,-1.4018,-1.4083,-1.4091,-1.4026,-1.4018,-1.3985,-1.3904,-1.3904,-1.3904,-1.3904,-1.3904,-1.3904,-1.3904,-1.3904,-1.3904,-1.3904,-1.3904,-1.3904,-1.3904,-1.3253,-1.2252,-0.1587,-0.1594,-0.162,-0.1705,-0.1785,0.0,-0.1993,-0.2075,-0.2153,-0.2213,-0.2161,-0.2166,-0.2166,-0.2163,-0.2163,-0.2174,-0.2266,-0.2312,-0.2401,-0.2413,-0.2427,-0.2459,-0.2438,-0.2442,-0.2499,-0.248,-0.2476,-0.2502,-0.2478,-0.244,-0.2386,-0.5354,-0.6978,-0.697,-1.0017,-1.1619,-1.1619,-1.1619,-1.1619,-1.1619,-1.1619,-1.1619,-1.1619,-1.1619,-1.1619,-1.1619,-1.1619,-1.1619,-1.1619,-1.1619,-1.1619,-1.1619,-1.1979,-1.2122,-1.2194,-1.2545,-1.2896,-1.3253,-1.3253,-1.3539,-1.3904,-1.3904,-1.3904,-1.3904,-1.3904,-1.3904,-1.3904,-1.3904,-1.3904,-1.3904,-1.3904,-1.3904,-1.3904,-1.3904,-1.3904,-1.3904,-1.3904,-1.3904,-1.3904,-1.3904,-1.3904,-1.3904,-1.3904,-1.392,-1.3928,-1.3928,-1.3945,-1.3961,-1.3961,-1.4107,-1.4205,-1.4205,-1.4343,-1.4367,-1.4221,-1.4188,-1.4107,-1.3945,-1.3912,-1.3904,-1.3904,-1.3904,-1.3904,-1.3904,-1.3904,-1.3904,-1.3904,-1.3904,-1.3904,-1.3904,-1.3904,-1.3325,-0.1629,-0.1595,-0.1594,-0.17,-0.1705,0.0,-0.1918,-0.1981,-0.2029,-0.2087,-0.2138,-0.2173,-0.2173,-0.2153,-0.2159,-0.2163,-0.223,-0.2249,-0.2338,-0.235,-0.2371,-0.2427,-0.2405,-0.2401,-0.2438,-0.2436,-0.2435,-0.244,-0.2436,-0.2428,-0.2416,-0.5351,-0.697,-0.697,-1.0017,-1.1619,-1.1619,-1.1619,-1.1619,-1.1619,-1.1619,-1.1619,-1.1619,-1.1619,-1.1619,-1.1619,-1.1619,-1.1619,-1.1619,-1.1619,-1.1619,-1.1619,-1.1691,-1.1691,-1.1763,-1.1835,-1.2259,-1.2896,-1.2896,-1.3325,-1.3904,-1.3904,-1.3904,-1.3904,-1.3904,-1.3904,-1.3904,-1.3904,-1.3904,-1.3904,-1.3904,-1.3904,-1.3904,-1.3904,-1.3904,-1.3904,-1.3904,-1.3904,-1.3904,-1.3904,-1.3904,-1.3904,-1.3904,-1.4026,-1.4123,-1.4123,-1.4237,-1.4326,-1.4326,-1.4359,-1.4383,-1.4383,-1.4416,-1.4416,-1.4383,-1.4253,-1.4164,-1.4123,-1.3985,-1.3904,-1.3904,-1.3904,-1.3904,-1.3904,-1.3904,-1.3904,-1.3904,-1.3904,-1.3904,-1.3904,-1.3904,-1.3761,-0.1671,-0.1617,-0.1598,-0.1663,-0.1651,0.0,0.0,-0.1899,-0.1944,-0.1989,-0.2069,-0.2119,-0.2074,-0.209,-0.2114,-0.2129,-0.2158,-0.2183,-0.2196,-0.2264,-0.2334,-0.2394,-0.2348,-0.2342,-0.2416,-0.2383,-0.2369,-0.2399,-0.2401,-0.2394,-0.2379,-0.5302,-0.6998,-0.698,-0.9982,-1.1619,-1.1619,-1.1619,-1.1619,-1.1619,-1.1619,-1.1619,-1.1619,-1.1619,-1.1619,-1.1619,-1.1619,-1.1619,-1.1619,-1.1619,-1.1619,-1.1619,-1.1619,-1.1619,-1.1619,-1.1619,-1.2115,-1.2824,-1.2824,-1.3253,-1.3904,-1.3904,-1.3904,-1.3904,-1.3904,-1.3904,-1.3904,-1.3904,-1.3904,-1.3904,-1.3904,-1.3904,-1.3904,-1.3904,-1.3904,-1.3904,-1.3904,-1.3904,-1.3904,-1.3904,-1.3904,-1.3904,-1.3904,-1.4058,-1.418,-1.418,-1.4318,-1.4432,-1.4432,-1.4513,-1.457,-1.457,-1.4643,-1.4659,-1.4578,-1.4489,-1.4399,-1.431,-1.4221,-1.4164,-1.4164,-1.4164,-1.4123,-1.4042,-1.4042,-1.3993,-1.3904,-1.3904,-1.3904,-1.3904,-1.3904,-1.3904,-0.1776,-0.1662,-0.1635,-0.1598,-0.169,-0.1759,0.0,0.0,0.0,-0.1899,-0.1982,-0.203,-0.197,-0.2012,-0.2039,-0.1984,-0.2052,-0.2089,-0.2022,-0.2143,-0.2264,-0.2335,-0.229,-0.229,-0.238,-0.235,-0.2337,-0.2367,-0.2397,-0.2393,-0.2343,-0.5035,-0.6669,-0.6943,-0.9678,-1.1325,-1.1619,-1.1619,-1.1619,-1.1619,-1.1619,-1.1619,-1.1619,-1.1619,-1.1619,-1.1619,-1.1619,-1.1619,-1.1619,-1.1619,-1.1619,-1.1619,-1.1619,-1.1619,-1.1619,-1.1619,-1.2115,-1.2824,-1.2824,-1.3253,-1.3904,-1.3904,-1.3904,-1.3904,-1.3904,-1.3904,-1.3904,-1.3904,-1.3904,-1.3904,-1.3904,-1.3904,-1.3904,-1.3904,-1.3904,-1.3904,-1.3904,-1.3928,-1.3953,-1.3953,-1.3985,-1.3985,-1.3912,-1.4083,-1.4229,-1.4229,-1.4399,-1.4538,-1.4538,-1.4667,-1.4757,-1.4757,-1.4879,-1.4911,-1.4773,-1.4724,-1.4643,-1.4497,-1.4448,-1.4432,-1.4432,-1.4432,-1.4367,-1.4229,-1.4229,-1.414,-1.3953,-1.3953,-1.3937,-1.3904,-1.3904,-1.3904,-0.1843,-0.1791,-0.1776,-0.1718,-0.1716,-0.1775,-0.1814,0.0,-0.1806,-0.1809,0.0,-0.1844,-0.1888,0.0,0.0,-0.1825,-0.1896,-0.1926,-0.1838,-0.1955,-0.2091,-0.2207,-0.2259,-0.2281,-0.2196,-0.2376,-0.2418,-0.2343,-0.2463,-0.2491,-0.2379,-0.3999,-0.5586,-0.6958,-0.8631,-1.0233,-1.1619,-1.1619,-1.1619,-1.1619,-1.1619,-1.1619,-1.1619,-1.1619,-1.1619,-1.1619,-1.1619,-1.1619,-1.1619,-1.1619,-1.1619,-1.1619,-1.1619,-1.1619,-1.1619,-1.1619,-1.2115,-1.2824,-1.2824,-1.3253,-1.3904,-1.3904,-1.3904,-1.3904,-1.3904,-1.3904,-1.3904,-1.3904,-1.3904,-1.3904,-1.3904,-1.3904,-1.3904,-1.3904,-1.3904,-1.3904,-1.3904,-1.4034,-1.4148,-1.4148,-1.427,-1.427,-1.3953,-1.418,-1.4399,-1.4399,-1.4692,-1.4903,-1.4903,-1.4919,-1.4935,-1.4935,-1.4952,-1.496,-1.4935,-1.4797,-1.47,-1.4676,-1.4521,-1.4432,-1.4432,-1.4432,-1.4424,-1.4408,-1.4399,-1.4318,-1.4148,-1.4148,-1.4066,-1.3904,-1.3904,-1.3904,-0.193,-0.194,-0.1862,-0.1785,-0.1794,-0.1819,-0.1805,-0.1771,-0.1738,-0.1722,0.0,0.0,0.0,0.0,0.0,0.0,-0.1804,-0.1827,-0.1753,-0.1872,-0.2005,-0.2109,-0.2143,0.0,-0.2191,-0.2345,-0.2405,-0.2315,-0.2416,-0.2436,-0.2333,-0.3875,-0.5392,-0.69,-0.8462,-1.0017,-1.1548,-1.1619,-1.1619,-1.1619,-1.1619,-1.1619,-1.1619,-1.1619,-1.1619,-1.1619,-1.1619,-1.1619,-1.1619,-1.1619,-1.1619,-1.1619,-1.1619,-1.1619,-1.1619,-1.1619,-1.1979,-1.2474,-1.2681,-1.3111,-1.3611,-1.3825,-1.3904,-1.3904,-1.3904,-1.3904,-1.3904,-1.3904,-1.3904,-1.3904,-1.3904,-1.3904,-1.3904,-1.3904,-1.3985,-1.4034,-1.3928,-1.4123,-1.4294,-1.4196,-1.4318,-1.4383,-1.4237,-1.4424,-1.4594,-1.4594,-1.4806,-1.4968,-1.4968,-1.4968,-1.4968,-1.4968,-1.4968,-1.4968,-1.4968,-1.4903,-1.4854,-1.4854,-1.4781,-1.4741,-1.4741,-1.4741,-1.4692,-1.4594,-1.4489,-1.4391,-1.4326,-1.4229,-1.4188,-1.4205,-1.3993,-1.3904,-0.2044,-0.1994,-0.1973,-0.1906,-0.1895,-0.1899,-0.1832,-0.1825,-0.1753,-0.1708,-0.1696,0.0,0.0,0.0,-0.1695,-0.164,0.0,-0.1695,-0.1617,-0.1737,-0.1879,-0.2001,-0.2037,-0.2075,0.0,-0.2313,-0.2383,-0.2286,-0.2384,-0.2402,-0.2296,-0.3389,-0.491,-0.688,-0.8093,-0.9579,-1.1548,-1.1619,-1.1619,-1.1619,-1.1619,-1.1619,-1.1619,-1.1619,-1.1619,-1.1619,-1.1619,-1.1619,-1.1619,-1.1619,-1.1619,-1.1619,-1.1619,-1.1619,-1.1619,-1.1619,-1.1835,-1.2266,-1.2689,-1.3111,-1.3539,-1.3833,-1.3904,-1.3904,-1.3904,-1.3904,-1.3904,-1.3904,-1.3904,-1.3904,-1.3904,-1.3904,-1.3904,-1.3904,-1.4002,-1.4083,-1.3993,-1.4221,-1.4408,-1.4335,-1.4456,-1.4578,-1.4578,-1.4651,-1.4708,-1.4708,-1.4854,-1.4968,-1.4968,-1.4968,-1.4968,-1.4968,-1.4968,-1.4968,-1.4968,-1.4968,-1.4968,-1.4968,-1.4968,-1.4968,-1.4968,-1.4968,-1.4911,-1.4781,-1.4643,-1.4554,-1.4505,-1.4383,-1.4359,-1.4424,-1.4164,-1.4026,-0.2087,-0.2039,-0.2016,-0.2014,-0.2035,-0.2049,-0.2019,-0.1967,-0.1899,-0.1809,-0.1723,-0.1654,-0.1624,-0.162,-0.1583,-0.1417,-0.1449,0.0,0.0,-0.1489,-0.166,-0.1866,-0.1967,-0.2044,-0.2105,-0.23,-0.2375,0.0,-0.2412,-0.2447,-0.2298,-0.2363,-0.381,-0.6889,-0.7038,-0.8564,-1.1548,-1.1619,-1.1619,-1.1619,-1.1619,-1.1619,-1.1619,-1.1619,-1.1619,-1.1619,-1.1619,-1.1619,-1.1619,-1.1619,-1.1619,-1.1619,-1.1619,-1.1619,-1.1619,-1.1619,-1.1835,-1.2266,-1.2689,-1.3253,-1.3904,-1.3904,-1.3904,-1.3904,-1.3904,-1.3904,-1.3904,-1.3904,-1.3904,-1.3904,-1.3904,-1.3904,-1.3904,-1.3904,-1.3904,-1.3961,-1.4131,-1.431,-1.4481,-1.4659,-1.483,-1.4952,-1.4952,-1.4814,-1.4708,-1.4708,-1.4854,-1.4968,-1.4968,-1.4968,-1.4968,-1.4968,-1.4968,-1.4968,-1.4968,-1.4968,-1.4968,-1.4968,-1.4968,-1.4968,-1.4968,-1.4968,-1.496,-1.496,-1.4952,-1.4871,-1.47,-1.4692,-1.4603,-1.4432,-1.4416,-1.4326,-0.2251,-0.2221,-0.2193,-0.2174,-0.2192,-0.22,-0.215,-0.2061,-0.1969,-0.1899,-0.1767,-0.1711,-0.1648,-0.1598,-0.1495,-0.1455,-0.1433,-0.1407,0.0,-0.1467,-0.153,-0.1581,-0.1772,-0.194,-0.2039,-0.2204,0.0,0.0,-0.2387,0.0,-0.2267,-0.2297,-0.3251,-0.531,-0.6433,-0.7982,-1.0089,-1.1109,-1.1619,-1.1619,-1.1619,-1.1619,-1.1619,-1.1619,-1.1619,-1.1619,-1.1619,-1.1619,-1.1619,-1.1619,-1.1619,-1.1619,-1.1619,-1.1619,-1.1619,-1.1619,-1.1691,-1.1907,-1.2538,-1.3253,-1.3904,-1.3904,-1.3904,-1.3904,-1.3904,-1.3904,-1.3904,-1.3904,-1.3904,-1.3904,-1.3904,-1.3904,-1.3937,-1.4058,-1.4261,-1.4456,-1.4513,-1.4854,-1.513,-1.5074,-1.5204,-1.5333,-1.5333,-1.5277,-1.5163,-1.4919,-1.4927,-1.4968,-1.4968,-1.4968,-1.4968,-1.4968,-1.4968,-1.4968,-1.4968,-1.4968,-1.4968,-1.4968,-1.4968,-1.4968,-1.4968,-1.4968,-1.4968,-1.4968,-1.4854,-1.4822,-1.4879,-1.4765,-1.4732,-1.4781,-1.4781,-1.457,-0.1885,-0.1865,-0.1849,-0.185,-0.1849,-0.192,-0.2065,-0.1973,-0.1878,-0.197,-0.1883,-0.1759,-0.1759,-0.1666,-0.1594,-0.1605,-0.1528,-0.1414,0.0,-0.1434,-0.143,-0.1421,-0.157,-0.1816,-0.1958,-0.2108,-0.2223,0.0,0.0,-0.2349,0.0,-0.2209,-0.3013,-0.4567,-0.6134,-0.7765,-0.9291,-1.0815,-1.1619,-1.1619,-1.1619,-1.1619,-1.1619,-1.1619,-1.1619,-1.1619,-1.1619,-1.1619,-1.1619,-1.1619,-1.1619,-1.1619,-1.1619,-1.1619,-1.1619,-1.1619,-1.1763,-1.2115,-1.261,-1.3253,-1.3904,-1.3904,-1.3904,-1.3904,-1.3904,-1.3904,-1.3912,-1.3985,-1.4042,-1.4091,-1.4091,-1.418,-1.4294,-1.4351,-1.4586,-1.4814,-1.4879,-1.5171,-1.5398,-1.535,-1.5431,-1.5512,-1.5512,-1.5512,-1.5439,-1.5195,-1.5106,-1.509,-1.5155,-1.5106,-1.509,-1.5155,-1.5163,-1.5139,-1.5065,-1.5,-1.4968,-1.4968,-1.4968,-1.4968,-1.4968,-1.4968,-1.5,-1.5065,-1.4887,-1.4887,-1.5065,-1.4887,-1.4854,-1.4968,-1.4968,-1.4749]}]]